Wetterdaten: aktuell Sonntag, 20.09.2020 21:44
Datum Zeit Temp. A. Feuchte A. Luftdruck Regen Wind Richtung Richtung Sonnenschein ET UV Solar Taupunkt Windchill Windben Empfang
20.09.2020 21:44 13,2 C 75 % 1017,5 hPa 0,0 l/m 8,0 km/h (2 Bft) NO 45 0 min 0,000 mm 0,0 UV-I 0 W/m 8,9 C 13,2 C 11,3 km/h (2 Bft) 100,00 %
20.09.2020 21:43 13,2 C 75 % 1017,6 hPa 0,0 l/m 8,0 km/h (2 Bft) NO 45 0 min 0,000 mm 0,0 UV-I 0 W/m 8,9 C 13,2 C 14,5 km/h (3 Bft) 100,00 %
20.09.2020 21:42 13,2 C 75 % 1017,5 hPa 0,0 l/m 8,0 km/h (2 Bft) NO 45 0 min 0,000 mm 0,0 UV-I 0 W/m 8,9 C 13,2 C 12,9 km/h (3 Bft) 100,00 %
20.09.2020 21:41 13,2 C 75 % 1017,6 hPa 0,0 l/m 8,0 km/h (2 Bft) N-NO 22 0 min 0,000 mm 0,0 UV-I 0 W/m 8,9 C 13,2 C 11,3 km/h (2 Bft) 100,00 %
20.09.2020 21:40 13,3 C 75 % 1017,6 hPa 0,0 l/m 8,0 km/h (2 Bft) NO 45 0 min 0,000 mm 0,0 UV-I 0 W/m 9,0 C 13,3 C 12,9 km/h (3 Bft) 95,65 %
20.09.2020 21:39 13,3 C 75 % 1017,6 hPa 0,0 l/m 8,0 km/h (2 Bft) NO 45 0 min 0,000 mm 0,0 UV-I 0 W/m 9,0 C 13,3 C 12,9 km/h (3 Bft) 100,00 %
20.09.2020 21:38 13,3 C 75 % 1017,6 hPa 0,0 l/m 6,4 km/h (2 Bft) NO 45 0 min 0,000 mm 0,0 UV-I 0 W/m 9,0 C 13,3 C 9,7 km/h (2 Bft) 100,00 %
20.09.2020 21:37 13,3 C 75 % 1017,5 hPa 0,0 l/m 6,4 km/h (2 Bft) N 360 0 min 0,000 mm 0,0 UV-I 0 W/m 9,0 C 13,3 C 9,7 km/h (2 Bft) 100,00 %
20.09.2020 21:36 13,3 C 75 % 1017,6 hPa 0,0 l/m 8,0 km/h (2 Bft) NO 45 0 min 0,000 mm 0,0 UV-I 0 W/m 9,0 C 13,3 C 12,9 km/h (3 Bft) 100,00 %
20.09.2020 21:35 13,3 C 74 % 1017,6 hPa 0,0 l/m 6,4 km/h (2 Bft) NO 45 0 min 0,000 mm 0,0 UV-I 0 W/m 8,8 C 13,3 C 11,3 km/h (2 Bft) 95,65 %
20.09.2020 21:34 13,4 C 74 % 1017,5 hPa 0,0 l/m 9,7 km/h (2 Bft) NO 45 0 min 0,000 mm 0,0 UV-I 0 W/m 8,9 C 13,4 C 14,5 km/h (3 Bft) 100,00 %
20.09.2020 21:33 13,4 C 74 % 1017,6 hPa 0,0 l/m 11,3 km/h (2 Bft) NO 45 0 min 0,000 mm 0,0 UV-I 0 W/m 8,9 C 13,4 C 14,5 km/h (3 Bft) 91,30 %
20.09.2020 21:32 13,4 C 74 % 1017,6 hPa 0,0 l/m 8,0 km/h (2 Bft) NO 45 0 min 0,000 mm 0,0 UV-I 0 W/m 8,9 C 13,4 C 12,9 km/h (3 Bft) 100,00 %
20.09.2020 21:31 13,4 C 74 % 1017,6 hPa 0,0 l/m 6,4 km/h (2 Bft) N-NO 22 0 min 0,000 mm 0,0 UV-I 0 W/m 8,9 C 13,4 C 9,7 km/h (2 Bft) 95,65 %
20.09.2020 21:30 13,4 C 74 % 1017,5 hPa 0,0 l/m 4,8 km/h (1 Bft) NO 45 0 min 0,000 mm 0,0 UV-I 0 W/m 8,9 C 13,4 C 8,0 km/h (2 Bft) 95,65 %
20.09.2020 21:29 13,4 C 74 % 1017,6 hPa 0,0 l/m 4,8 km/h (1 Bft) NO 45 0 min 0,000 mm 0,0 UV-I 0 W/m 8,9 C 13,4 C 8,0 km/h (2 Bft) 100,00 %
20.09.2020 21:28 13,4 C 74 % 1017,6 hPa 0,0 l/m 6,4 km/h (2 Bft) NO 45 0 min 0,000 mm 0,0 UV-I 0 W/m 8,9 C 13,4 C 9,7 km/h (2 Bft) 100,00 %
20.09.2020 21:27 13,4 C 74 % 1017,6 hPa 0,0 l/m 9,7 km/h (2 Bft) NO 45 0 min 0,000 mm 0,0 UV-I 0 W/m 8,9 C 13,4 C 14,5 km/h (3 Bft) 100,00 %
20.09.2020 21:26 13,5 C 74 % 1017,6 hPa 0,0 l/m 6,4 km/h (2 Bft) NO 45 0 min 0,000 mm 0,0 UV-I 0 W/m 9,0 C 13,5 C 8,0 km/h (2 Bft) 95,65 %
20.09.2020 21:25 13,5 C 74 % 1017,6 hPa 0,0 l/m 6,4 km/h (2 Bft) NO 45 0 min 0,000 mm 0,0 UV-I 0 W/m 9,0 C 13,5 C 9,7 km/h (2 Bft) 95,65 %
20.09.2020 21:24 13,5 C 74 % 1017,6 hPa 0,0 l/m 6,4 km/h (2 Bft) NO 45 0 min 0,000 mm 0,0 UV-I 0 W/m 9,0 C 13,5 C 8,0 km/h (2 Bft) 100,00 %
20.09.2020 21:23 13,5 C 74 % 1017,7 hPa 0,0 l/m 8,0 km/h (2 Bft) NO 45 0 min 0,000 mm 0,0 UV-I 0 W/m 9,0 C 13,5 C 11,3 km/h (2 Bft) 100,00 %
20.09.2020 21:22 13,5 C 74 % 1017,7 hPa 0,0 l/m 3,2 km/h (1 Bft) NO 45 0 min 0,000 mm 0,0 UV-I 0 W/m 9,0 C 13,5 C 4,8 km/h (1 Bft) 95,65 %
20.09.2020 21:21 13,5 C 74 % 1017,7 hPa 0,0 l/m 4,8 km/h (1 Bft) NO 45 0 min 0,000 mm 0,0 UV-I 0 W/m 9,0 C 13,5 C 8,0 km/h (2 Bft) 100,00 %
20.09.2020 21:20 13,5 C 74 % 1017,7 hPa 0,0 l/m 6,4 km/h (2 Bft) N-NO 22 0 min 0,000 mm 0,0 UV-I 0 W/m 9,0 C 13,5 C 11,3 km/h (2 Bft) 100,00 %
20.09.2020 21:19 13,6 C 74 % 1017,6 hPa 0,0 l/m 8,0 km/h (2 Bft) N-NO 22 0 min 0,000 mm 0,0 UV-I 0 W/m 9,1 C 13,6 C 12,9 km/h (3 Bft) 95,65 %
20.09.2020 21:18 13,6 C 74 % 1017,7 hPa 0,0 l/m 9,7 km/h (2 Bft) NO 45 0 min 0,000 mm 0,0 UV-I 0 W/m 9,1 C 13,6 C 12,9 km/h (3 Bft) 100,00 %
20.09.2020 21:17 13,6 C 74 % 1017,7 hPa 0,0 l/m 4,8 km/h (1 Bft) NO 45 0 min 0,000 mm 0,0 UV-I 0 W/m 9,1 C 13,6 C 9,7 km/h (2 Bft) 100,00 %
20.09.2020 21:16 13,6 C 74 % 1017,7 hPa 0,0 l/m 4,8 km/h (1 Bft) N-NO 22 0 min 0,000 mm 0,0 UV-I 0 W/m 9,1 C 13,6 C 8,0 km/h (2 Bft) 100,00 %
20.09.2020 21:15 13,6 C 73 % 1017,7 hPa 0,0 l/m 8,0 km/h (2 Bft) N-NO 22 0 min 0,000 mm 0,0 UV-I 0 W/m 8,9 C 13,6 C 12,9 km/h (3 Bft) 95,65 %
20.09.2020 21:14 13,6 C 73 % 1017,7 hPa 0,0 l/m 8,0 km/h (2 Bft) NO 45 0 min 0,000 mm 0,0 UV-I 0 W/m 8,9 C 13,6 C 12,9 km/h (3 Bft) 100,00 %
20.09.2020 21:13 13,6 C 73 % 1017,7 hPa 0,0 l/m 6,4 km/h (2 Bft) N-NO 22 0 min 0,000 mm 0,0 UV-I 0 W/m 8,9 C 13,6 C 8,0 km/h (2 Bft) 95,65 %
20.09.2020 21:12 13,6 C 73 % 1017,6 hPa 0,0 l/m 3,2 km/h (1 Bft) N-NO 22 0 min 0,000 mm 0,0 UV-I 0 W/m 8,9 C 13,6 C 4,8 km/h (1 Bft) 91,30 %
20.09.2020 21:11 13,7 C 73 % 1017,6 hPa 0,0 l/m 4,8 km/h (1 Bft) N-NO 22 0 min 0,000 mm 0,0 UV-I 0 W/m 8,9 C 13,7 C 8,0 km/h (2 Bft) 100,00 %
20.09.2020 21:10 13,7 C 73 % 1017,7 hPa 0,0 l/m 4,8 km/h (1 Bft) N-NO 22 0 min 0,000 mm 0,0 UV-I 0 W/m 8,9 C 13,7 C 6,4 km/h (2 Bft) 100,00 %
20.09.2020 21:09 13,7 C 73 % 1017,7 hPa 0,0 l/m 4,8 km/h (1 Bft) N-NO 22 0 min 0,000 mm 0,0 UV-I 0 W/m 8,9 C 13,7 C 6,4 km/h (2 Bft) 100,00 %
20.09.2020 21:08 13,7 C 73 % 1017,7 hPa 0,0 l/m 4,8 km/h (1 Bft) N-NO 22 0 min 0,000 mm 0,0 UV-I 0 W/m 8,9 C 13,7 C 6,4 km/h (2 Bft) 100,00 %
20.09.2020 21:07 13,7 C 73 % 1017,6 hPa 0,0 l/m 4,8 km/h (1 Bft) NO 45 0 min 0,000 mm 0,0 UV-I 0 W/m 8,9 C 13,7 C 6,4 km/h (2 Bft) 95,65 %
20.09.2020 21:06 13,8 C 73 % 1017,6 hPa 0,0 l/m 3,2 km/h (1 Bft) N-NO 22 0 min 0,000 mm 0,0 UV-I 0 W/m 9,0 C 13,8 C 6,4 km/h (2 Bft) 100,00 %
20.09.2020 21:05 13,8 C 73 % 1017,7 hPa 0,0 l/m 3,2 km/h (1 Bft) N-NO 22 0 min 0,000 mm 0,0 UV-I 0 W/m 9,0 C 13,8 C 6,4 km/h (2 Bft) 91,30 %
20.09.2020 21:04 13,8 C 73 % 1017,7 hPa 0,0 l/m 6,4 km/h (2 Bft) N-NO 22 0 min 0,000 mm 0,0 UV-I 0 W/m 9,0 C 13,8 C 9,7 km/h (2 Bft) 95,65 %
20.09.2020 21:03 13,8 C 73 % 1017,7 hPa 0,0 l/m 3,2 km/h (1 Bft) N-NO 22 0 min 0,000 mm 0,0 UV-I 0 W/m 9,0 C 13,8 C 4,8 km/h (1 Bft) 100,00 %
20.09.2020 21:02 13,8 C 73 % 1017,6 hPa 0,0 l/m 4,8 km/h (1 Bft) N-NO 22 0 min 0,000 mm 0,0 UV-I 0 W/m 9,0 C 13,8 C 6,4 km/h (2 Bft) 95,65 %
20.09.2020 21:01 13,8 C 73 % 1017,6 hPa 0,0 l/m 4,8 km/h (1 Bft) NO 45 0 min 0,000 mm 0,0 UV-I 0 W/m 9,0 C 13,8 C 6,4 km/h (2 Bft) 100,00 %
20.09.2020 21:00 13,8 C 73 % 1017,6 hPa 0,0 l/m 6,4 km/h (2 Bft) N 360 0 min 0,025 mm 0,0 UV-I 0 W/m 9,0 C 13,8 C 12,9 km/h (3 Bft) 91,30 %
20.09.2020 20:59 13,8 C 73 % 1017,7 hPa 0,0 l/m 4,8 km/h (1 Bft) NO 45 0 min 0,000 mm 0,0 UV-I 0 W/m 9,0 C 13,8 C 9,7 km/h (2 Bft) 100,00 %
20.09.2020 20:58 13,8 C 73 % 1017,6 hPa 0,0 l/m 6,4 km/h (2 Bft) NO 45 0 min 0,000 mm 0,0 UV-I 0 W/m 9,0 C 13,8 C 8,0 km/h (2 Bft) 86,96 %
20.09.2020 20:57 13,8 C 73 % 1017,6 hPa 0,0 l/m 4,8 km/h (1 Bft) N-NO 22 0 min 0,000 mm 0,0 UV-I 0 W/m 9,0 C 13,8 C 8,0 km/h (2 Bft) 100,00 %
20.09.2020 20:56 13,8 C 73 % 1017,6 hPa 0,0 l/m 6,4 km/h (2 Bft) N-NO 22 0 min 0,000 mm 0,0 UV-I 0 W/m 9,0 C 13,8 C 14,5 km/h (3 Bft) 95,65 %
20.09.2020 20:55 13,8 C 73 % 1017,6 hPa 0,0 l/m 6,4 km/h (2 Bft) NO 45 0 min 0,000 mm 0,0 UV-I 0 W/m 9,0 C 13,8 C 9,7 km/h (2 Bft) 95,65 %
20.09.2020 20:54 13,8 C 73 % 1017,6 hPa 0,0 l/m 8,0 km/h (2 Bft) N-NO 22 0 min 0,000 mm 0,0 UV-I 0 W/m 9,0 C 13,8 C 12,9 km/h (3 Bft) 95,65 %
20.09.2020 20:53 13,8 C 73 % 1017,6 hPa 0,0 l/m 4,8 km/h (1 Bft) N-NW 337 0 min 0,000 mm 0,0 UV-I 0 W/m 9,0 C 13,8 C 11,3 km/h (2 Bft) 95,65 %
20.09.2020 20:52 13,8 C 73 % 1017,6 hPa 0,0 l/m 4,8 km/h (1 Bft) N 360 0 min 0,000 mm 0,0 UV-I 0 W/m 9,0 C 13,8 C 9,7 km/h (2 Bft) 95,65 %
20.09.2020 20:51 13,9 C 73 % 1017,6 hPa 0,0 l/m 4,8 km/h (1 Bft) N-NO 22 0 min 0,000 mm 0,0 UV-I 0 W/m 9,1 C 13,9 C 6,4 km/h (2 Bft) 91,30 %
20.09.2020 20:50 13,9 C 73 % 1017,6 hPa 0,0 l/m 4,8 km/h (1 Bft) N 360 0 min 0,000 mm 0,0 UV-I 0 W/m 9,1 C 13,9 C 6,4 km/h (2 Bft) 100,00 %
20.09.2020 20:49 13,9 C 73 % 1017,6 hPa 0,0 l/m 3,2 km/h (1 Bft) N-NO 22 0 min 0,000 mm 0,0 UV-I 0 W/m 9,1 C 13,9 C 4,8 km/h (1 Bft) 95,65 %
20.09.2020 20:48 13,9 C 73 % 1017,6 hPa 0,0 l/m 4,8 km/h (1 Bft) O-NO 67 0 min 0,000 mm 0,0 UV-I 0 W/m 9,1 C 13,9 C 8,0 km/h (2 Bft) 100,00 %
20.09.2020 20:47 13,9 C 73 % 1017,6 hPa 0,0 l/m 8,0 km/h (2 Bft) NO 45 0 min 0,000 mm 0,0 UV-I 0 W/m 9,1 C 13,9 C 12,9 km/h (3 Bft) 86,96 %
20.09.2020 20:46 13,8 C 73 % 1017,5 hPa 0,0 l/m 4,8 km/h (1 Bft) O-NO 67 0 min 0,000 mm 0,0 UV-I 0 W/m 9,0 C 13,8 C 6,4 km/h (2 Bft) 91,30 %
20.09.2020 20:45 13,9 C 73 % 1017,6 hPa 0,0 l/m 3,2 km/h (1 Bft) NO 45 0 min 0,000 mm 0,0 UV-I 0 W/m 9,1 C 13,9 C 3,2 km/h (1 Bft) 100,00 %
20.09.2020 20:44 13,9 C 73 % 1017,5 hPa 0,0 l/m 4,8 km/h (1 Bft) NO 45 0 min 0,000 mm 0,0 UV-I 0 W/m 9,1 C 13,9 C 6,4 km/h (2 Bft) 91,30 %
20.09.2020 20:43 13,9 C 72 % 1017,6 hPa 0,0 l/m 4,8 km/h (1 Bft) N-NO 22 0 min 0,000 mm 0,0 UV-I 0 W/m 8,9 C 13,9 C 12,9 km/h (3 Bft) 100,00 %
20.09.2020 20:42 13,9 C 73 % 1017,5 hPa 0,0 l/m 3,2 km/h (1 Bft) N-NO 22 0 min 0,000 mm 0,0 UV-I 0 W/m 9,1 C 13,9 C 4,8 km/h (1 Bft) 95,65 %
20.09.2020 20:41 13,9 C 72 % 1017,6 hPa 0,0 l/m 3,2 km/h (1 Bft) N-NO 22 0 min 0,000 mm 0,0 UV-I 0 W/m 8,9 C 13,9 C 4,8 km/h (1 Bft) 100,00 %
20.09.2020 20:40 13,9 C 72 % 1017,5 hPa 0,0 l/m 8,0 km/h (2 Bft) N-NO 22 0 min 0,000 mm 0,0 UV-I 0 W/m 8,9 C 13,9 C 14,5 km/h (3 Bft) 95,65 %
20.09.2020 20:39 13,9 C 72 % 1017,4 hPa 0,0 l/m 3,2 km/h (1 Bft) NO 45 0 min 0,000 mm 0,0 UV-I 0 W/m 8,9 C 13,9 C 4,8 km/h (1 Bft) 95,65 %
20.09.2020 20:38 13,9 C 72 % 1017,5 hPa 0,0 l/m 6,4 km/h (2 Bft) O 90 0 min 0,000 mm 0,0 UV-I 0 W/m 8,9 C 13,9 C 11,3 km/h (2 Bft) 91,30 %
20.09.2020 20:37 13,9 C 72 % 1017,4 hPa 0,0 l/m 8,0 km/h (2 Bft) NO 45 0 min 0,000 mm 0,0 UV-I 0 W/m 8,9 C 13,9 C 14,5 km/h (3 Bft) 91,30 %
20.09.2020 20:36 13,9 C 72 % 1017,5 hPa 0,0 l/m 4,8 km/h (1 Bft) N 360 0 min 0,000 mm 0,0 UV-I 0 W/m 8,9 C 13,9 C 8,0 km/h (2 Bft) 100,00 %
20.09.2020 20:35 14,0 C 72 % 1017,5 hPa 0,0 l/m 3,2 km/h (1 Bft) O-NO 67 0 min 0,000 mm 0,0 UV-I 0 W/m 9,0 C 14,0 C 6,4 km/h (2 Bft) 95,65 %
20.09.2020 20:34 14,0 C 72 % 1017,4 hPa 0,0 l/m 3,2 km/h (1 Bft) NO 45 0 min 0,000 mm 0,0 UV-I 0 W/m 9,0 C 14,0 C 4,8 km/h (1 Bft) 95,65 %
20.09.2020 20:33 14,1 C 72 % 1017,4 hPa 0,0 l/m 4,8 km/h (1 Bft) NO 45 0 min 0,000 mm 0,0 UV-I 0 W/m 9,1 C 14,1 C 8,0 km/h (2 Bft) 91,30 %
20.09.2020 20:32 14,0 C 72 % 1017,5 hPa 0,0 l/m 4,8 km/h (1 Bft) N-NO 22 0 min 0,000 mm 0,0 UV-I 0 W/m 9,0 C 14,0 C 6,4 km/h (2 Bft) 100,00 %
20.09.2020 20:31 14,0 C 72 % 1017,4 hPa 0,0 l/m 4,8 km/h (1 Bft) N-NO 22 0 min 0,000 mm 0,0 UV-I 0 W/m 9,0 C 14,0 C 9,7 km/h (2 Bft) 100,00 %
20.09.2020 20:30 14,0 C 72 % 1017,4 hPa 0,0 l/m 6,4 km/h (2 Bft) NO 45 0 min 0,000 mm 0,0 UV-I 0 W/m 9,0 C 14,0 C 9,7 km/h (2 Bft) 95,65 %
20.09.2020 20:29 14,0 C 72 % 1017,4 hPa 0,0 l/m 4,8 km/h (1 Bft) N-NO 22 0 min 0,000 mm 0,0 UV-I 0 W/m 9,0 C 14,0 C 8,0 km/h (2 Bft) 100,00 %
20.09.2020 20:28 14,0 C 72 % 1017,4 hPa 0,0 l/m 4,8 km/h (1 Bft) O-NO 67 0 min 0,000 mm 0,0 UV-I 0 W/m 9,0 C 14,0 C 8,0 km/h (2 Bft) 100,00 %
20.09.2020 20:27 14,0 C 72 % 1017,5 hPa 0,0 l/m 4,8 km/h (1 Bft) O-NO 67 0 min 0,000 mm 0,0 UV-I 0 W/m 9,0 C 14,0 C 8,0 km/h (2 Bft) 100,00 %
20.09.2020 20:26 14,1 C 72 % 1017,4 hPa 0,0 l/m 4,8 km/h (1 Bft) NO 45 0 min 0,000 mm 0,0 UV-I 0 W/m 9,1 C 14,1 C 6,4 km/h (2 Bft) 100,00 %
20.09.2020 20:25 14,1 C 72 % 1017,4 hPa 0,0 l/m 4,8 km/h (1 Bft) N-NO 22 0 min 0,000 mm 0,0 UV-I 0 W/m 9,1 C 14,1 C 6,4 km/h (2 Bft) 100,00 %
20.09.2020 20:24 14,1 C 72 % 1017,4 hPa 0,0 l/m 4,8 km/h (1 Bft) N-NO 22 0 min 0,000 mm 0,0 UV-I 0 W/m 9,1 C 14,1 C 6,4 km/h (2 Bft) 100,00 %
20.09.2020 20:23 14,1 C 72 % 1017,5 hPa 0,0 l/m 4,8 km/h (1 Bft) NO 45 0 min 0,000 mm 0,0 UV-I 0 W/m 9,1 C 14,1 C 6,4 km/h (2 Bft) 95,65 %
20.09.2020 20:22 14,1 C 71 % 1017,4 hPa 0,0 l/m 4,8 km/h (1 Bft) N-NO 22 0 min 0,000 mm 0,0 UV-I 0 W/m 8,9 C 14,1 C 8,0 km/h (2 Bft) 95,65 %
20.09.2020 20:21 14,1 C 71 % 1017,4 hPa 0,0 l/m 3,2 km/h (1 Bft) NO 45 0 min 0,000 mm 0,0 UV-I 0 W/m 8,9 C 14,1 C 6,4 km/h (2 Bft) 100,00 %
20.09.2020 20:20 14,1 C 72 % 1017,4 hPa 0,0 l/m 4,8 km/h (1 Bft) N-NO 22 0 min 0,000 mm 0,0 UV-I 0 W/m 9,1 C 14,1 C 12,9 km/h (3 Bft) 100,00 %
20.09.2020 20:19 14,1 C 72 % 1017,4 hPa 0,0 l/m 3,2 km/h (1 Bft) O-SO 112 0 min 0,000 mm 0,0 UV-I 0 W/m 9,1 C 14,1 C 6,4 km/h (2 Bft) 100,00 %
20.09.2020 20:18 14,2 C 72 % 1017,4 hPa 0,0 l/m 3,2 km/h (1 Bft) NO 45 0 min 0,000 mm 0,0 UV-I 0 W/m 9,2 C 14,2 C 6,4 km/h (2 Bft) 100,00 %
20.09.2020 20:17 14,2 C 71 % 1017,3 hPa 0,0 l/m 3,2 km/h (1 Bft) NO 45 0 min 0,000 mm 0,0 UV-I 0 W/m 9,0 C 14,2 C 6,4 km/h (2 Bft) 100,00 %
20.09.2020 20:16 14,2 C 71 % 1017,4 hPa 0,0 l/m 6,4 km/h (2 Bft) O-NO 67 0 min 0,000 mm 0,0 UV-I 0 W/m 9,0 C 14,2 C 12,9 km/h (3 Bft) 95,65 %
20.09.2020 20:15 14,2 C 72 % 1017,3 hPa 0,0 l/m 6,4 km/h (2 Bft) N-NO 22 0 min 0,000 mm 0,0 UV-I 0 W/m 9,2 C 14,2 C 17,7 km/h (3 Bft) 100,00 %
20.09.2020 20:14 14,2 C 72 % 1017,3 hPa 0,0 l/m 4,8 km/h (1 Bft) N-NO 22 0 min 0,000 mm 0,0 UV-I 0 W/m 9,2 C 14,2 C 8,0 km/h (2 Bft) 95,65 %
20.09.2020 20:13 14,2 C 72 % 1017,4 hPa 0,0 l/m 1,6 km/h (1 Bft) O-SO 112 0 min 0,000 mm 0,0 UV-I 0 W/m 9,2 C 14,2 C 6,4 km/h (2 Bft) 95,65 %
20.09.2020 20:12 14,2 C 71 % 1017,4 hPa 0,0 l/m 1,6 km/h (1 Bft) NO 45 0 min 0,000 mm 0,0 UV-I 0 W/m 9,0 C 14,2 C 4,8 km/h (1 Bft) 95,65 %
20.09.2020 20:11 14,1 C 72 % 1017,4 hPa 0,0 l/m 4,8 km/h (1 Bft) O-SO 112 0 min 0,000 mm 0,0 UV-I 0 W/m 9,1 C 14,1 C 9,7 km/h (2 Bft) 100,00 %
20.09.2020 20:10 14,1 C 72 % 1017,4 hPa 0,0 l/m 3,2 km/h (1 Bft) O 90 0 min 0,000 mm 0,0 UV-I 0 W/m 9,1 C 14,1 C 6,4 km/h (2 Bft) 100,00 %
20.09.2020 20:09 14,1 C 72 % 1017,4 hPa 0,0 l/m 6,4 km/h (2 Bft) N 360 0 min 0,000 mm 0,0 UV-I 0 W/m 9,1 C 14,1 C 8,0 km/h (2 Bft) 91,30 %
20.09.2020 20:08 14,2 C 72 % 1017,5 hPa 0,0 l/m 4,8 km/h (1 Bft) SO 135 0 min 0,000 mm 0,0 UV-I 0 W/m 9,2 C 14,2 C 9,7 km/h (2 Bft) 100,00 %
20.09.2020 20:07 14,2 C 72 % 1017,4 hPa 0,0 l/m 6,4 km/h (2 Bft) O-NO 67 0 min 0,000 mm 0,0 UV-I 0 W/m 9,2 C 14,2 C 11,3 km/h (2 Bft) 100,00 %
20.09.2020 20:06 14,2 C 71 % 1017,3 hPa 0,0 l/m 3,2 km/h (1 Bft) O 90 0 min 0,000 mm 0,0 UV-I 0 W/m 9,0 C 14,2 C 6,4 km/h (2 Bft) 100,00 %
20.09.2020 20:05 14,2 C 71 % 1017,4 hPa 0,0 l/m 4,8 km/h (1 Bft) O-SO 112 0 min 0,000 mm 0,0 UV-I 0 W/m 9,0 C 14,2 C 6,4 km/h (2 Bft) 95,65 %
20.09.2020 20:04 14,2 C 71 % 1017,4 hPa 0,0 l/m 3,2 km/h (1 Bft) O-SO 112 0 min 0,000 mm 0,0 UV-I 0 W/m 9,0 C 14,2 C 6,4 km/h (2 Bft) 100,00 %
20.09.2020 20:03 14,3 C 71 % 1017,4 hPa 0,0 l/m 3,2 km/h (1 Bft) O 90 0 min 0,000 mm 0,0 UV-I 0 W/m 9,1 C 14,3 C 6,4 km/h (2 Bft) 100,00 %
20.09.2020 20:02 14,3 C 71 % 1017,3 hPa 0,0 l/m 3,2 km/h (1 Bft) O 90 0 min 0,000 mm 0,0 UV-I 0 W/m 9,1 C 14,3 C 4,8 km/h (1 Bft) 95,65 %
20.09.2020 20:01 14,4 C 70 % 1017,4 hPa 0,0 l/m 3,2 km/h (1 Bft) O 90 0 min 0,000 mm 0,0 UV-I 0 W/m 9,0 C 14,4 C 6,4 km/h (2 Bft) 100,00 %
20.09.2020 20:00 14,4 C 71 % 1017,4 hPa 0,0 l/m 1,6 km/h (1 Bft) SO 135 0 min 0,025 mm 0,0 UV-I 0 W/m 9,2 C 14,4 C 4,8 km/h (1 Bft) 100,00 %
20.09.2020 19:59 14,4 C 71 % 1017,4 hPa 0,0 l/m 3,2 km/h (1 Bft) NO 45 0 min 0,000 mm 0,0 UV-I 0 W/m 9,2 C 14,4 C 6,4 km/h (2 Bft) 100,00 %
20.09.2020 19:58 14,4 C 71 % 1017,3 hPa 0,0 l/m 4,8 km/h (1 Bft) NO 45 0 min 0,000 mm 0,0 UV-I 0 W/m 9,2 C 14,4 C 6,4 km/h (2 Bft) 95,65 %
20.09.2020 19:57 14,4 C 71 % 1017,4 hPa 0,0 l/m 3,2 km/h (1 Bft) O-NO 67 0 min 0,000 mm 0,0 UV-I 0 W/m 9,2 C 14,4 C 6,4 km/h (2 Bft) 100,00 %
20.09.2020 19:56 14,4 C 70 % 1017,4 hPa 0,0 l/m 3,2 km/h (1 Bft) O 90 0 min 0,000 mm 0,0 UV-I 0 W/m 9,0 C 14,4 C 6,4 km/h (2 Bft) 100,00 %
20.09.2020 19:55 14,5 C 70 % 1017,3 hPa 0,0 l/m 4,8 km/h (1 Bft) O-SO 112 0 min 0,000 mm 0,0 UV-I 0 W/m 9,1 C 14,5 C 11,3 km/h (2 Bft) 95,65 %
20.09.2020 19:54 14,5 C 70 % 1017,3 hPa 0,0 l/m 3,2 km/h (1 Bft) N 360 0 min 0,000 mm 0,0 UV-I 0 W/m 9,1 C 14,5 C 8,0 km/h (2 Bft) 95,65 %
20.09.2020 19:53 14,4 C 71 % 1017,4 hPa 0,0 l/m 1,6 km/h (1 Bft) N 360 0 min 0,000 mm 0,0 UV-I 0 W/m 9,2 C 14,4 C 3,2 km/h (1 Bft) 100,00 %
20.09.2020 19:52 14,4 C 71 % 1017,3 hPa 0,0 l/m 3,2 km/h (1 Bft) N 360 0 min 0,000 mm 0,0 UV-I 0 W/m 9,2 C 14,4 C 6,4 km/h (2 Bft) 100,00 %
20.09.2020 19:51 14,4 C 71 % 1017,3 hPa 0,0 l/m 3,2 km/h (1 Bft) O 90 0 min 0,000 mm 0,0 UV-I 0 W/m 9,2 C 14,4 C 6,4 km/h (2 Bft) 100,00 %
20.09.2020 19:50 14,4 C 71 % 1017,3 hPa 0,0 l/m 4,8 km/h (1 Bft) NO 45 0 min 0,000 mm 0,0 UV-I 0 W/m 9,2 C 14,4 C 6,4 km/h (2 Bft) 100,00 %
20.09.2020 19:49 14,4 C 71 % 1017,4 hPa 0,0 l/m 1,6 km/h (1 Bft) O 90 0 min 0,000 mm 0,0 UV-I 0 W/m 9,2 C 14,4 C 4,8 km/h (1 Bft) 100,00 %
20.09.2020 19:48 14,4 C 71 % 1017,2 hPa 0,0 l/m 3,2 km/h (1 Bft) O 90 0 min 0,000 mm 0,0 UV-I 0 W/m 9,2 C 14,4 C 6,4 km/h (2 Bft) 95,65 %
20.09.2020 19:47 14,5 C 71 % 1017,3 hPa 0,0 l/m 3,2 km/h (1 Bft) NO 45 0 min 0,000 mm 0,0 UV-I 0 W/m 9,3 C 14,5 C 4,8 km/h (1 Bft) 100,00 %
20.09.2020 19:46 14,5 C 71 % 1017,2 hPa 0,0 l/m 3,2 km/h (1 Bft) NO 45 0 min 0,000 mm 0,0 UV-I 0 W/m 9,3 C 14,5 C 6,4 km/h (2 Bft) 100,00 %
20.09.2020 19:45 14,6 C 71 % 1017,3 hPa 0,0 l/m 1,6 km/h (1 Bft) NO 45 0 min 0,000 mm 0,0 UV-I 0 W/m 9,4 C 14,6 C 3,2 km/h (1 Bft) 100,00 %
20.09.2020 19:44 14,6 C 70 % 1017,3 hPa 0,0 l/m 4,8 km/h (1 Bft) NO 45 0 min 0,000 mm 0,0 UV-I 0 W/m 9,2 C 14,6 C 6,4 km/h (2 Bft) 100,00 %
20.09.2020 19:43 14,6 C 71 % 1017,2 hPa 0,0 l/m 3,2 km/h (1 Bft) N-NO 22 0 min 0,000 mm 0,0 UV-I 0 W/m 9,4 C 14,6 C 4,8 km/h (1 Bft) 95,65 %
20.09.2020 19:42 14,6 C 71 % 1017,2 hPa 0,0 l/m 3,2 km/h (1 Bft) N-NO 22 0 min 0,000 mm 0,0 UV-I 0 W/m 9,4 C 14,6 C 4,8 km/h (1 Bft) 100,00 %
20.09.2020 19:41 14,6 C 70 % 1017,3 hPa 0,0 l/m 4,8 km/h (1 Bft) N-NO 22 0 min 0,000 mm 0,0 UV-I 0 W/m 9,2 C 14,6 C 9,7 km/h (2 Bft) 95,65 %
20.09.2020 19:40 14,5 C 71 % 1017,3 hPa 0,0 l/m 3,2 km/h (1 Bft) NO 45 0 min 0,000 mm 0,0 UV-I 0 W/m 9,3 C 14,5 C 4,8 km/h (1 Bft) 100,00 %
20.09.2020 19:39 14,5 C 71 % 1017,3 hPa 0,0 l/m 3,2 km/h (1 Bft) NO 45 0 min 0,000 mm 0,0 UV-I 0 W/m 9,3 C 14,5 C 4,8 km/h (1 Bft) 100,00 %
20.09.2020 19:38 14,4 C 71 % 1017,2 hPa 0,0 l/m 3,2 km/h (1 Bft) N-NO 22 0 min 0,000 mm 0,0 UV-I 0 W/m 9,2 C 14,4 C 6,4 km/h (2 Bft) 100,00 %
20.09.2020 19:37 14,6 C 71 % 1017,2 hPa 0,0 l/m 4,8 km/h (1 Bft) O-NO 67 0 min 0,000 mm 0,0 UV-I 0 W/m 9,4 C 14,6 C 6,4 km/h (2 Bft) 100,00 %
20.09.2020 19:36 14,6 C 71 % 1017,2 hPa 0,0 l/m 3,2 km/h (1 Bft) NO 45 0 min 0,000 mm 0,0 UV-I 0 W/m 9,4 C 14,6 C 4,8 km/h (1 Bft) 100,00 %
20.09.2020 19:35 14,7 C 70 % 1017,2 hPa 0,0 l/m 3,2 km/h (1 Bft) N-NO 22 0 min 0,000 mm 0,0 UV-I 0 W/m 9,3 C 14,7 C 6,4 km/h (2 Bft) 100,00 %
20.09.2020 19:34 14,7 C 70 % 1017,2 hPa 0,0 l/m 1,6 km/h (1 Bft) O 90 0 min 0,000 mm 0,0 UV-I 0 W/m 9,3 C 14,7 C 3,2 km/h (1 Bft) 95,65 %
20.09.2020 19:33 14,7 C 70 % 1017,2 hPa 0,0 l/m 3,2 km/h (1 Bft) O 90 0 min 0,000 mm 0,0 UV-I 0 W/m 9,3 C 14,7 C 4,8 km/h (1 Bft) 100,00 %
20.09.2020 19:32 14,8 C 70 % 1017,2 hPa 0,0 l/m 1,6 km/h (1 Bft) NO 45 0 min 0,000 mm 0,0 UV-I 0 W/m 9,4 C 14,8 C 3,2 km/h (1 Bft) 100,00 %
20.09.2020 19:31 14,8 C 70 % 1017,2 hPa 0,0 l/m 3,2 km/h (1 Bft) O 90 0 min 0,000 mm 0,0 UV-I 0 W/m 9,4 C 14,8 C 4,8 km/h (1 Bft) 100,00 %
20.09.2020 19:30 14,8 C 70 % 1017,1 hPa 0,0 l/m 3,2 km/h (1 Bft) O 90 0 min 0,000 mm 0,0 UV-I 0 W/m 9,4 C 14,8 C 3,2 km/h (1 Bft) 100,00 %
20.09.2020 19:29 14,8 C 70 % 1017,1 hPa 0,0 l/m 1,6 km/h (1 Bft) SO 135 0 min 0,000 mm 0,0 UV-I 0 W/m 9,4 C 14,8 C 3,2 km/h (1 Bft) 100,00 %
20.09.2020 19:28 14,8 C 70 % 1017,2 hPa 0,0 l/m 3,2 km/h (1 Bft) O-SO 112 0 min 0,000 mm 0,0 UV-I 0 W/m 9,4 C 14,8 C 6,4 km/h (2 Bft) 100,00 %
20.09.2020 19:27 14,8 C 70 % 1017,1 hPa 0,0 l/m 4,8 km/h (1 Bft) O-SO 112 0 min 0,000 mm 0,0 UV-I 0 W/m 9,4 C 14,8 C 6,4 km/h (2 Bft) 95,65 %
20.09.2020 19:26 14,8 C 70 % 1017,1 hPa 0,0 l/m 3,2 km/h (1 Bft) O-SO 112 0 min 0,000 mm 0,0 UV-I 0 W/m 9,4 C 14,8 C 4,8 km/h (1 Bft) 100,00 %
20.09.2020 19:25 14,8 C 70 % 1017,1 hPa 0,0 l/m 4,8 km/h (1 Bft) O 90 0 min 0,000 mm 0,0 UV-I 0 W/m 9,4 C 14,8 C 8,0 km/h (2 Bft) 100,00 %
20.09.2020 19:24 14,8 C 70 % 1017,1 hPa 0,0 l/m 3,2 km/h (1 Bft) NO 45 0 min 0,000 mm 0,0 UV-I 0 W/m 9,4 C 14,8 C 11,3 km/h (2 Bft) 100,00 %
20.09.2020 19:23 14,8 C 70 % 1017,1 hPa 0,0 l/m 1,6 km/h (1 Bft) NO 45 0 min 0,000 mm 0,0 UV-I 0 W/m 9,4 C 14,8 C 4,8 km/h (1 Bft) 100,00 %
20.09.2020 19:22 14,8 C 70 % 1017,2 hPa 0,0 l/m 3,2 km/h (1 Bft) NO 45 0 min 0,000 mm 0,0 UV-I 0 W/m 9,4 C 14,8 C 4,8 km/h (1 Bft) 100,00 %
20.09.2020 19:21 14,9 C 70 % 1017,2 hPa 0,0 l/m 3,2 km/h (1 Bft) N-NO 22 0 min 0,000 mm 0,0 UV-I 0 W/m 9,5 C 14,9 C 4,8 km/h (1 Bft) 100,00 %
20.09.2020 19:20 14,9 C 70 % 1017,1 hPa 0,0 l/m 3,2 km/h (1 Bft) N-NO 22 0 min 0,000 mm 0,0 UV-I 0 W/m 9,5 C 14,9 C 8,0 km/h (2 Bft) 91,30 %
20.09.2020 19:19 14,9 C 69 % 1017,2 hPa 0,0 l/m 3,2 km/h (1 Bft) O-NO 67 0 min 0,000 mm 0,0 UV-I 0 W/m 9,3 C 14,9 C 8,0 km/h (2 Bft) 100,00 %
20.09.2020 19:18 15,1 C 69 % 1017,2 hPa 0,0 l/m 3,2 km/h (1 Bft) O-NO 67 0 min 0,000 mm 0,0 UV-I 0 W/m 9,5 C 15,1 C 4,8 km/h (1 Bft) 100,00 %
20.09.2020 19:17 15,1 C 69 % 1017,1 hPa 0,0 l/m 3,2 km/h (1 Bft) NO 45 0 min 0,000 mm 0,0 UV-I 0 W/m 9,5 C 15,1 C 6,4 km/h (2 Bft) 95,65 %
20.09.2020 19:16 15,1 C 69 % 1017,2 hPa 0,0 l/m 3,2 km/h (1 Bft) NO 45 0 min 0,000 mm 0,0 UV-I 0 W/m 9,5 C 15,1 C 4,8 km/h (1 Bft) 100,00 %
20.09.2020 19:15 15,2 C 69 % 1017,2 hPa 0,0 l/m 1,6 km/h (1 Bft) NO 45 0 min 0,000 mm 0,0 UV-I 0 W/m 9,6 C 15,2 C 4,8 km/h (1 Bft) 100,00 %
20.09.2020 19:14 15,2 C 69 % 1017,2 hPa 0,0 l/m 3,2 km/h (1 Bft) NO 45 0 min 0,000 mm 0,0 UV-I 0 W/m 9,6 C 15,2 C 4,8 km/h (1 Bft) 100,00 %
20.09.2020 19:13 15,2 C 68 % 1017,1 hPa 0,0 l/m 3,2 km/h (1 Bft) NO 45 0 min 0,000 mm 0,0 UV-I 0 W/m 9,3 C 15,2 C 3,2 km/h (1 Bft) 95,65 %
20.09.2020 19:12 15,3 C 68 % 1017,2 hPa 0,0 l/m 1,6 km/h (1 Bft) NO 45 0 min 0,000 mm 0,0 UV-I 0 W/m 9,4 C 15,3 C 3,2 km/h (1 Bft) 100,00 %
20.09.2020 19:11 15,3 C 68 % 1017,2 hPa 0,0 l/m 1,6 km/h (1 Bft) N-NO 22 0 min 0,000 mm 0,0 UV-I 0 W/m 9,4 C 15,3 C 4,8 km/h (1 Bft) 95,65 %
20.09.2020 19:10 15,3 C 68 % 1017,3 hPa 0,0 l/m 3,2 km/h (1 Bft) N-NO 22 0 min 0,000 mm 0,0 UV-I 0 W/m 9,4 C 15,3 C 6,4 km/h (2 Bft) 100,00 %
20.09.2020 19:09 15,3 C 68 % 1017,2 hPa 0,0 l/m 3,2 km/h (1 Bft) N-NO 22 0 min 0,000 mm 0,0 UV-I 0 W/m 9,4 C 15,3 C 4,8 km/h (1 Bft) 100,00 %
20.09.2020 19:08 15,4 C 68 % 1017,2 hPa 0,0 l/m 6,4 km/h (2 Bft) N-NO 22 0 min 0,000 mm 0,0 UV-I 0 W/m 9,5 C 15,4 C 8,0 km/h (2 Bft) 100,00 %
20.09.2020 19:07 15,4 C 68 % 1017,1 hPa 0,0 l/m 4,8 km/h (1 Bft) N-NO 22 0 min 0,000 mm 0,0 UV-I 0 W/m 9,5 C 15,4 C 8,0 km/h (2 Bft) 100,00 %
20.09.2020 19:06 15,4 C 68 % 1017,1 hPa 0,0 l/m 3,2 km/h (1 Bft) N 360 0 min 0,000 mm 0,0 UV-I 0 W/m 9,5 C 15,4 C 4,8 km/h (1 Bft) 95,65 %
20.09.2020 19:05 15,4 C 67 % 1017,1 hPa 0,0 l/m 3,2 km/h (1 Bft) NO 45 0 min 0,000 mm 0,0 UV-I 0 W/m 9,3 C 15,4 C 8,0 km/h (2 Bft) 95,65 %
20.09.2020 19:04 15,4 C 68 % 1017,0 hPa 0,0 l/m 1,6 km/h (1 Bft) NO 45 0 min 0,000 mm 0,0 UV-I 0 W/m 9,5 C 15,4 C 3,2 km/h (1 Bft) 100,00 %
20.09.2020 19:03 15,5 C 68 % 1017,1 hPa 0,0 l/m 3,2 km/h (1 Bft) NO 45 0 min 0,000 mm 0,0 UV-I 0 W/m 9,6 C 15,5 C 4,8 km/h (1 Bft) 95,65 %
20.09.2020 19:02 15,5 C 68 % 1017,1 hPa 0,0 l/m 1,6 km/h (1 Bft) NO 45 0 min 0,000 mm 0,0 UV-I 0 W/m 9,6 C 15,5 C 3,2 km/h (1 Bft) 95,65 %
20.09.2020 19:01 15,6 C 67 % 1017,1 hPa 0,0 l/m 3,2 km/h (1 Bft) NO 45 0 min 0,000 mm 0,0 UV-I 0 W/m 9,5 C 15,6 C 4,8 km/h (1 Bft) 100,00 %
20.09.2020 19:00 15,6 C 67 % 1017,0 hPa 0,0 l/m 3,2 km/h (1 Bft) NO 45 0 min 0,051 mm 0,0 UV-I 0 W/m 9,5 C 15,6 C 4,8 km/h (1 Bft) 91,30 %
20.09.2020 18:59 15,7 C 67 % 1017,1 hPa 0,0 l/m 4,8 km/h (1 Bft) N-NO 22 0 min 0,000 mm 0,0 UV-I 5 W/m 9,6 C 15,7 C 6,4 km/h (2 Bft) 95,65 %
20.09.2020 18:58 15,7 C 67 % 1017,1 hPa 0,0 l/m 4,8 km/h (1 Bft) N 360 0 min 0,000 mm 0,0 UV-I 5 W/m 9,6 C 15,7 C 8,0 km/h (2 Bft) 95,65 %
20.09.2020 18:57 15,8 C 67 % 1017,1 hPa 0,0 l/m 3,2 km/h (1 Bft) N-NO 22 0 min 0,000 mm 0,0 UV-I 5 W/m 9,7 C 15,8 C 6,4 km/h (2 Bft) 100,00 %
20.09.2020 18:56 15,9 C 66 % 1017,1 hPa 0,0 l/m 1,6 km/h (1 Bft) N-NO 22 0 min 0,000 mm 0,0 UV-I 5 W/m 9,6 C 15,9 C 3,2 km/h (1 Bft) 95,65 %
20.09.2020 18:55 15,9 C 66 % 1017,2 hPa 0,0 l/m 4,8 km/h (1 Bft) N-NO 22 0 min 0,000 mm 0,0 UV-I 9 W/m 9,6 C 15,9 C 6,4 km/h (2 Bft) 100,00 %
20.09.2020 18:54 15,9 C 66 % 1017,1 hPa 0,0 l/m 3,2 km/h (1 Bft) O-NO 67 0 min 0,000 mm 0,0 UV-I 9 W/m 9,6 C 15,9 C 8,0 km/h (2 Bft) 95,65 %
20.09.2020 18:53 15,9 C 66 % 1017,1 hPa 0,0 l/m 6,4 km/h (2 Bft) N 360 0 min 0,000 mm 0,0 UV-I 9 W/m 9,6 C 15,9 C 12,9 km/h (3 Bft) 95,65 %
20.09.2020 18:52 16,0 C 66 % 1017,2 hPa 0,0 l/m 3,2 km/h (1 Bft) N 360 0 min 0,000 mm 0,0 UV-I 9 W/m 9,7 C 16,0 C 6,4 km/h (2 Bft) 95,65 %
20.09.2020 18:51 16,1 C 66 % 1017,1 hPa 0,0 l/m 3,2 km/h (1 Bft) N 360 0 min 0,000 mm 0,0 UV-I 9 W/m 9,7 C 16,1 C 4,8 km/h (1 Bft) 95,65 %
20.09.2020 18:50 16,1 C 65 % 1017,1 hPa 0,0 l/m 3,2 km/h (1 Bft) N 360 0 min 0,000 mm 0,0 UV-I 11 W/m 9,5 C 16,1 C 4,8 km/h (1 Bft) 100,00 %
20.09.2020 18:49 16,2 C 65 % 1017,1 hPa 0,0 l/m 4,8 km/h (1 Bft) N-NO 22 0 min 0,000 mm 0,0 UV-I 11 W/m 9,6 C 16,2 C 8,0 km/h (2 Bft) 91,30 %
20.09.2020 18:48 16,2 C 65 % 1017,1 hPa 0,0 l/m 3,2 km/h (1 Bft) N 360 0 min 0,000 mm 0,0 UV-I 11 W/m 9,6 C 16,2 C 4,8 km/h (1 Bft) 95,65 %
20.09.2020 18:47 16,2 C 65 % 1017,1 hPa 0,0 l/m 3,2 km/h (1 Bft) N-NO 22 0 min 0,000 mm 0,0 UV-I 12 W/m 9,6 C 16,2 C 9,7 km/h (2 Bft) 95,65 %
20.09.2020 18:46 16,3 C 65 % 1017,1 hPa 0,0 l/m 3,2 km/h (1 Bft) N-NO 22 0 min 0,000 mm 0,0 UV-I 12 W/m 9,7 C 16,3 C 8,0 km/h (2 Bft) 95,65 %
20.09.2020 18:45 16,3 C 65 % 1017,1 hPa 0,0 l/m 4,8 km/h (1 Bft) N 360 0 min 0,000 mm 0,0 UV-I 14 W/m 9,7 C 16,3 C 9,7 km/h (2 Bft) 95,65 %
20.09.2020 18:44 16,3 C 64 % 1017,1 hPa 0,0 l/m 1,6 km/h (1 Bft) O-SO 112 0 min 0,000 mm 0,0 UV-I 14 W/m 9,5 C 16,3 C 3,2 km/h (1 Bft) 91,30 %
20.09.2020 18:43 16,3 C 65 % 1017,1 hPa 0,0 l/m 3,2 km/h (1 Bft) NW 315 0 min 0,000 mm 0,0 UV-I 14 W/m 9,7 C 16,3 C 6,4 km/h (2 Bft) 100,00 %
20.09.2020 18:42 16,3 C 65 % 1017,1 hPa 0,0 l/m 3,2 km/h (1 Bft) N 360 0 min 0,000 mm 0,0 UV-I 18 W/m 9,7 C 16,3 C 8,0 km/h (2 Bft) 95,65 %
20.09.2020 18:41 16,4 C 65 % 1017,1 hPa 0,0 l/m 4,8 km/h (1 Bft) N-NO 22 0 min 0,000 mm 0,0 UV-I 18 W/m 9,8 C 16,4 C 9,7 km/h (2 Bft) 100,00 %
20.09.2020 18:40 16,4 C 65 % 1017,0 hPa 0,0 l/m 3,2 km/h (1 Bft) N-NO 22 0 min 0,000 mm 0,0 UV-I 18 W/m 9,8 C 16,4 C 4,8 km/h (1 Bft) 91,30 %
20.09.2020 18:39 16,4 C 65 % 1017,1 hPa 0,0 l/m 4,8 km/h (1 Bft) N-NO 22 0 min 0,000 mm 0,0 UV-I 18 W/m 9,8 C 16,4 C 8,0 km/h (2 Bft) 100,00 %
20.09.2020 18:38 16,4 C 65 % 1017,2 hPa 0,0 l/m 3,2 km/h (1 Bft) N-NO 22 0 min 0,000 mm 0,0 UV-I 19 W/m 9,8 C 16,4 C 8,0 km/h (2 Bft) 91,30 %
20.09.2020 18:37 16,5 C 65 % 1017,1 hPa 0,0 l/m 1,6 km/h (1 Bft) O-NO 67 0 min 0,000 mm 0,0 UV-I 19 W/m 9,9 C 16,5 C 4,8 km/h (1 Bft) 91,30 %
20.09.2020 18:36 16,5 C 65 % 1017,1 hPa 0,0 l/m 6,4 km/h (2 Bft) N-NO 22 0 min 0,000 mm 0,0 UV-I 25 W/m 9,9 C 16,5 C 14,5 km/h (3 Bft) 100,00 %
20.09.2020 18:35 16,5 C 65 % 1017,2 hPa 0,0 l/m 3,2 km/h (1 Bft) O-NO 67 0 min 0,000 mm 0,0 UV-I 25 W/m 9,9 C 16,5 C 6,4 km/h (2 Bft) 95,65 %
20.09.2020 18:34 16,5 C 65 % 1017,2 hPa 0,0 l/m 3,2 km/h (1 Bft) N-NO 22 0 min 0,000 mm 0,0 UV-I 25 W/m 9,9 C 16,5 C 6,4 km/h (2 Bft) 100,00 %
20.09.2020 18:33 16,5 C 65 % 1017,2 hPa 0,0 l/m 3,2 km/h (1 Bft) NO 45 0 min 0,000 mm 0,0 UV-I 25 W/m 9,9 C 16,5 C 6,4 km/h (2 Bft) 91,30 %
20.09.2020 18:32 16,6 C 65 % 1017,2 hPa 0,0 l/m 4,8 km/h (1 Bft) O-NO 67 0 min 0,000 mm 0,0 UV-I 25 W/m 10,0 C 16,6 C 6,4 km/h (2 Bft) 100,00 %
20.09.2020 18:31 16,6 C 66 % 1017,2 hPa 0,0 l/m 4,8 km/h (1 Bft) O-NO 67 0 min 0,000 mm 0,0 UV-I 26 W/m 10,2 C 16,6 C 8,0 km/h (2 Bft) 91,30 %
20.09.2020 18:30 16,7 C 65 % 1017,2 hPa 0,0 l/m 4,8 km/h (1 Bft) O 90 0 min 0,000 mm 0,0 UV-I 28 W/m 10,1 C 16,7 C 6,4 km/h (2 Bft) 100,00 %
20.09.2020 18:29 16,7 C 65 % 1017,1 hPa 0,0 l/m 4,8 km/h (1 Bft) O-NO 67 0 min 0,000 mm 0,0 UV-I 28 W/m 10,1 C 16,7 C 8,0 km/h (2 Bft) 91,30 %
20.09.2020 18:28 16,7 C 65 % 1017,2 hPa 0,0 l/m 3,2 km/h (1 Bft) NO 45 0 min 0,000 mm 0,0 UV-I 28 W/m 10,1 C 16,7 C 8,0 km/h (2 Bft) 91,30 %
20.09.2020 18:27 16,8 C 65 % 1017,2 hPa 0,0 l/m 4,8 km/h (1 Bft) O 90 0 min 0,000 mm 0,0 UV-I 28 W/m 10,2 C 16,8 C 6,4 km/h (2 Bft) 91,30 %
20.09.2020 18:26 16,8 C 65 % 1017,2 hPa 0,0 l/m 1,6 km/h (1 Bft) O-NO 67 0 min 0,000 mm 0,0 UV-I 30 W/m 10,2 C 16,8 C 3,2 km/h (1 Bft) 95,65 %
20.09.2020 18:25 16,9 C 65 % 1017,2 hPa 0,0 l/m 3,2 km/h (1 Bft) O-NO 67 0 min 0,000 mm 0,0 UV-I 32 W/m 10,3 C 16,9 C 4,8 km/h (1 Bft) 100,00 %
20.09.2020 18:24 16,9 C 65 % 1017,1 hPa 0,0 l/m 3,2 km/h (1 Bft) O-NO 67 0 min 0,000 mm 0,0 UV-I 37 W/m 10,3 C 16,9 C 4,8 km/h (1 Bft) 91,30 %
20.09.2020 18:23 16,9 C 65 % 1017,2 hPa 0,0 l/m 1,6 km/h (1 Bft) O-NO 67 0 min 0,000 mm 0,0 UV-I 39 W/m 10,3 C 16,9 C 3,2 km/h (1 Bft) 95,65 %
20.09.2020 18:22 17,0 C 65 % 1017,2 hPa 0,0 l/m 1,6 km/h (1 Bft) O 90 0 min 0,000 mm 0,0 UV-I 40 W/m 10,4 C 17,0 C 4,8 km/h (1 Bft) 95,65 %
20.09.2020 18:21 17,0 C 65 % 1017,3 hPa 0,0 l/m 4,8 km/h (1 Bft) N-NW 337 0 min 0,000 mm 0,0 UV-I 44 W/m 10,4 C 17,0 C 8,0 km/h (2 Bft) 100,00 %
20.09.2020 18:20 17,0 C 65 % 1017,2 hPa 0,0 l/m 3,2 km/h (1 Bft) NO 45 0 min 0,000 mm 0,0 UV-I 44 W/m 10,4 C 17,0 C 4,8 km/h (1 Bft) 100,00 %
20.09.2020 18:19 17,1 C 64 % 1017,3 hPa 0,0 l/m 3,2 km/h (1 Bft) N 360 0 min 0,000 mm 0,0 UV-I 46 W/m 10,2 C 17,1 C 4,8 km/h (1 Bft) 100,00 %
20.09.2020 18:18 17,1 C 65 % 1017,3 hPa 0,0 l/m 3,2 km/h (1 Bft) N-NO 22 0 min 0,000 mm 0,0 UV-I 47 W/m 10,5 C 17,1 C 3,2 km/h (1 Bft) 100,00 %
20.09.2020 18:17 17,1 C 65 % 1017,3 hPa 0,0 l/m 4,8 km/h (1 Bft) N-NO 22 0 min 0,000 mm 0,0 UV-I 53 W/m 10,5 C 17,1 C 9,7 km/h (2 Bft) 95,65 %
20.09.2020 18:16 17,1 C 65 % 1017,3 hPa 0,0 l/m 3,2 km/h (1 Bft) SO 135 0 min 0,000 mm 0,0 UV-I 53 W/m 10,5 C 17,1 C 6,4 km/h (2 Bft) 100,00 %
20.09.2020 18:15 17,1 C 65 % 1017,4 hPa 0,0 l/m 3,2 km/h (1 Bft) O 90 0 min 0,000 mm 0,0 UV-I 53 W/m 10,5 C 17,1 C 4,8 km/h (1 Bft) 100,00 %
20.09.2020 18:14 17,2 C 64 % 1017,3 hPa 0,0 l/m 1,6 km/h (1 Bft) O-NO 67 0 min 0,000 mm 0,0 UV-I 53 W/m 10,3 C 17,2 C 4,8 km/h (1 Bft) 95,65 %
20.09.2020 18:13 17,3 C 65 % 1017,3 hPa 0,0 l/m 3,2 km/h (1 Bft) O-NO 67 0 min 0,000 mm 0,0 UV-I 53 W/m 10,7 C 17,3 C 9,7 km/h (2 Bft) 95,65 %
20.09.2020 18:12 17,3 C 64 % 1017,3 hPa 0,0 l/m 3,2 km/h (1 Bft) N 360 0 min 0,000 mm 0,0 UV-I 54 W/m 10,4 C 17,3 C 9,7 km/h (2 Bft) 100,00 %
20.09.2020 18:11 17,3 C 64 % 1017,3 hPa 0,0 l/m 6,4 km/h (2 Bft) N-NO 22 0 min 0,000 mm 0,0 UV-I 63 W/m 10,4 C 17,3 C 8,0 km/h (2 Bft) 100,00 %
20.09.2020 18:10 17,3 C 64 % 1017,3 hPa 0,0 l/m 4,8 km/h (1 Bft) O-NO 67 0 min 0,000 mm 0,0 UV-I 63 W/m 10,4 C 17,3 C 12,9 km/h (3 Bft) 91,30 %
20.09.2020 18:09 17,3 C 64 % 1017,3 hPa 0,0 l/m 3,2 km/h (1 Bft) O-NO 67 0 min 0,000 mm 0,0 UV-I 65 W/m 10,4 C 17,3 C 6,4 km/h (2 Bft) 100,00 %
20.09.2020 18:08 17,3 C 65 % 1017,4 hPa 0,0 l/m 1,6 km/h (1 Bft) N 360 0 min 0,000 mm 0,0 UV-I 67 W/m 10,7 C 17,3 C 4,8 km/h (1 Bft) 95,65 %
20.09.2020 18:07 17,4 C 65 % 1017,3 hPa 0,0 l/m 3,2 km/h (1 Bft) N 360 0 min 0,000 mm 0,0 UV-I 70 W/m 10,8 C 17,4 C 8,0 km/h (2 Bft) 95,65 %
20.09.2020 18:06 17,4 C 65 % 1017,3 hPa 0,0 l/m 3,2 km/h (1 Bft) O-SO 112 0 min 0,000 mm 0,0 UV-I 70 W/m 10,8 C 17,4 C 6,4 km/h (2 Bft) 100,00 %
20.09.2020 18:05 17,4 C 65 % 1017,4 hPa 0,0 l/m 4,8 km/h (1 Bft) NO 45 0 min 0,000 mm 0,0 UV-I 77 W/m 10,8 C 17,4 C 8,0 km/h (2 Bft) 100,00 %
20.09.2020 18:04 17,4 C 65 % 1017,4 hPa 0,0 l/m 6,4 km/h (2 Bft) NO 45 0 min 0,000 mm 0,0 UV-I 77 W/m 10,8 C 17,4 C 14,5 km/h (3 Bft) 100,00 %
20.09.2020 18:03 17,4 C 66 % 1017,2 hPa 0,0 l/m 1,6 km/h (1 Bft) SO 135 0 min 0,000 mm 0,0 UV-I 84 W/m 11,0 C 17,4 C 3,2 km/h (1 Bft) 95,65 %
20.09.2020 18:02 17,5 C 64 % 1017,2 hPa 0,0 l/m 3,2 km/h (1 Bft) NO 45 0 min 0,000 mm 0,0 UV-I 84 W/m 10,6 C 17,5 C 4,8 km/h (1 Bft) 100,00 %
20.09.2020 18:01 17,5 C 65 % 1017,3 hPa 0,0 l/m 4,8 km/h (1 Bft) O-SO 112 0 min 0,000 mm 0,0 UV-I 84 W/m 10,8 C 17,5 C 6,4 km/h (2 Bft) 100,00 %
20.09.2020 18:00 17,5 C 65 % 1017,3 hPa 0,0 l/m 4,8 km/h (1 Bft) O 90 0 min 0,127 mm 0,0 UV-I 88 W/m 10,8 C 17,5 C 6,4 km/h (2 Bft) 100,00 %
20.09.2020 17:59 17,6 C 64 % 1017,2 hPa 0,0 l/m 4,8 km/h (1 Bft) NO 45 0 min 0,000 mm 0,0 UV-I 93 W/m 10,7 C 17,6 C 8,0 km/h (2 Bft) 100,00 %
20.09.2020 17:58 17,6 C 65 % 1017,3 hPa 0,0 l/m 1,6 km/h (1 Bft) O 90 0 min 0,000 mm 0,0 UV-I 93 W/m 10,9 C 17,6 C 3,2 km/h (1 Bft) 100,00 %
20.09.2020 17:57 17,7 C 64 % 1017,3 hPa 0,0 l/m 3,2 km/h (1 Bft) O 90 0 min 0,000 mm 0,0 UV-I 98 W/m 10,8 C 17,7 C 4,8 km/h (1 Bft) 100,00 %
20.09.2020 17:56 17,7 C 64 % 1017,3 hPa 0,0 l/m 3,2 km/h (1 Bft) N-NO 22 0 min 0,000 mm 0,0 UV-I 98 W/m 10,8 C 17,7 C 6,4 km/h (2 Bft) 91,30 %
20.09.2020 17:55 17,8 C 64 % 1017,3 hPa 0,0 l/m 6,4 km/h (2 Bft) N-NO 22 0 min 0,000 mm 0,0 UV-I 105 W/m 10,9 C 17,8 C 11,3 km/h (2 Bft) 100,00 %
20.09.2020 17:54 17,8 C 64 % 1017,3 hPa 0,0 l/m 3,2 km/h (1 Bft) O-SO 112 0 min 0,000 mm 0,0 UV-I 105 W/m 10,9 C 17,8 C 6,4 km/h (2 Bft) 100,00 %
20.09.2020 17:53 17,8 C 64 % 1017,3 hPa 0,0 l/m 4,8 km/h (1 Bft) NO 45 0 min 0,000 mm 0,0 UV-I 107 W/m 10,9 C 17,8 C 6,4 km/h (2 Bft) 100,00 %
20.09.2020 17:52 17,8 C 65 % 1017,2 hPa 0,0 l/m 3,2 km/h (1 Bft) O-NO 67 0 min 0,000 mm 0,0 UV-I 113 W/m 11,1 C 17,8 C 6,4 km/h (2 Bft) 100,00 %
20.09.2020 17:51 17,8 C 63 % 1017,2 hPa 0,0 l/m 1,6 km/h (1 Bft) NO 45 0 min 0,000 mm 0,0 UV-I 113 W/m 10,7 C 17,8 C 4,8 km/h (1 Bft) 100,00 %
20.09.2020 17:50 17,9 C 64 % 1017,2 hPa 0,0 l/m 1,6 km/h (1 Bft) NO 45 0 min 0,000 mm 0,0 UV-I 116 W/m 11,0 C 17,9 C 3,2 km/h (1 Bft) 95,65 %
20.09.2020 17:49 17,9 C 64 % 1017,2 hPa 0,0 l/m 4,8 km/h (1 Bft) O-NO 67 0 min 0,000 mm 0,0 UV-I 121 W/m 11,0 C 17,9 C 9,7 km/h (2 Bft) 100,00 %
20.09.2020 17:48 17,9 C 63 % 1017,2 hPa 0,0 l/m 3,2 km/h (1 Bft) N-NO 22 0 min 0,000 mm 0,0 UV-I 128 W/m 10,8 C 17,9 C 6,4 km/h (2 Bft) 95,65 %
20.09.2020 17:47 18,1 C 63 % 1017,2 hPa 0,0 l/m 4,8 km/h (1 Bft) O-SO 112 0 min 0,000 mm 0,0 UV-I 128 W/m 10,9 C 18,1 C 9,7 km/h (2 Bft) 100,00 %
20.09.2020 17:46 18,1 C 63 % 1017,2 hPa 0,0 l/m 4,8 km/h (1 Bft) N-NO 22 0 min 0,000 mm 0,0 UV-I 128 W/m 10,9 C 18,1 C 8,0 km/h (2 Bft) 100,00 %
20.09.2020 17:45 18,1 C 64 % 1017,1 hPa 0,0 l/m 3,2 km/h (1 Bft) N-NO 22 0 min 0,000 mm 0,0 UV-I 132 W/m 11,2 C 18,1 C 8,0 km/h (2 Bft) 95,65 %
20.09.2020 17:44 18,1 C 64 % 1017,1 hPa 0,0 l/m 3,2 km/h (1 Bft) N-NO 22 0 min 0,000 mm 0,0 UV-I 134 W/m 11,2 C 18,1 C 8,0 km/h (2 Bft) 100,00 %
20.09.2020 17:43 18,1 C 64 % 1017,2 hPa 0,0 l/m 1,6 km/h (1 Bft) N-NO 22 0 min 0,000 mm 0,0 UV-I 137 W/m 11,2 C 18,1 C 1,6 km/h (1 Bft) 100,00 %
20.09.2020 17:42 18,1 C 63 % 1017,2 hPa 0,0 l/m 1,6 km/h (1 Bft) N-NO 22 0 min 0,000 mm 0,0 UV-I 142 W/m 10,9 C 18,1 C 3,2 km/h (1 Bft) 95,65 %
20.09.2020 17:41 18,2 C 62 % 1017,1 hPa 0,0 l/m 3,2 km/h (1 Bft) N-NO 22 0 min 0,000 mm 0,0 UV-I 146 W/m 10,8 C 18,2 C 4,8 km/h (1 Bft) 91,30 %
20.09.2020 17:40 18,2 C 63 % 1017,2 hPa 0,0 l/m 4,8 km/h (1 Bft) N 360 0 min 0,000 mm 0,0 UV-I 148 W/m 11,0 C 18,2 C 8,0 km/h (2 Bft) 100,00 %
20.09.2020 17:39 18,2 C 64 % 1017,1 hPa 0,0 l/m 4,8 km/h (1 Bft) N 360 0 min 0,000 mm 0,0 UV-I 149 W/m 11,3 C 18,2 C 6,4 km/h (2 Bft) 100,00 %
20.09.2020 17:38 18,2 C 63 % 1017,2 hPa 0,0 l/m 1,6 km/h (1 Bft) NO 45 1 min 0,000 mm 0,0 UV-I 155 W/m 11,0 C 18,2 C 3,2 km/h (1 Bft) 100,00 %
20.09.2020 17:37 18,3 C 64 % 1017,2 hPa 0,0 l/m 3,2 km/h (1 Bft) O-NO 67 1 min 0,000 mm 0,0 UV-I 158 W/m 11,4 C 18,3 C 4,8 km/h (1 Bft) 95,65 %
20.09.2020 17:36 18,3 C 63 % 1017,2 hPa 0,0 l/m 1,6 km/h (1 Bft) O-NO 67 1 min 0,000 mm 0,0 UV-I 160 W/m 11,1 C 18,3 C 3,2 km/h (1 Bft) 100,00 %
20.09.2020 17:35 18,3 C 63 % 1017,2 hPa 0,0 l/m 3,2 km/h (1 Bft) O-NO 67 1 min 0,000 mm 0,5 UV-I 163 W/m 11,1 C 18,3 C 6,4 km/h (2 Bft) 100,00 %
20.09.2020 17:34 18,4 C 63 % 1017,2 hPa 0,0 l/m 3,2 km/h (1 Bft) S 180 1 min 0,000 mm 0,5 UV-I 165 W/m 11,2 C 18,4 C 4,8 km/h (1 Bft) 95,65 %
20.09.2020 17:33 18,4 C 63 % 1017,2 hPa 0,0 l/m 3,2 km/h (1 Bft) O-NO 67 1 min 0,000 mm 0,5 UV-I 169 W/m 11,2 C 18,4 C 6,4 km/h (2 Bft) 100,00 %
20.09.2020 17:32 18,4 C 63 % 1017,2 hPa 0,0 l/m 4,8 km/h (1 Bft) NO 45 1 min 0,000 mm 0,5 UV-I 174 W/m 11,2 C 18,4 C 9,7 km/h (2 Bft) 100,00 %
20.09.2020 17:31 18,4 C 64 % 1017,2 hPa 0,0 l/m 3,2 km/h (1 Bft) N 360 1 min 0,000 mm 0,5 UV-I 176 W/m 11,5 C 18,4 C 6,4 km/h (2 Bft) 100,00 %
20.09.2020 17:30 18,5 C 63 % 1017,2 hPa 0,0 l/m 3,2 km/h (1 Bft) N 360 1 min 0,000 mm 0,5 UV-I 179 W/m 11,3 C 18,5 C 6,4 km/h (2 Bft) 100,00 %
20.09.2020 17:29 18,6 C 63 % 1017,1 hPa 0,0 l/m 1,6 km/h (1 Bft) N 360 1 min 0,000 mm 0,5 UV-I 185 W/m 11,4 C 18,6 C 3,2 km/h (1 Bft) 100,00 %
20.09.2020 17:28 18,6 C 62 % 1017,1 hPa 0,0 l/m 3,2 km/h (1 Bft) N 360 1 min 0,000 mm 0,5 UV-I 185 W/m 11,2 C 18,6 C 6,4 km/h (2 Bft) 100,00 %
20.09.2020 17:27 18,6 C 63 % 1017,2 hPa 0,0 l/m 3,2 km/h (1 Bft) NO 45 1 min 0,000 mm 0,5 UV-I 190 W/m 11,4 C 18,6 C 6,4 km/h (2 Bft) 91,30 %
20.09.2020 17:26 18,7 C 65 % 1017,1 hPa 0,0 l/m 3,2 km/h (1 Bft) NO 45 1 min 0,000 mm 0,5 UV-I 190 W/m 12,0 C 18,7 C 4,8 km/h (1 Bft) 100,00 %
20.09.2020 17:25 18,7 C 62 % 1017,0 hPa 0,0 l/m 1,6 km/h (1 Bft) NO 45 1 min 0,000 mm 0,6 UV-I 195 W/m 11,3 C 18,7 C 4,8 km/h (1 Bft) 100,00 %
20.09.2020 17:24 18,7 C 62 % 1017,1 hPa 0,0 l/m 4,8 km/h (1 Bft) N-NO 22 1 min 0,000 mm 0,6 UV-I 197 W/m 11,3 C 18,7 C 6,4 km/h (2 Bft) 100,00 %
20.09.2020 17:23 18,8 C 62 % 1017,2 hPa 0,0 l/m 4,8 km/h (1 Bft) O-SO 112 1 min 0,000 mm 0,6 UV-I 199 W/m 11,4 C 18,8 C 8,0 km/h (2 Bft) 95,65 %
20.09.2020 17:22 18,8 C 62 % 1017,2 hPa 0,0 l/m 4,8 km/h (1 Bft) O 90 1 min 0,000 mm 0,6 UV-I 202 W/m 11,4 C 18,8 C 9,7 km/h (2 Bft) 100,00 %
20.09.2020 17:21 18,8 C 62 % 1017,1 hPa 0,0 l/m 3,2 km/h (1 Bft) O-NO 67 1 min 0,000 mm 0,6 UV-I 204 W/m 11,4 C 18,8 C 4,8 km/h (1 Bft) 95,65 %
20.09.2020 17:20 18,9 C 64 % 1017,2 hPa 0,0 l/m 4,8 km/h (1 Bft) SO 135 1 min 0,000 mm 0,6 UV-I 207 W/m 11,9 C 18,9 C 8,0 km/h (2 Bft) 95,65 %
20.09.2020 17:19 18,9 C 63 % 1017,2 hPa 0,0 l/m 4,8 km/h (1 Bft) O-SO 112 1 min 0,000 mm 0,6 UV-I 213 W/m 11,7 C 18,9 C 9,7 km/h (2 Bft) 100,00 %
20.09.2020 17:18 19,0 C 65 % 1017,1 hPa 0,0 l/m 1,6 km/h (1 Bft) NO 45 1 min 0,000 mm 0,6 UV-I 216 W/m 12,3 C 19,0 C 3,2 km/h (1 Bft) 100,00 %
20.09.2020 17:17 18,9 C 63 % 1017,1 hPa 0,0 l/m 1,6 km/h (1 Bft) NO 45 1 min 0,000 mm 0,6 UV-I 218 W/m 11,7 C 18,9 C 3,2 km/h (1 Bft) 100,00 %
20.09.2020 17:16 18,9 C 63 % 1017,2 hPa 0,0 l/m 4,8 km/h (1 Bft) O-SO 112 1 min 0,000 mm 0,7 UV-I 220 W/m 11,7 C 18,9 C 9,7 km/h (2 Bft) 100,00 %
20.09.2020 17:15 19,0 C 62 % 1017,2 hPa 0,0 l/m 3,2 km/h (1 Bft) N 360 1 min 0,000 mm 0,7 UV-I 223 W/m 11,6 C 19,0 C 4,8 km/h (1 Bft) 100,00 %
20.09.2020 17:14 19,0 C 63 % 1017,2 hPa 0,0 l/m 1,6 km/h (1 Bft) SO 135 1 min 0,000 mm 0,7 UV-I 227 W/m 11,8 C 19,0 C 3,2 km/h (1 Bft) 100,00 %
20.09.2020 17:13 19,1 C 62 % 1017,2 hPa 0,0 l/m 6,4 km/h (2 Bft) N-NO 22 1 min 0,000 mm 0,7 UV-I 230 W/m 11,6 C 19,1 C 14,5 km/h (3 Bft) 95,65 %
20.09.2020 17:12 19,1 C 63 % 1017,2 hPa 0,0 l/m 4,8 km/h (1 Bft) O-SO 112 1 min 0,000 mm 0,7 UV-I 230 W/m 11,9 C 19,1 C 8,0 km/h (2 Bft) 100,00 %
20.09.2020 17:11 19,1 C 63 % 1017,3 hPa 0,0 l/m 1,6 km/h (1 Bft) O 90 1 min 0,000 mm 0,7 UV-I 234 W/m 11,9 C 19,1 C 4,8 km/h (1 Bft) 100,00 %
20.09.2020 17:10 19,2 C 63 % 1017,1 hPa 0,0 l/m 6,4 km/h (2 Bft) O 90 1 min 0,000 mm 0,7 UV-I 236 W/m 12,0 C 19,2 C 8,0 km/h (2 Bft) 95,65 %
20.09.2020 17:09 19,1 C 62 % 1017,2 hPa 0,0 l/m 3,2 km/h (1 Bft) NO 45 1 min 0,000 mm 0,7 UV-I 237 W/m 11,6 C 19,1 C 6,4 km/h (2 Bft) 95,65 %
20.09.2020 17:08 19,2 C 63 % 1017,2 hPa 0,0 l/m 4,8 km/h (1 Bft) O-NO 67 1 min 0,000 mm 0,8 UV-I 243 W/m 12,0 C 19,2 C 12,9 km/h (3 Bft) 100,00 %
20.09.2020 17:07 19,2 C 62 % 1017,2 hPa 0,0 l/m 3,2 km/h (1 Bft) W 270 1 min 0,000 mm 0,8 UV-I 244 W/m 11,7 C 19,2 C 8,0 km/h (2 Bft) 100,00 %
20.09.2020 17:06 19,2 C 62 % 1017,3 hPa 0,0 l/m 4,8 km/h (1 Bft) N-NO 22 1 min 0,000 mm 0,8 UV-I 248 W/m 11,7 C 19,2 C 8,0 km/h (2 Bft) 95,65 %
20.09.2020 17:05 19,2 C 64 % 1017,2 hPa 0,0 l/m 6,4 km/h (2 Bft) O 90 1 min 0,000 mm 0,8 UV-I 250 W/m 12,2 C 19,2 C 9,7 km/h (2 Bft) 100,00 %
20.09.2020 17:04 19,3 C 63 % 1017,1 hPa 0,0 l/m 4,8 km/h (1 Bft) N 360 1 min 0,000 mm 0,8 UV-I 251 W/m 12,1 C 19,3 C 6,4 km/h (2 Bft) 100,00 %
20.09.2020 17:03 19,3 C 61 % 1017,2 hPa 0,0 l/m 3,2 km/h (1 Bft) N 360 1 min 0,000 mm 0,8 UV-I 253 W/m 11,6 C 19,3 C 4,8 km/h (1 Bft) 95,65 %
20.09.2020 17:02 19,3 C 62 % 1017,3 hPa 0,0 l/m 3,2 km/h (1 Bft) N 360 1 min 0,000 mm 0,8 UV-I 258 W/m 11,8 C 19,3 C 6,4 km/h (2 Bft) 100,00 %
20.09.2020 17:01 19,4 C 62 % 1017,2 hPa 0,0 l/m 3,2 km/h (1 Bft) NO 45 1 min 0,000 mm 0,8 UV-I 260 W/m 11,9 C 19,4 C 4,8 km/h (1 Bft) 100,00 %
20.09.2020 17:00 19,4 C 64 % 1017,2 hPa 0,0 l/m 1,6 km/h (1 Bft) NO 45 1 min 0,229 mm 0,9 UV-I 264 W/m 12,4 C 19,4 C 1,6 km/h (1 Bft) 100,00 %
20.09.2020 16:59 19,4 C 64 % 1017,1 hPa 0,0 l/m 0,0 km/h (0 Bft) NO 45 1 min 0,000 mm 0,9 UV-I 265 W/m 12,4 C 19,4 C 1,6 km/h (1 Bft) 95,65 %
20.09.2020 16:58 19,4 C 63 % 1017,1 hPa 0,0 l/m 3,2 km/h (1 Bft) N-NO 22 1 min 0,000 mm 0,9 UV-I 267 W/m 12,2 C 19,4 C 4,8 km/h (1 Bft) 100,00 %
20.09.2020 16:57 19,4 C 61 % 1017,2 hPa 0,0 l/m 1,6 km/h (1 Bft) O-NO 67 1 min 0,000 mm 0,9 UV-I 269 W/m 11,7 C 19,4 C 3,2 km/h (1 Bft) 100,00 %
20.09.2020 16:56 19,4 C 63 % 1017,1 hPa 0,0 l/m 1,6 km/h (1 Bft) O-NO 67 1 min 0,000 mm 0,9 UV-I 272 W/m 12,2 C 19,4 C 3,2 km/h (1 Bft) 100,00 %
20.09.2020 16:55 19,5 C 62 % 1017,1 hPa 0,0 l/m 1,6 km/h (1 Bft) O-NO 67 1 min 0,000 mm 0,9 UV-I 278 W/m 12,0 C 19,5 C 3,2 km/h (1 Bft) 100,00 %
20.09.2020 16:54 19,5 C 63 % 1017,2 hPa 0,0 l/m 1,6 km/h (1 Bft) O-NO 67 1 min 0,000 mm 0,9 UV-I 278 W/m 12,3 C 19,5 C 3,2 km/h (1 Bft) 100,00 %
20.09.2020 16:53 19,5 C 61 % 1017,1 hPa 0,0 l/m 0,0 km/h (0 Bft) O-NO 67 1 min 0,000 mm 1,0 UV-I 279 W/m 11,8 C 19,5 C 1,6 km/h (1 Bft) 100,00 %
20.09.2020 16:52 19,6 C 64 % 1017,2 hPa 0,0 l/m 1,6 km/h (1 Bft) O-NO 67 1 min 0,000 mm 1,0 UV-I 283 W/m 12,6 C 19,6 C 4,8 km/h (1 Bft) 95,65 %
20.09.2020 16:51 19,6 C 63 % 1017,1 hPa 0,0 l/m 1,6 km/h (1 Bft) N-NO 22 1 min 0,000 mm 1,0 UV-I 285 W/m 12,4 C 19,6 C 3,2 km/h (1 Bft) 100,00 %
20.09.2020 16:50 19,6 C 61 % 1017,2 hPa 0,0 l/m 4,8 km/h (1 Bft) N-NO 22 1 min 0,000 mm 1,0 UV-I 290 W/m 11,9 C 19,6 C 8,0 km/h (2 Bft) 100,00 %
20.09.2020 16:49 19,7 C 61 % 1017,1 hPa 0,0 l/m 4,8 km/h (1 Bft) N-NO 22 1 min 0,000 mm 1,0 UV-I 292 W/m 12,0 C 19,7 C 11,3 km/h (2 Bft) 95,65 %
20.09.2020 16:48 19,7 C 63 % 1017,1 hPa 0,0 l/m 4,8 km/h (1 Bft) N 360 1 min 0,000 mm 1,0 UV-I 294 W/m 12,5 C 19,7 C 11,3 km/h (2 Bft) 100,00 %
20.09.2020 16:47 19,7 C 62 % 1017,1 hPa 0,0 l/m 1,6 km/h (1 Bft) N 360 1 min 0,000 mm 1,0 UV-I 297 W/m 12,2 C 19,7 C 4,8 km/h (1 Bft) 95,65 %
20.09.2020 16:46 19,7 C 61 % 1017,1 hPa 0,0 l/m 3,2 km/h (1 Bft) N 360 1 min 0,000 mm 1,1 UV-I 299 W/m 12,0 C 19,7 C 4,8 km/h (1 Bft) 100,00 %
20.09.2020 16:45 19,8 C 60 % 1017,1 hPa 0,0 l/m 3,2 km/h (1 Bft) NO 45 1 min 0,000 mm 1,1 UV-I 302 W/m 11,8 C 19,8 C 4,8 km/h (1 Bft) 91,30 %
20.09.2020 16:44 19,8 C 62 % 1017,2 hPa 0,0 l/m 3,2 km/h (1 Bft) NO 45 1 min 0,000 mm 1,1 UV-I 306 W/m 12,3 C 19,8 C 6,4 km/h (2 Bft) 95,65 %
20.09.2020 16:43 19,8 C 61 % 1017,2 hPa 0,0 l/m 6,4 km/h (2 Bft) N 360 1 min 0,000 mm 1,1 UV-I 308 W/m 12,1 C 19,8 C 9,7 km/h (2 Bft) 95,65 %
20.09.2020 16:42 19,9 C 62 % 1017,2 hPa 0,0 l/m 3,2 km/h (1 Bft) N-NW 337 1 min 0,000 mm 1,1 UV-I 311 W/m 12,4 C 19,9 C 4,8 km/h (1 Bft) 91,30 %
20.09.2020 16:41 19,8 C 63 % 1017,1 hPa 0,0 l/m 3,2 km/h (1 Bft) N 360 1 min 0,000 mm 1,1 UV-I 313 W/m 12,5 C 19,8 C 4,8 km/h (1 Bft) 100,00 %
20.09.2020 16:40 19,8 C 59 % 1017,2 hPa 0,0 l/m 3,2 km/h (1 Bft) N 360 1 min 0,000 mm 1,2 UV-I 315 W/m 11,6 C 19,8 C 6,4 km/h (2 Bft) 91,30 %
20.09.2020 16:39 19,9 C 62 % 1017,2 hPa 0,0 l/m 1,6 km/h (1 Bft) W-NW 292 1 min 0,000 mm 1,2 UV-I 320 W/m 12,4 C 19,9 C 6,4 km/h (2 Bft) 100,00 %
20.09.2020 16:38 19,9 C 60 % 1017,2 hPa 0,0 l/m 3,2 km/h (1 Bft) W-NW 292 1 min 0,000 mm 1,2 UV-I 323 W/m 11,9 C 19,9 C 4,8 km/h (1 Bft) 91,30 %
20.09.2020 16:37 20,0 C 61 % 1017,2 hPa 0,0 l/m 3,2 km/h (1 Bft) NW 315 1 min 0,000 mm 1,2 UV-I 325 W/m 12,2 C 20,0 C 6,4 km/h (2 Bft) 100,00 %
20.09.2020 16:36 20,1 C 62 % 1017,2 hPa 0,0 l/m 1,6 km/h (1 Bft) NW 315 1 min 0,000 mm 1,2 UV-I 329 W/m 12,6 C 20,1 C 3,2 km/h (1 Bft) 95,65 %
20.09.2020 16:35 20,1 C 59 % 1017,3 hPa 0,0 l/m 1,6 km/h (1 Bft) NW 315 1 min 0,000 mm 1,2 UV-I 330 W/m 11,8 C 20,1 C 4,8 km/h (1 Bft) 95,65 %
20.09.2020 16:34 20,3 C 63 % 1017,2 hPa 0,0 l/m 3,2 km/h (1 Bft) SO 135 1 min 0,000 mm 1,2 UV-I 334 W/m 13,0 C 20,3 C 4,8 km/h (1 Bft) 100,00 %
20.09.2020 16:33 20,3 C 65 % 1017,2 hPa 0,0 l/m 4,8 km/h (1 Bft) SO 135 1 min 0,000 mm 1,3 UV-I 339 W/m 13,5 C 20,3 C 6,4 km/h (2 Bft) 95,65 %
20.09.2020 16:32 20,2 C 66 % 1017,1 hPa 0,0 l/m 4,8 km/h (1 Bft) SO 135 1 min 0,000 mm 1,3 UV-I 341 W/m 13,6 C 20,2 C 6,4 km/h (2 Bft) 100,00 %
20.09.2020 16:31 20,1 C 63 % 1017,2 hPa 0,0 l/m 4,8 km/h (1 Bft) SO 135 1 min 0,000 mm 1,3 UV-I 345 W/m 12,8 C 20,1 C 6,4 km/h (2 Bft) 91,30 %
20.09.2020 16:30 20,1 C 64 % 1017,1 hPa 0,0 l/m 6,4 km/h (2 Bft) SO 135 1 min 0,000 mm 1,3 UV-I 346 W/m 13,1 C 20,1 C 8,0 km/h (2 Bft) 100,00 %
20.09.2020 16:29 20,1 C 63 % 1017,1 hPa 0,0 l/m 6,4 km/h (2 Bft) SO 135 1 min 0,000 mm 1,3 UV-I 348 W/m 12,8 C 20,1 C 8,0 km/h (2 Bft) 95,65 %
20.09.2020 16:28 20,1 C 62 % 1017,1 hPa 0,0 l/m 4,8 km/h (1 Bft) O-SO 112 1 min 0,000 mm 1,3 UV-I 350 W/m 12,6 C 20,1 C 6,4 km/h (2 Bft) 100,00 %
20.09.2020 16:27 19,9 C 63 % 1017,2 hPa 0,0 l/m 4,8 km/h (1 Bft) O-SO 112 1 min 0,000 mm 1,3 UV-I 352 W/m 12,6 C 19,9 C 6,4 km/h (2 Bft) 95,65 %
20.09.2020 16:26 19,9 C 66 % 1017,1 hPa 0,0 l/m 3,2 km/h (1 Bft) O-SO 112 1 min 0,000 mm 1,3 UV-I 355 W/m 13,4 C 19,9 C 4,8 km/h (1 Bft) 91,30 %
20.09.2020 16:25 19,8 C 64 % 1017,2 hPa 0,0 l/m 1,6 km/h (1 Bft) O-SO 112 1 min 0,000 mm 1,4 UV-I 357 W/m 12,8 C 19,8 C 3,2 km/h (1 Bft) 100,00 %
20.09.2020 16:24 19,8 C 64 % 1017,1 hPa 0,0 l/m 3,2 km/h (1 Bft) O-SO 112 1 min 0,000 mm 1,4 UV-I 359 W/m 12,8 C 19,8 C 4,8 km/h (1 Bft) 91,30 %
20.09.2020 16:23 19,8 C 63 % 1017,1 hPa 0,0 l/m 0,0 km/h (0 Bft) O-SO 112 1 min 0,000 mm 1,4 UV-I 360 W/m 12,5 C 19,8 C 1,6 km/h (1 Bft) 100,00 %
20.09.2020 16:22 19,8 C 64 % 1017,2 hPa 0,0 l/m 3,2 km/h (1 Bft) O-SO 112 1 min 0,000 mm 1,4 UV-I 364 W/m 12,8 C 19,8 C 4,8 km/h (1 Bft) 95,65 %
20.09.2020 16:21 19,9 C 65 % 1017,1 hPa 0,0 l/m 4,8 km/h (1 Bft) O-SO 112 1 min 0,000 mm 1,4 UV-I 364 W/m 13,1 C 19,9 C 6,4 km/h (2 Bft) 95,65 %
20.09.2020 16:20 19,9 C 64 % 1017,1 hPa 0,0 l/m 4,8 km/h (1 Bft) O-SO 112 1 min 0,000 mm 1,4 UV-I 371 W/m 12,9 C 19,9 C 6,4 km/h (2 Bft) 95,65 %
20.09.2020 16:19 19,9 C 63 % 1017,2 hPa 0,0 l/m 1,6 km/h (1 Bft) N 360 1 min 0,000 mm 1,5 UV-I 373 W/m 12,6 C 19,9 C 3,2 km/h (1 Bft) 100,00 %
20.09.2020 16:18 19,9 C 61 % 1017,2 hPa 0,0 l/m 1,6 km/h (1 Bft) N 360 1 min 0,000 mm 1,5 UV-I 376 W/m 12,2 C 19,9 C 3,2 km/h (1 Bft) 91,30 %
20.09.2020 16:17 19,9 C 62 % 1017,1 hPa 0,0 l/m 1,6 km/h (1 Bft) N 360 1 min 0,000 mm 1,5 UV-I 378 W/m 12,4 C 19,9 C 3,2 km/h (1 Bft) 91,30 %
20.09.2020 16:16 19,9 C 60 % 1017,2 hPa 0,0 l/m 1,6 km/h (1 Bft) N-NO 22 1 min 0,000 mm 1,5 UV-I 380 W/m 11,9 C 19,9 C 3,2 km/h (1 Bft) 100,00 %
20.09.2020 16:15 19,9 C 60 % 1017,2 hPa 0,0 l/m 3,2 km/h (1 Bft) N 360 1 min 0,000 mm 1,5 UV-I 385 W/m 11,9 C 19,9 C 4,8 km/h (1 Bft) 100,00 %
20.09.2020 16:14 20,1 C 61 % 1017,3 hPa 0,0 l/m 4,8 km/h (1 Bft) N-NO 22 1 min 0,000 mm 1,5 UV-I 387 W/m 12,3 C 20,1 C 6,4 km/h (2 Bft) 100,00 %
20.09.2020 16:13 20,1 C 58 % 1017,2 hPa 0,0 l/m 4,8 km/h (1 Bft) NW 315 1 min 0,000 mm 1,6 UV-I 390 W/m 11,6 C 20,1 C 6,4 km/h (2 Bft) 95,65 %
20.09.2020 16:12 20,2 C 60 % 1017,2 hPa 0,0 l/m 3,2 km/h (1 Bft) N-NW 337 1 min 0,000 mm 1,6 UV-I 394 W/m 12,2 C 20,2 C 6,4 km/h (2 Bft) 95,65 %
20.09.2020 16:11 20,2 C 60 % 1017,2 hPa 0,0 l/m 4,8 km/h (1 Bft) W-NW 292 1 min 0,000 mm 1,6 UV-I 394 W/m 12,2 C 20,2 C 6,4 km/h (2 Bft) 100,00 %
20.09.2020 16:10 20,2 C 59 % 1017,2 hPa 0,0 l/m 3,2 km/h (1 Bft) NW 315 1 min 0,000 mm 1,6 UV-I 396 W/m 11,9 C 20,2 C 6,4 km/h (2 Bft) 91,30 %
20.09.2020 16:09 20,2 C 61 % 1017,2 hPa 0,0 l/m 0,0 km/h (0 Bft) W 270 1 min 0,000 mm 1,6 UV-I 401 W/m 12,4 C 20,2 C 3,2 km/h (1 Bft) 100,00 %
20.09.2020 16:08 20,2 C 63 % 1017,3 hPa 0,0 l/m 0,0 km/h (0 Bft) N 0 1 min 0,000 mm 1,7 UV-I 403 W/m 12,9 C 20,2 C 0,0 km/h (0 Bft) 100,00 %
20.09.2020 16:07 20,1 C 62 % 1017,3 hPa 0,0 l/m 0,0 km/h (0 Bft) W-SW 247 1 min 0,000 mm 1,7 UV-I 406 W/m 12,6 C 20,1 C 3,2 km/h (1 Bft) 100,00 %
20.09.2020 16:06 20,1 C 62 % 1017,3 hPa 0,0 l/m 1,6 km/h (1 Bft) W 270 1 min 0,000 mm 1,7 UV-I 406 W/m 12,6 C 20,1 C 3,2 km/h (1 Bft) 95,65 %
20.09.2020 16:05 20,2 C 64 % 1017,4 hPa 0,0 l/m 3,2 km/h (1 Bft) W 270 1 min 0,000 mm 1,7 UV-I 410 W/m 13,2 C 20,2 C 4,8 km/h (1 Bft) 100,00 %
20.09.2020 16:04 20,1 C 61 % 1017,3 hPa 0,0 l/m 1,6 km/h (1 Bft) W-SW 247 1 min 0,000 mm 1,7 UV-I 411 W/m 12,3 C 20,1 C 3,2 km/h (1 Bft) 100,00 %
20.09.2020 16:03 20,1 C 61 % 1017,4 hPa 0,0 l/m 0,0 km/h (0 Bft) W-SW 247 1 min 0,000 mm 1,7 UV-I 413 W/m 12,3 C 20,1 C 1,6 km/h (1 Bft) 95,65 %
20.09.2020 16:02 20,1 C 62 % 1017,3 hPa 0,0 l/m 1,6 km/h (1 Bft) W-SW 247 1 min 0,000 mm 1,8 UV-I 418 W/m 12,6 C 20,1 C 1,6 km/h (1 Bft) 100,00 %
20.09.2020 16:01 20,1 C 64 % 1017,2 hPa 0,0 l/m 1,6 km/h (1 Bft) W-SW 247 1 min 0,000 mm 1,8 UV-I 420 W/m 13,1 C 20,1 C 3,2 km/h (1 Bft) 95,65 %
20.09.2020 16:00 20,1 C 67 % 1017,2 hPa 0,0 l/m 1,6 km/h (1 Bft) W 270 1 min 0,279 mm 1,8 UV-I 422 W/m 13,8 C 20,1 C 1,6 km/h (1 Bft) 95,65 %
20.09.2020 15:59 20,1 C 63 % 1017,2 hPa 0,0 l/m 0,0 km/h (0 Bft) W 270 1 min 0,000 mm 1,8 UV-I 422 W/m 12,8 C 20,1 C 1,6 km/h (1 Bft) 100,00 %
20.09.2020 15:58 19,9 C 64 % 1017,3 hPa 0,0 l/m 1,6 km/h (1 Bft) W 270 1 min 0,000 mm 1,8 UV-I 424 W/m 12,9 C 19,9 C 3,2 km/h (1 Bft) 100,00 %
20.09.2020 15:57 19,9 C 65 % 1017,3 hPa 0,0 l/m 1,6 km/h (1 Bft) W 270 1 min 0,000 mm 1,9 UV-I 429 W/m 13,1 C 19,9 C 3,2 km/h (1 Bft) 100,00 %
20.09.2020 15:56 19,8 C 66 % 1017,3 hPa 0,0 l/m 1,6 km/h (1 Bft) W 270 1 min 0,000 mm 1,9 UV-I 432 W/m 13,3 C 19,8 C 3,2 km/h (1 Bft) 95,65 %
20.09.2020 15:55 19,8 C 64 % 1017,3 hPa 0,0 l/m 3,2 km/h (1 Bft) W 270 1 min 0,000 mm 1,9 UV-I 432 W/m 12,8 C 19,8 C 4,8 km/h (1 Bft) 100,00 %
20.09.2020 15:54 19,8 C 68 % 1017,2 hPa 0,0 l/m 3,2 km/h (1 Bft) W 270 1 min 0,000 mm 1,9 UV-I 436 W/m 13,7 C 19,8 C 4,8 km/h (1 Bft) 100,00 %
20.09.2020 15:53 19,7 C 65 % 1017,3 hPa 0,0 l/m 1,6 km/h (1 Bft) W 270 1 min 0,000 mm 1,9 UV-I 436 W/m 12,9 C 19,7 C 3,2 km/h (1 Bft) 100,00 %
20.09.2020 15:52 19,8 C 67 % 1017,2 hPa 0,0 l/m 1,6 km/h (1 Bft) W 270 1 min 0,000 mm 1,9 UV-I 439 W/m 13,5 C 19,8 C 3,2 km/h (1 Bft) 100,00 %
20.09.2020 15:51 19,8 C 66 % 1017,2 hPa 0,0 l/m 1,6 km/h (1 Bft) W 270 1 min 0,000 mm 1,9 UV-I 441 W/m 13,3 C 19,8 C 3,2 km/h (1 Bft) 100,00 %
20.09.2020 15:50 19,8 C 66 % 1017,2 hPa 0,0 l/m 1,6 km/h (1 Bft) W 270 1 min 0,000 mm 2,0 UV-I 443 W/m 13,3 C 19,8 C 3,2 km/h (1 Bft) 100,00 %
20.09.2020 15:49 19,7 C 67 % 1017,2 hPa 0,0 l/m 1,6 km/h (1 Bft) W 270 1 min 0,000 mm 2,0 UV-I 445 W/m 13,4 C 19,7 C 3,2 km/h (1 Bft) 95,65 %
20.09.2020 15:48 19,8 C 68 % 1017,2 hPa 0,0 l/m 1,6 km/h (1 Bft) W 270 1 min 0,000 mm 2,0 UV-I 446 W/m 13,7 C 19,8 C 3,2 km/h (1 Bft) 100,00 %
20.09.2020 15:47 19,8 C 66 % 1017,2 hPa 0,0 l/m 3,2 km/h (1 Bft) W-SW 247 1 min 0,000 mm 2,0 UV-I 448 W/m 13,3 C 19,8 C 4,8 km/h (1 Bft) 100,00 %
20.09.2020 15:46 19,9 C 66 % 1017,1 hPa 0,0 l/m 4,8 km/h (1 Bft) W-SW 247 1 min 0,000 mm 2,0 UV-I 452 W/m 13,4 C 19,9 C 6,4 km/h (2 Bft) 100,00 %
20.09.2020 15:45 20,0 C 65 % 1017,1 hPa 0,0 l/m 1,6 km/h (1 Bft) W-SW 247 1 min 0,000 mm 2,0 UV-I 454 W/m 13,2 C 20,0 C 4,8 km/h (1 Bft) 100,00 %
20.09.2020 15:44 20,0 C 67 % 1017,1 hPa 0,0 l/m 4,8 km/h (1 Bft) W-SW 247 1 min 0,000 mm 2,1 UV-I 455 W/m 13,7 C 20,0 C 6,4 km/h (2 Bft) 91,30 %
20.09.2020 15:43 20,1 C 66 % 1017,1 hPa 0,0 l/m 4,8 km/h (1 Bft) W-SW 247 1 min 0,000 mm 2,1 UV-I 457 W/m 13,5 C 20,1 C 6,4 km/h (2 Bft) 100,00 %
20.09.2020 15:42 20,3 C 68 % 1017,0 hPa 0,0 l/m 3,2 km/h (1 Bft) W-SW 247 1 min 0,000 mm 2,1 UV-I 459 W/m 14,2 C 20,3 C 4,8 km/h (1 Bft) 91,30 %
20.09.2020 15:41 20,2 C 66 % 1017,1 hPa 0,0 l/m 1,6 km/h (1 Bft) S-SO 157 1 min 0,000 mm 2,1 UV-I 461 W/m 13,6 C 20,2 C 3,2 km/h (1 Bft) 100,00 %
20.09.2020 15:40 20,2 C 63 % 1017,1 hPa 0,0 l/m 1,6 km/h (1 Bft) S-SO 157 1 min 0,000 mm 2,1 UV-I 464 W/m 12,9 C 20,2 C 3,2 km/h (1 Bft) 100,00 %
20.09.2020 15:39 20,2 C 63 % 1017,0 hPa 0,0 l/m 1,6 km/h (1 Bft) S-SO 157 1 min 0,000 mm 2,1 UV-I 464 W/m 12,9 C 20,2 C 3,2 km/h (1 Bft) 100,00 %
20.09.2020 15:38 20,2 C 62 % 1017,0 hPa 0,0 l/m 1,6 km/h (1 Bft) S-SO 157 1 min 0,000 mm 2,2 UV-I 466 W/m 12,7 C 20,2 C 3,2 km/h (1 Bft) 95,65 %
20.09.2020 15:37 20,2 C 59 % 1017,0 hPa 0,0 l/m 0,0 km/h (0 Bft) S-SO 157 1 min 0,000 mm 2,2 UV-I 468 W/m 11,9 C 20,2 C 1,6 km/h (1 Bft) 100,00 %
20.09.2020 15:36 20,3 C 59 % 1017,1 hPa 0,0 l/m 1,6 km/h (1 Bft) S-SO 157 1 min 0,000 mm 2,2 UV-I 471 W/m 12,0 C 20,3 C 3,2 km/h (1 Bft) 100,00 %
20.09.2020 15:35 20,4 C 60 % 1017,1 hPa 0,0 l/m 1,6 km/h (1 Bft) S 180 1 min 0,000 mm 2,2 UV-I 475 W/m 12,4 C 20,4 C 4,8 km/h (1 Bft) 91,30 %
20.09.2020 15:34 20,3 C 60 % 1017,0 hPa 0,0 l/m 3,2 km/h (1 Bft) S 180 1 min 0,000 mm 2,2 UV-I 476 W/m 12,3 C 20,3 C 3,2 km/h (1 Bft) 100,00 %
20.09.2020 15:33 20,3 C 66 % 1017,0 hPa 0,0 l/m 1,6 km/h (1 Bft) S 180 1 min 0,000 mm 2,2 UV-I 478 W/m 13,7 C 20,3 C 4,8 km/h (1 Bft) 100,00 %
20.09.2020 15:32 20,3 C 63 % 1017,0 hPa 0,0 l/m 3,2 km/h (1 Bft) S 180 1 min 0,000 mm 2,3 UV-I 482 W/m 13,0 C 20,3 C 4,8 km/h (1 Bft) 95,65 %
20.09.2020 15:31 20,2 C 67 % 1016,9 hPa 0,0 l/m 1,6 km/h (1 Bft) S-SW 202 1 min 0,000 mm 2,3 UV-I 485 W/m 13,9 C 20,2 C 4,8 km/h (1 Bft) 100,00 %
20.09.2020 15:30 20,0 C 64 % 1017,1 hPa 0,0 l/m 1,6 km/h (1 Bft) SW 225 1 min 0,000 mm 2,3 UV-I 487 W/m 13,0 C 20,0 C 4,8 km/h (1 Bft) 100,00 %
20.09.2020 15:29 19,9 C 64 % 1017,0 hPa 0,0 l/m 3,2 km/h (1 Bft) SW 225 1 min 0,000 mm 2,3 UV-I 487 W/m 12,9 C 19,9 C 6,4 km/h (2 Bft) 100,00 %
20.09.2020 15:28 19,9 C 66 % 1017,1 hPa 0,0 l/m 0,0 km/h (0 Bft) N 0 1 min 0,000 mm 2,3 UV-I 490 W/m 13,4 C 19,9 C 0,0 km/h (0 Bft) 95,65 %
20.09.2020 15:27 19,9 C 65 % 1017,0 hPa 0,0 l/m 0,0 km/h (0 Bft) S-SO 157 1 min 0,000 mm 2,3 UV-I 492 W/m 13,1 C 19,9 C 1,6 km/h (1 Bft) 100,00 %
20.09.2020 15:26 19,9 C 66 % 1017,1 hPa 0,0 l/m 3,2 km/h (1 Bft) S-SO 157 1 min 0,000 mm 2,4 UV-I 494 W/m 13,4 C 19,9 C 6,4 km/h (2 Bft) 100,00 %
20.09.2020 15:25 20,0 C 66 % 1017,1 hPa 0,0 l/m 4,8 km/h (1 Bft) SO 135 1 min 0,000 mm 2,4 UV-I 494 W/m 13,4 C 20,0 C 6,4 km/h (2 Bft) 100,00 %
20.09.2020 15:24 20,1 C 66 % 1017,0 hPa 0,0 l/m 1,6 km/h (1 Bft) SO 135 1 min 0,000 mm 2,4 UV-I 497 W/m 13,5 C 20,1 C 3,2 km/h (1 Bft) 100,00 %
20.09.2020 15:23 20,1 C 66 % 1017,0 hPa 0,0 l/m 1,6 km/h (1 Bft) SO 135 1 min 0,000 mm 2,4 UV-I 499 W/m 13,5 C 20,1 C 3,2 km/h (1 Bft) 100,00 %
20.09.2020 15:22 20,1 C 68 % 1017,1 hPa 0,0 l/m 1,6 km/h (1 Bft) SO 135 1 min 0,000 mm 2,4 UV-I 503 W/m 14,0 C 20,1 C 3,2 km/h (1 Bft) 100,00 %
20.09.2020 15:21 20,1 C 66 % 1017,0 hPa 0,0 l/m 1,6 km/h (1 Bft) SO 135 1 min 0,000 mm 2,5 UV-I 506 W/m 13,5 C 20,1 C 3,2 km/h (1 Bft) 91,30 %
20.09.2020 15:20 20,1 C 66 % 1017,0 hPa 0,0 l/m 1,6 km/h (1 Bft) S-SO 157 1 min 0,000 mm 2,5 UV-I 508 W/m 13,5 C 20,1 C 3,2 km/h (1 Bft) 100,00 %
20.09.2020 15:19 20,1 C 65 % 1017,0 hPa 0,0 l/m 1,6 km/h (1 Bft) S-SO 157 1 min 0,000 mm 2,5 UV-I 510 W/m 13,3 C 20,1 C 3,2 km/h (1 Bft) 95,65 %
20.09.2020 15:18 20,1 C 67 % 1017,0 hPa 0,0 l/m 3,2 km/h (1 Bft) S-SO 157 1 min 0,000 mm 2,5 UV-I 512 W/m 13,8 C 20,1 C 6,4 km/h (2 Bft) 100,00 %
20.09.2020 15:17 20,1 C 67 % 1017,2 hPa 0,0 l/m 1,6 km/h (1 Bft) S-SO 157 1 min 0,000 mm 2,5 UV-I 513 W/m 13,8 C 20,1 C 6,4 km/h (2 Bft) 100,00 %
20.09.2020 15:16 20,0 C 68 % 1017,1 hPa 0,0 l/m 1,6 km/h (1 Bft) S-SO 157 1 min 0,000 mm 2,5 UV-I 513 W/m 13,9 C 20,0 C 3,2 km/h (1 Bft) 95,65 %
20.09.2020 15:15 19,9 C 65 % 1017,0 hPa 0,0 l/m 3,2 km/h (1 Bft) S-SO 157 1 min 0,000 mm 2,6 UV-I 515 W/m 13,1 C 19,9 C 6,4 km/h (2 Bft) 100,00 %
20.09.2020 15:14 19,8 C 66 % 1017,2 hPa 0,0 l/m 1,6 km/h (1 Bft) O-SO 112 1 min 0,000 mm 2,6 UV-I 515 W/m 13,3 C 19,8 C 3,2 km/h (1 Bft) 95,65 %
20.09.2020 15:13 19,9 C 66 % 1017,2 hPa 0,0 l/m 1,6 km/h (1 Bft) O-SO 112 1 min 0,000 mm 2,6 UV-I 519 W/m 13,4 C 19,9 C 1,6 km/h (1 Bft) 100,00 %
20.09.2020 15:12 19,8 C 66 % 1017,2 hPa 0,0 l/m 0,0 km/h (0 Bft) O-SO 112 1 min 0,000 mm 2,6 UV-I 519 W/m 13,3 C 19,8 C 1,6 km/h (1 Bft) 95,65 %
20.09.2020 15:11 19,8 C 64 % 1017,2 hPa 0,0 l/m 0,0 km/h (0 Bft) O-SO 112 1 min 0,000 mm 2,6 UV-I 524 W/m 12,8 C 19,8 C 1,6 km/h (1 Bft) 95,65 %
20.09.2020 15:10 19,9 C 63 % 1017,2 hPa 0,0 l/m 1,6 km/h (1 Bft) O-SO 112 1 min 0,000 mm 2,6 UV-I 524 W/m 12,6 C 19,9 C 3,2 km/h (1 Bft) 100,00 %
20.09.2020 15:09 20,0 C 64 % 1017,2 hPa 0,0 l/m 3,2 km/h (1 Bft) O-SO 112 1 min 0,000 mm 2,6 UV-I 526 W/m 13,0 C 20,0 C 4,8 km/h (1 Bft) 95,65 %
20.09.2020 15:08 20,1 C 64 % 1017,2 hPa 0,0 l/m 4,8 km/h (1 Bft) O-SO 112 1 min 0,000 mm 2,7 UV-I 527 W/m 13,1 C 20,1 C 4,8 km/h (1 Bft) 95,65 %
20.09.2020 15:07 19,9 C 67 % 1017,1 hPa 0,0 l/m 4,8 km/h (1 Bft) O-SO 112 1 min 0,000 mm 2,7 UV-I 527 W/m 13,6 C 19,9 C 9,7 km/h (2 Bft) 95,65 %
20.09.2020 15:06 19,8 C 66 % 1017,2 hPa 0,0 l/m 4,8 km/h (1 Bft) SO 135 1 min 0,000 mm 2,7 UV-I 531 W/m 13,3 C 19,8 C 9,7 km/h (2 Bft) 100,00 %
20.09.2020 15:05 19,9 C 65 % 1017,1 hPa 0,0 l/m 3,2 km/h (1 Bft) SO 135 1 min 0,000 mm 2,7 UV-I 533 W/m 13,1 C 19,9 C 4,8 km/h (1 Bft) 100,00 %
20.09.2020 15:04 19,8 C 65 % 1017,2 hPa 0,0 l/m 3,2 km/h (1 Bft) SO 135 1 min 0,000 mm 2,7 UV-I 534 W/m 13,0 C 19,8 C 4,8 km/h (1 Bft) 100,00 %
20.09.2020 15:03 19,8 C 64 % 1017,3 hPa 0,0 l/m 4,8 km/h (1 Bft) SO 135 1 min 0,000 mm 2,7 UV-I 538 W/m 12,8 C 19,8 C 6,4 km/h (2 Bft) 100,00 %
20.09.2020 15:02 19,9 C 64 % 1017,3 hPa 0,0 l/m 1,6 km/h (1 Bft) O-SO 112 1 min 0,000 mm 2,8 UV-I 540 W/m 12,9 C 19,9 C 1,6 km/h (1 Bft) 95,65 %
20.09.2020 15:01 20,1 C 64 % 1017,3 hPa 0,0 l/m 0,0 km/h (0 Bft) O-SO 112 1 min 0,000 mm 2,8 UV-I 541 W/m 13,1 C 20,1 C 3,2 km/h (1 Bft) 95,65 %
20.09.2020 15:00 20,1 C 63 % 1017,3 hPa 0,0 l/m 1,6 km/h (1 Bft) O-SO 112 1 min 0,356 mm 2,8 UV-I 543 W/m 12,8 C 20,1 C 3,2 km/h (1 Bft) 95,65 %
20.09.2020 14:59 20,1 C 64 % 1017,2 hPa 0,0 l/m 1,6 km/h (1 Bft) O-SO 112 1 min 0,000 mm 2,8 UV-I 545 W/m 13,1 C 20,1 C 3,2 km/h (1 Bft) 95,65 %
20.09.2020 14:58 20,1 C 67 % 1017,3 hPa 0,0 l/m 1,6 km/h (1 Bft) O-SO 112 1 min 0,000 mm 2,8 UV-I 547 W/m 13,8 C 20,1 C 4,8 km/h (1 Bft) 95,65 %
20.09.2020 14:57 20,0 C 66 % 1017,2 hPa 0,0 l/m 4,8 km/h (1 Bft) O-SO 112 1 min 0,000 mm 2,8 UV-I 548 W/m 13,4 C 20,0 C 9,7 km/h (2 Bft) 100,00 %
20.09.2020 14:56 20,1 C 68 % 1017,3 hPa 0,0 l/m 3,2 km/h (1 Bft) SO 135 1 min 0,000 mm 2,9 UV-I 550 W/m 14,0 C 20,1 C 4,8 km/h (1 Bft) 100,00 %
20.09.2020 14:55 20,1 C 65 % 1017,2 hPa 0,0 l/m 4,8 km/h (1 Bft) O-SO 112 1 min 0,000 mm 2,9 UV-I 554 W/m 13,3 C 20,1 C 6,4 km/h (2 Bft) 100,00 %
20.09.2020 14:54 20,1 C 66 % 1017,3 hPa 0,0 l/m 8,0 km/h (2 Bft) O-SO 112 1 min 0,000 mm 2,9 UV-I 554 W/m 13,5 C 20,1 C 11,3 km/h (2 Bft) 95,65 %
20.09.2020 14:53 20,0 C 66 % 1017,3 hPa 0,0 l/m 6,4 km/h (2 Bft) O-SO 112 1 min 0,000 mm 2,9 UV-I 555 W/m 13,4 C 20,0 C 6,4 km/h (2 Bft) 95,65 %
20.09.2020 14:52 19,9 C 69 % 1017,3 hPa 0,0 l/m 6,4 km/h (2 Bft) SO 135 1 min 0,000 mm 2,9 UV-I 557 W/m 14,0 C 19,9 C 9,7 km/h (2 Bft) 91,30 %
20.09.2020 14:51 19,9 C 65 % 1017,1 hPa 0,0 l/m 6,4 km/h (2 Bft) O-SO 112 1 min 0,000 mm 2,9 UV-I 559 W/m 13,1 C 19,9 C 11,3 km/h (2 Bft) 95,65 %
20.09.2020 14:50 20,0 C 68 % 1017,2 hPa 0,0 l/m 4,8 km/h (1 Bft) SO 135 1 min 0,000 mm 2,9 UV-I 561 W/m 13,9 C 20,0 C 8,0 km/h (2 Bft) 100,00 %
20.09.2020 14:49 19,9 C 68 % 1017,2 hPa 0,0 l/m 4,8 km/h (1 Bft) O-SO 112 1 min 0,000 mm 3,0 UV-I 563 W/m 13,8 C 19,9 C 6,4 km/h (2 Bft) 91,30 %
20.09.2020 14:48 19,8 C 66 % 1017,3 hPa 0,0 l/m 4,8 km/h (1 Bft) O-SO 112 1 min 0,000 mm 3,0 UV-I 563 W/m 13,3 C 19,8 C 11,3 km/h (2 Bft) 100,00 %
20.09.2020 14:47 19,8 C 66 % 1017,2 hPa 0,0 l/m 4,8 km/h (1 Bft) SO 135 1 min 0,000 mm 3,0 UV-I 566 W/m 13,3 C 19,8 C 6,4 km/h (2 Bft) 95,65 %
20.09.2020 14:46 19,8 C 66 % 1017,3 hPa 0,0 l/m 3,2 km/h (1 Bft) S-SO 157 1 min 0,000 mm 3,0 UV-I 566 W/m 13,3 C 19,8 C 6,4 km/h (2 Bft) 95,65 %
20.09.2020 14:45 19,9 C 65 % 1017,3 hPa 0,0 l/m 6,4 km/h (2 Bft) S-SO 157 1 min 0,000 mm 3,0 UV-I 570 W/m 13,1 C 19,9 C 9,7 km/h (2 Bft) 95,65 %
20.09.2020 14:44 19,9 C 64 % 1017,3 hPa 0,0 l/m 6,4 km/h (2 Bft) SO 135 1 min 0,000 mm 3,0 UV-I 570 W/m 12,9 C 19,9 C 8,0 km/h (2 Bft) 95,65 %
20.09.2020 14:43 19,9 C 68 % 1017,3 hPa 0,0 l/m 4,8 km/h (1 Bft) SO 135 1 min 0,000 mm 3,1 UV-I 570 W/m 13,8 C 19,9 C 6,4 km/h (2 Bft) 91,30 %
20.09.2020 14:42 19,8 C 67 % 1017,3 hPa 0,0 l/m 8,0 km/h (2 Bft) SO 135 1 min 0,000 mm 3,1 UV-I 571 W/m 13,5 C 19,8 C 11,3 km/h (2 Bft) 95,65 %
20.09.2020 14:41 19,7 C 68 % 1017,3 hPa 0,0 l/m 8,0 km/h (2 Bft) S-SO 157 1 min 0,000 mm 3,1 UV-I 575 W/m 13,6 C 19,7 C 9,7 km/h (2 Bft) 100,00 %
20.09.2020 14:40 19,7 C 65 % 1017,3 hPa 0,0 l/m 6,4 km/h (2 Bft) SO 135 1 min 0,000 mm 3,1 UV-I 575 W/m 12,9 C 19,7 C 9,7 km/h (2 Bft) 95,65 %
20.09.2020 14:39 19,7 C 68 % 1017,4 hPa 0,0 l/m 4,8 km/h (1 Bft) SO 135 1 min 0,000 mm 3,1 UV-I 577 W/m 13,6 C 19,7 C 8,0 km/h (2 Bft) 95,65 %
20.09.2020 14:38 19,6 C 66 % 1017,4 hPa 0,0 l/m 6,4 km/h (2 Bft) S-SO 157 1 min 0,000 mm 3,1 UV-I 577 W/m 13,1 C 19,6 C 9,7 km/h (2 Bft) 95,65 %
20.09.2020 14:37 19,6 C 67 % 1017,4 hPa 0,0 l/m 4,8 km/h (1 Bft) S-SO 157 1 min 0,000 mm 3,1 UV-I 578 W/m 13,3 C 19,6 C 6,4 km/h (2 Bft) 100,00 %
20.09.2020 14:36 19,6 C 69 % 1017,4 hPa 0,0 l/m 6,4 km/h (2 Bft) SO 135 1 min 0,000 mm 3,1 UV-I 580 W/m 13,8 C 19,6 C 8,0 km/h (2 Bft) 95,65 %
20.09.2020 14:35 19,6 C 68 % 1017,4 hPa 0,0 l/m 6,4 km/h (2 Bft) S-SO 157 1 min 0,000 mm 3,2 UV-I 582 W/m 13,5 C 19,6 C 9,7 km/h (2 Bft) 100,00 %
20.09.2020 14:34 19,5 C 68 % 1017,3 hPa 0,0 l/m 8,0 km/h (2 Bft) S-SO 157 1 min 0,000 mm 3,2 UV-I 584 W/m 13,4 C 19,5 C 12,9 km/h (3 Bft) 91,30 %
20.09.2020 14:33 19,7 C 67 % 1017,4 hPa 0,0 l/m 3,2 km/h (1 Bft) S 180 1 min 0,000 mm 3,2 UV-I 585 W/m 13,4 C 19,7 C 4,8 km/h (1 Bft) 95,65 %
20.09.2020 14:32 19,7 C 68 % 1017,4 hPa 0,0 l/m 3,2 km/h (1 Bft) S-SO 157 1 min 0,000 mm 3,2 UV-I 587 W/m 13,6 C 19,7 C 8,0 km/h (2 Bft) 95,65 %
20.09.2020 14:31 19,7 C 67 % 1017,4 hPa 0,0 l/m 8,0 km/h (2 Bft) S-SO 157 1 min 0,000 mm 3,2 UV-I 589 W/m 13,4 C 19,7 C 11,3 km/h (2 Bft) 95,65 %
20.09.2020 14:30 19,6 C 67 % 1017,4 hPa 0,0 l/m 8,0 km/h (2 Bft) SO 135 1 min 0,000 mm 3,2 UV-I 591 W/m 13,3 C 19,6 C 12,9 km/h (3 Bft) 95,65 %
20.09.2020 14:29 19,5 C 67 % 1017,4 hPa 0,0 l/m 4,8 km/h (1 Bft) S-SO 157 1 min 0,000 mm 3,3 UV-I 592 W/m 13,2 C 19,5 C 8,0 km/h (2 Bft) 95,65 %
20.09.2020 14:28 19,6 C 66 % 1017,5 hPa 0,0 l/m 8,0 km/h (2 Bft) S-SO 157 1 min 0,000 mm 3,3 UV-I 594 W/m 13,1 C 19,6 C 12,9 km/h (3 Bft) 100,00 %
20.09.2020 14:27 19,6 C 68 % 1017,5 hPa 0,0 l/m 6,4 km/h (2 Bft) O 90 1 min 0,000 mm 3,3 UV-I 594 W/m 13,5 C 19,6 C 11,3 km/h (2 Bft) 95,65 %
20.09.2020 14:26 19,4 C 66 % 1017,4 hPa 0,0 l/m 6,4 km/h (2 Bft) O 90 1 min 0,000 mm 3,3 UV-I 596 W/m 12,9 C 19,4 C 9,7 km/h (2 Bft) 95,65 %
20.09.2020 14:25 19,5 C 67 % 1017,4 hPa 0,0 l/m 6,4 km/h (2 Bft) O-SO 112 1 min 0,000 mm 3,3 UV-I 598 W/m 13,2 C 19,5 C 11,3 km/h (2 Bft) 95,65 %
20.09.2020 14:24 19,4 C 70 % 1017,5 hPa 0,0 l/m 8,0 km/h (2 Bft) O-SO 112 1 min 0,000 mm 3,3 UV-I 599 W/m 13,8 C 19,4 C 12,9 km/h (3 Bft) 95,65 %
20.09.2020 14:23 19,3 C 69 % 1017,5 hPa 0,0 l/m 8,0 km/h (2 Bft) O-SO 112 1 min 0,000 mm 3,3 UV-I 601 W/m 13,5 C 19,3 C 11,3 km/h (2 Bft) 100,00 %
20.09.2020 14:22 19,1 C 68 % 1017,5 hPa 0,0 l/m 8,0 km/h (2 Bft) S-SO 157 1 min 0,000 mm 3,3 UV-I 603 W/m 13,1 C 19,1 C 11,3 km/h (2 Bft) 91,30 %
20.09.2020 14:21 19,1 C 68 % 1017,5 hPa 0,0 l/m 6,4 km/h (2 Bft) S-SO 157 1 min 0,000 mm 3,4 UV-I 603 W/m 13,1 C 19,1 C 9,7 km/h (2 Bft) 100,00 %
20.09.2020 14:20 19,2 C 69 % 1017,4 hPa 0,0 l/m 6,4 km/h (2 Bft) S-SO 157 1 min 0,000 mm 3,4 UV-I 605 W/m 13,4 C 19,2 C 8,0 km/h (2 Bft) 95,65 %
20.09.2020 14:19 19,2 C 67 % 1017,5 hPa 0,0 l/m 8,0 km/h (2 Bft) SO 135 1 min 0,000 mm 3,4 UV-I 606 W/m 12,9 C 19,2 C 12,9 km/h (3 Bft) 100,00 %
20.09.2020 14:18 19,2 C 67 % 1017,5 hPa 0,0 l/m 8,0 km/h (2 Bft) SO 135 1 min 0,000 mm 3,4 UV-I 606 W/m 12,9 C 19,2 C 12,9 km/h (3 Bft) 86,96 %
20.09.2020 14:17 19,2 C 66 % 1017,6 hPa 0,0 l/m 3,2 km/h (1 Bft) O-SO 112 1 min 0,000 mm 3,4 UV-I 610 W/m 12,7 C 19,2 C 6,4 km/h (2 Bft) 100,00 %
20.09.2020 14:16 19,2 C 68 % 1017,5 hPa 0,0 l/m 4,8 km/h (1 Bft) O-SO 112 1 min 0,000 mm 3,4 UV-I 612 W/m 13,1 C 19,2 C 9,7 km/h (2 Bft) 95,65 %
20.09.2020 14:15 19,2 C 67 % 1017,6 hPa 0,0 l/m 1,6 km/h (1 Bft) O-SO 112 1 min 0,000 mm 3,4 UV-I 612 W/m 12,9 C 19,2 C 3,2 km/h (1 Bft) 100,00 %
20.09.2020 14:14 19,3 C 67 % 1017,5 hPa 0,0 l/m 4,8 km/h (1 Bft) O-SO 112 1 min 0,000 mm 3,4 UV-I 612 W/m 13,0 C 19,3 C 11,3 km/h (2 Bft) 100,00 %
20.09.2020 14:13 19,3 C 71 % 1017,6 hPa 0,0 l/m 4,8 km/h (1 Bft) S-SO 157 1 min 0,000 mm 3,5 UV-I 612 W/m 13,9 C 19,3 C 6,4 km/h (2 Bft) 100,00 %
20.09.2020 14:12 19,3 C 69 % 1017,5 hPa 0,0 l/m 4,8 km/h (1 Bft) SO 135 1 min 0,000 mm 3,5 UV-I 615 W/m 13,5 C 19,3 C 11,3 km/h (2 Bft) 100,00 %
20.09.2020 14:11 19,3 C 69 % 1017,5 hPa 0,0 l/m 4,8 km/h (1 Bft) S-SO 157 1 min 0,000 mm 3,5 UV-I 617 W/m 13,5 C 19,3 C 8,0 km/h (2 Bft) 95,65 %
20.09.2020 14:10 19,3 C 70 % 1017,5 hPa 0,0 l/m 8,0 km/h (2 Bft) S-SO 157 1 min 0,000 mm 3,5 UV-I 617 W/m 13,7 C 19,3 C 12,9 km/h (3 Bft) 100,00 %
20.09.2020 14:09 19,2 C 71 % 1017,5 hPa 0,0 l/m 9,7 km/h (2 Bft) S-SO 157 1 min 0,000 mm 3,5 UV-I 617 W/m 13,8 C 19,2 C 12,9 km/h (3 Bft) 100,00 %
20.09.2020 14:08 19,1 C 68 % 1017,5 hPa 0,0 l/m 8,0 km/h (2 Bft) S-SO 157 1 min 0,000 mm 3,5 UV-I 619 W/m 13,1 C 19,1 C 11,3 km/h (2 Bft) 100,00 %
20.09.2020 14:07 19,0 C 70 % 1017,5 hPa 0,0 l/m 8,0 km/h (2 Bft) SO 135 1 min 0,000 mm 3,5 UV-I 621 W/m 13,4 C 19,0 C 12,9 km/h (3 Bft) 95,65 %
20.09.2020 14:06 18,9 C 69 % 1017,5 hPa 0,0 l/m 6,4 km/h (2 Bft) SO 135 1 min 0,000 mm 3,6 UV-I 621 W/m 13,1 C 18,9 C 11,3 km/h (2 Bft) 100,00 %
20.09.2020 14:05 18,8 C 71 % 1017,5 hPa 0,0 l/m 6,4 km/h (2 Bft) SO 135 1 min 0,000 mm 3,6 UV-I 622 W/m 13,4 C 18,8 C 8,0 km/h (2 Bft) 100,00 %
20.09.2020 14:04 18,9 C 67 % 1017,4 hPa 0,0 l/m 8,0 km/h (2 Bft) S-SO 157 1 min 0,000 mm 3,6 UV-I 622 W/m 12,6 C 18,9 C 11,3 km/h (2 Bft) 91,30 %
20.09.2020 14:03 19,1 C 70 % 1017,5 hPa 0,0 l/m 9,7 km/h (2 Bft) SO 135 1 min 0,000 mm 3,6 UV-I 624 W/m 13,5 C 19,1 C 12,9 km/h (3 Bft) 100,00 %
20.09.2020 14:02 19,1 C 72 % 1017,5 hPa 0,0 l/m 8,0 km/h (2 Bft) O-SO 112 1 min 0,000 mm 3,6 UV-I 624 W/m 13,9 C 19,1 C 16,1 km/h (3 Bft) 100,00 %
20.09.2020 14:01 19,0 C 70 % 1017,5 hPa 0,0 l/m 9,7 km/h (2 Bft) S-SO 157 1 min 0,000 mm 3,6 UV-I 624 W/m 13,4 C 19,0 C 12,9 km/h (3 Bft) 100,00 %
20.09.2020 14:00 18,8 C 69 % 1017,5 hPa 0,0 l/m 6,4 km/h (2 Bft) SO 135 1 min 0,381 mm 3,6 UV-I 626 W/m 13,0 C 18,8 C 9,7 km/h (2 Bft) 100,00 %
20.09.2020 13:59 18,8 C 70 % 1017,5 hPa 0,0 l/m 8,0 km/h (2 Bft) SO 135 1 min 0,000 mm 3,6 UV-I 626 W/m 13,2 C 18,8 C 11,3 km/h (2 Bft) 100,00 %
20.09.2020 13:58 18,7 C 73 % 1017,6 hPa 0,0 l/m 11,3 km/h (2 Bft) SO 135 1 min 0,000 mm 3,6 UV-I 628 W/m 13,8 C 18,7 C 12,9 km/h (3 Bft) 100,00 %
20.09.2020 13:57 18,6 C 71 % 1017,6 hPa 0,0 l/m 9,7 km/h (2 Bft) S-SO 157 1 min 0,000 mm 3,6 UV-I 629 W/m 13,2 C 18,6 C 14,5 km/h (3 Bft) 95,65 %
20.09.2020 13:56 18,5 C 70 % 1017,6 hPa 0,0 l/m 6,4 km/h (2 Bft) S-SO 157 1 min 0,000 mm 3,6 UV-I 629 W/m 12,9 C 18,5 C 11,3 km/h (2 Bft) 100,00 %
20.09.2020 13:55 18,6 C 67 % 1017,5 hPa 0,0 l/m 9,7 km/h (2 Bft) SO 135 1 min 0,000 mm 3,6 UV-I 629 W/m 12,3 C 18,6 C 12,9 km/h (3 Bft) 100,00 %
20.09.2020 13:54 18,7 C 68 % 1017,6 hPa 0,0 l/m 4,8 km/h (1 Bft) O 90 1 min 0,000 mm 3,7 UV-I 631 W/m 12,7 C 18,7 C 9,7 km/h (2 Bft) 100,00 %
20.09.2020 13:53 18,7 C 69 % 1017,5 hPa 0,0 l/m 6,4 km/h (2 Bft) O 90 1 min 0,000 mm 3,7 UV-I 631 W/m 12,9 C 18,7 C 11,3 km/h (2 Bft) 100,00 %
20.09.2020 13:52 18,7 C 70 % 1017,6 hPa 0,0 l/m 12,9 km/h (3 Bft) S-SO 157 1 min 0,000 mm 3,7 UV-I 633 W/m 13,1 C 18,7 C 16,1 km/h (3 Bft) 95,65 %
20.09.2020 13:51 18,7 C 71 % 1017,6 hPa 0,0 l/m 6,4 km/h (2 Bft) SO 135 1 min 0,000 mm 3,7 UV-I 633 W/m 13,3 C 18,7 C 11,3 km/h (2 Bft) 100,00 %
20.09.2020 13:50 18,6 C 72 % 1017,5 hPa 0,0 l/m 6,4 km/h (2 Bft) SO 135 1 min 0,000 mm 3,7 UV-I 633 W/m 13,4 C 18,6 C 11,3 km/h (2 Bft) 95,65 %
20.09.2020 13:49 18,4 C 70 % 1017,6 hPa 0,0 l/m 8,0 km/h (2 Bft) SO 135 1 min 0,000 mm 3,7 UV-I 636 W/m 12,8 C 18,4 C 11,3 km/h (2 Bft) 100,00 %
20.09.2020 13:48 18,3 C 71 % 1017,6 hPa 0,0 l/m 8,0 km/h (2 Bft) O 90 1 min 0,000 mm 3,7 UV-I 638 W/m 12,9 C 18,3 C 14,5 km/h (3 Bft) 100,00 %
20.09.2020 13:47 18,3 C 70 % 1017,6 hPa 0,0 l/m 9,7 km/h (2 Bft) SO 135 1 min 0,000 mm 3,7 UV-I 638 W/m 12,7 C 18,3 C 12,9 km/h (3 Bft) 100,00 %
20.09.2020 13:46 18,3 C 71 % 1017,5 hPa 0,0 l/m 6,4 km/h (2 Bft) O-SO 112 1 min 0,000 mm 3,7 UV-I 638 W/m 12,9 C 18,3 C 11,3 km/h (2 Bft) 100,00 %
20.09.2020 13:45 18,2 C 71 % 1017,5 hPa 0,0 l/m 8,0 km/h (2 Bft) SO 135 1 min 0,000 mm 3,7 UV-I 638 W/m 12,9 C 18,2 C 12,9 km/h (3 Bft) 100,00 %
20.09.2020 13:44 18,1 C 69 % 1017,6 hPa 0,0 l/m 8,0 km/h (2 Bft) S-SO 157 1 min 0,000 mm 3,7 UV-I 638 W/m 12,3 C 18,1 C 12,9 km/h (3 Bft) 100,00 %
20.09.2020 13:43 18,2 C 71 % 1017,5 hPa 0,0 l/m 11,3 km/h (2 Bft) SO 135 1 min 0,000 mm 3,7 UV-I 638 W/m 12,9 C 18,2 C 16,1 km/h (3 Bft) 95,65 %
20.09.2020 13:42 18,3 C 69 % 1017,5 hPa 0,0 l/m 6,4 km/h (2 Bft) SO 135 1 min 0,000 mm 3,7 UV-I 638 W/m 12,5 C 18,3 C 12,9 km/h (3 Bft) 100,00 %
20.09.2020 13:41 18,4 C 74 % 1017,6 hPa 0,0 l/m 6,4 km/h (2 Bft) SO 135 1 min 0,000 mm 3,8 UV-I 642 W/m 13,7 C 18,4 C 8,0 km/h (2 Bft) 95,65 %
20.09.2020 13:40 18,3 C 74 % 1017,6 hPa 0,0 l/m 11,3 km/h (2 Bft) O 90 1 min 0,000 mm 3,8 UV-I 642 W/m 13,6 C 18,3 C 16,1 km/h (3 Bft) 95,65 %
20.09.2020 13:39 18,2 C 69 % 1017,5 hPa 0,0 l/m 6,4 km/h (2 Bft) S-SO 157 1 min 0,000 mm 3,8 UV-I 642 W/m 12,4 C 18,2 C 11,3 km/h (2 Bft) 100,00 %
20.09.2020 13:38 18,2 C 69 % 1017,6 hPa 0,0 l/m 8,0 km/h (2 Bft) S 180 1 min 0,000 mm 3,8 UV-I 642 W/m 12,4 C 18,2 C 14,5 km/h (3 Bft) 100,00 %
20.09.2020 13:37 18,2 C 69 % 1017,6 hPa 0,0 l/m 8,0 km/h (2 Bft) SO 135 1 min 0,000 mm 3,8 UV-I 643 W/m 12,4 C 18,2 C 14,5 km/h (3 Bft) 100,00 %
20.09.2020 13:36 18,2 C 69 % 1017,5 hPa 0,0 l/m 6,4 km/h (2 Bft) SO 135 1 min 0,000 mm 3,8 UV-I 643 W/m 12,4 C 18,2 C 9,7 km/h (2 Bft) 95,65 %
20.09.2020 13:35 18,3 C 68 % 1017,7 hPa 0,0 l/m 8,0 km/h (2 Bft) SO 135 1 min 0,000 mm 3,8 UV-I 643 W/m 12,3 C 18,3 C 12,9 km/h (3 Bft) 100,00 %
20.09.2020 13:34 18,3 C 72 % 1017,6 hPa 0,0 l/m 9,7 km/h (2 Bft) S-SO 157 1 min 0,000 mm 3,8 UV-I 645 W/m 13,2 C 18,3 C 14,5 km/h (3 Bft) 100,00 %
20.09.2020 13:33 18,2 C 68 % 1017,7 hPa 0,0 l/m 9,7 km/h (2 Bft) SO 135 1 min 0,000 mm 3,8 UV-I 645 W/m 12,2 C 18,2 C 14,5 km/h (3 Bft) 100,00 %
20.09.2020 13:32 18,3 C 70 % 1017,7 hPa 0,0 l/m 9,7 km/h (2 Bft) S-SO 157 1 min 0,000 mm 3,8 UV-I 645 W/m 12,7 C 18,3 C 16,1 km/h (3 Bft) 100,00 %
20.09.2020 13:31 18,3 C 69 % 1017,7 hPa 0,0 l/m 12,9 km/h (3 Bft) SO 135 1 min 0,000 mm 3,8 UV-I 647 W/m 12,5 C 18,3 C 17,7 km/h (3 Bft) 100,00 %
20.09.2020 13:30 18,3 C 71 % 1017,7 hPa 0,0 l/m 14,5 km/h (3 Bft) SO 135 1 min 0,000 mm 3,8 UV-I 647 W/m 12,9 C 18,3 C 17,7 km/h (3 Bft) 95,65 %
20.09.2020 13:29 18,3 C 70 % 1017,7 hPa 0,0 l/m 11,3 km/h (2 Bft) SO 135 1 min 0,000 mm 3,8 UV-I 647 W/m 12,7 C 18,3 C 16,1 km/h (3 Bft) 100,00 %
20.09.2020 13:28 18,1 C 71 % 1017,7 hPa 0,0 l/m 8,0 km/h (2 Bft) SO 135 1 min 0,000 mm 3,8 UV-I 649 W/m 12,8 C 18,1 C 12,9 km/h (3 Bft) 91,30 %
20.09.2020 13:27 18,0 C 71 % 1017,7 hPa 0,0 l/m 8,0 km/h (2 Bft) SO 135 1 min 0,000 mm 3,8 UV-I 649 W/m 12,7 C 18,0 C 11,3 km/h (2 Bft) 100,00 %
20.09.2020 13:26 17,9 C 69 % 1017,7 hPa 0,0 l/m 9,7 km/h (2 Bft) SO 135 1 min 0,000 mm 3,8 UV-I 649 W/m 12,1 C 17,9 C 14,5 km/h (3 Bft) 100,00 %
20.09.2020 13:25 17,9 C 72 % 1017,7 hPa 0,0 l/m 8,0 km/h (2 Bft) SO 135 1 min 0,000 mm 3,8 UV-I 650 W/m 12,8 C 17,9 C 17,7 km/h (3 Bft) 100,00 %
20.09.2020 13:24 17,9 C 69 % 1017,7 hPa 0,0 l/m 9,7 km/h (2 Bft) S-SO 157 1 min 0,000 mm 3,9 UV-I 652 W/m 12,1 C 17,9 C 17,7 km/h (3 Bft) 100,00 %
20.09.2020 13:23 18,0 C 70 % 1017,7 hPa 0,0 l/m 9,7 km/h (2 Bft) S-SO 157 1 min 0,000 mm 3,9 UV-I 652 W/m 12,4 C 18,0 C 12,9 km/h (3 Bft) 100,00 %
20.09.2020 13:22 18,1 C 71 % 1017,7 hPa 0,0 l/m 11,3 km/h (2 Bft) S-SO 157 1 min 0,000 mm 3,9 UV-I 652 W/m 12,8 C 18,1 C 14,5 km/h (3 Bft) 91,30 %
20.09.2020 13:21 17,9 C 71 % 1017,8 hPa 0,0 l/m 11,3 km/h (2 Bft) SO 135 1 min 0,000 mm 3,9 UV-I 652 W/m 12,6 C 17,9 C 14,5 km/h (3 Bft) 95,65 %
20.09.2020 13:20 18,0 C 70 % 1017,7 hPa 0,0 l/m 9,7 km/h (2 Bft) SO 135 1 min 0,000 mm 3,9 UV-I 654 W/m 12,4 C 18,0 C 14,5 km/h (3 Bft) 100,00 %
20.09.2020 13:19 18,1 C 69 % 1017,8 hPa 0,0 l/m 4,8 km/h (1 Bft) SO 135 1 min 0,000 mm 3,9 UV-I 652 W/m 12,3 C 18,1 C 9,7 km/h (2 Bft) 100,00 %
20.09.2020 13:18 18,2 C 70 % 1017,7 hPa 0,0 l/m 9,7 km/h (2 Bft) SO 135 1 min 0,000 mm 3,9 UV-I 652 W/m 12,6 C 18,2 C 14,5 km/h (3 Bft) 100,00 %
20.09.2020 13:17 18,3 C 69 % 1017,8 hPa 0,0 l/m 8,0 km/h (2 Bft) O 90 1 min 0,000 mm 3,9 UV-I 654 W/m 12,5 C 18,3 C 11,3 km/h (2 Bft) 100,00 %
20.09.2020 13:16 18,3 C 71 % 1017,8 hPa 0,0 l/m 4,8 km/h (1 Bft) SO 135 1 min 0,000 mm 3,9 UV-I 654 W/m 12,9 C 18,3 C 9,7 km/h (2 Bft) 100,00 %
20.09.2020 13:15 18,3 C 71 % 1017,8 hPa 0,0 l/m 6,4 km/h (2 Bft) SO 135 1 min 0,000 mm 3,9 UV-I 654 W/m 12,9 C 18,3 C 9,7 km/h (2 Bft) 100,00 %
20.09.2020 13:14 18,2 C 72 % 1017,8 hPa 0,0 l/m 8,0 km/h (2 Bft) SO 135 1 min 0,000 mm 3,9 UV-I 654 W/m 13,1 C 18,2 C 11,3 km/h (2 Bft) 91,30 %
20.09.2020 13:13 18,2 C 73 % 1017,8 hPa 0,0 l/m 9,7 km/h (2 Bft) S-SO 157 1 min 0,000 mm 3,9 UV-I 654 W/m 13,3 C 18,2 C 12,9 km/h (3 Bft) 100,00 %
20.09.2020 13:12 18,2 C 70 % 1017,7 hPa 0,0 l/m 6,4 km/h (2 Bft) S-SO 157 1 min 0,000 mm 3,9 UV-I 654 W/m 12,6 C 18,2 C 9,7 km/h (2 Bft) 100,00 %
20.09.2020 13:11 18,2 C 71 % 1017,8 hPa 0,0 l/m 4,8 km/h (1 Bft) S-SO 157 1 min 0,000 mm 3,9 UV-I 654 W/m 12,9 C 18,2 C 9,7 km/h (2 Bft) 100,00 %
20.09.2020 13:10 18,2 C 73 % 1017,7 hPa 0,0 l/m 6,4 km/h (2 Bft) S-SO 157 1 min 0,000 mm 3,9 UV-I 654 W/m 13,3 C 18,2 C 11,3 km/h (2 Bft) 95,65 %
20.09.2020 13:09 18,1 C 75 % 1017,7 hPa 0,0 l/m 8,0 km/h (2 Bft) S-SO 157 1 min 0,000 mm 3,9 UV-I 652 W/m 13,6 C 18,1 C 9,7 km/h (2 Bft) 100,00 %
20.09.2020 13:08 17,8 C 75 % 1017,7 hPa 0,0 l/m 6,4 km/h (2 Bft) S-SO 157 1 min 0,000 mm 3,9 UV-I 656 W/m 13,3 C 17,8 C 9,7 km/h (2 Bft) 100,00 %
20.09.2020 13:07 17,8 C 71 % 1017,7 hPa 0,0 l/m 8,0 km/h (2 Bft) S-SO 157 1 min 0,000 mm 3,9 UV-I 657 W/m 12,5 C 17,8 C 11,3 km/h (2 Bft) 91,30 %
20.09.2020 13:06 17,8 C 72 % 1017,7 hPa 0,0 l/m 4,8 km/h (1 Bft) S-SO 157 1 min 0,000 mm 3,9 UV-I 656 W/m 12,7 C 17,8 C 8,0 km/h (2 Bft) 95,65 %
20.09.2020 13:05 17,7 C 72 % 1017,6 hPa 0,0 l/m 4,8 km/h (1 Bft) S-SO 157 1 min 0,000 mm 3,9 UV-I 659 W/m 12,6 C 17,7 C 9,7 km/h (2 Bft) 100,00 %
20.09.2020 13:04 17,6 C 71 % 1017,7 hPa 0,0 l/m 6,4 km/h (2 Bft) S-SO 157 1 min 0,000 mm 3,9 UV-I 657 W/m 12,3 C 17,6 C 8,0 km/h (2 Bft) 100,00 %
20.09.2020 13:03 17,6 C 72 % 1017,7 hPa 0,0 l/m 4,8 km/h (1 Bft) S-SO 157 1 min 0,000 mm 3,9 UV-I 657 W/m 12,5 C 17,6 C 8,0 km/h (2 Bft) 100,00 %
20.09.2020 13:02 17,5 C 73 % 1017,6 hPa 0,0 l/m 3,2 km/h (1 Bft) O-SO 112 1 min 0,000 mm 3,9 UV-I 657 W/m 12,6 C 17,5 C 4,8 km/h (1 Bft) 100,00 %
20.09.2020 13:01 17,5 C 71 % 1017,7 hPa 0,0 l/m 3,2 km/h (1 Bft) O-SO 112 1 min 0,000 mm 3,9 UV-I 657 W/m 12,2 C 17,5 C 6,4 km/h (2 Bft) 100,00 %
20.09.2020 13:00 17,6 C 71 % 1017,7 hPa 0,0 l/m 4,8 km/h (1 Bft) O-SO 112 1 min 0,381 mm 3,9 UV-I 657 W/m 12,3 C 17,6 C 9,7 km/h (2 Bft) 91,30 %
20.09.2020 12:59 17,6 C 72 % 1017,7 hPa 0,0 l/m 9,7 km/h (2 Bft) SO 135 1 min 0,000 mm 3,9 UV-I 657 W/m 12,5 C 17,6 C 12,9 km/h (3 Bft) 100,00 %
20.09.2020 12:58 17,7 C 69 % 1017,7 hPa 0,0 l/m 4,8 km/h (1 Bft) SO 135 1 min 0,000 mm 3,9 UV-I 659 W/m 11,9 C 17,7 C 12,9 km/h (3 Bft) 100,00 %
20.09.2020 12:57 17,9 C 71 % 1017,7 hPa 0,0 l/m 4,8 km/h (1 Bft) O-SO 112 1 min 0,000 mm 3,9 UV-I 659 W/m 12,6 C 17,9 C 9,7 km/h (2 Bft) 95,65 %
20.09.2020 12:56 18,0 C 71 % 1017,7 hPa 0,0 l/m 6,4 km/h (2 Bft) SO 135 1 min 0,000 mm 3,9 UV-I 659 W/m 12,7 C 18,0 C 11,3 km/h (2 Bft) 100,00 %
20.09.2020 12:55 17,9 C 73 % 1017,6 hPa 0,0 l/m 9,7 km/h (2 Bft) SO 135 1 min 0,000 mm 3,9 UV-I 659 W/m 13,0 C 17,9 C 12,9 km/h (3 Bft) 100,00 %
20.09.2020 12:54 17,8 C 74 % 1017,7 hPa 0,0 l/m 6,4 km/h (2 Bft) SO 135 1 min 0,000 mm 3,9 UV-I 659 W/m 13,1 C 17,8 C 8,0 km/h (2 Bft) 100,00 %
20.09.2020 12:53 17,8 C 74 % 1017,7 hPa 0,0 l/m 6,4 km/h (2 Bft) S-SO 157 1 min 0,000 mm 3,9 UV-I 659 W/m 13,1 C 17,8 C 12,9 km/h (3 Bft) 95,65 %
20.09.2020 12:52 17,7 C 73 % 1017,6 hPa 0,0 l/m 4,8 km/h (1 Bft) S-SO 157 1 min 0,000 mm 3,9 UV-I 659 W/m 12,8 C 17,7 C 8,0 km/h (2 Bft) 91,30 %
20.09.2020 12:51 17,7 C 73 % 1017,7 hPa 0,0 l/m 4,8 km/h (1 Bft) S-SO 157 1 min 0,000 mm 3,9 UV-I 661 W/m 12,8 C 17,7 C 8,0 km/h (2 Bft) 91,30 %
20.09.2020 12:50 17,7 C 71 % 1017,7 hPa 0,0 l/m 6,4 km/h (2 Bft) SO 135 1 min 0,000 mm 3,9 UV-I 661 W/m 12,4 C 17,7 C 9,7 km/h (2 Bft) 95,65 %
20.09.2020 12:49 17,8 C 70 % 1017,7 hPa 0,0 l/m 4,8 km/h (1 Bft) S-SO 157 1 min 0,000 mm 3,9 UV-I 659 W/m 12,3 C 17,8 C 6,4 km/h (2 Bft) 95,65 %
20.09.2020 12:48 17,9 C 70 % 1017,7 hPa 0,0 l/m 4,8 km/h (1 Bft) SO 135 1 min 0,000 mm 3,9 UV-I 661 W/m 12,3 C 17,9 C 6,4 km/h (2 Bft) 95,65 %
20.09.2020 12:47 17,9 C 74 % 1017,7 hPa 0,0 l/m 3,2 km/h (1 Bft) O-SO 112 1 min 0,000 mm 3,9 UV-I 663 W/m 13,2 C 17,9 C 6,4 km/h (2 Bft) 95,65 %
20.09.2020 12:46 17,8 C 72 % 1017,5 hPa 0,0 l/m 9,7 km/h (2 Bft) SO 135 1 min 0,000 mm 3,9 UV-I 661 W/m 12,7 C 17,8 C 12,9 km/h (3 Bft) 95,65 %
20.09.2020 12:45 17,7 C 72 % 1017,7 hPa 0,0 l/m 4,8 km/h (1 Bft) SO 135 1 min 0,000 mm 3,9 UV-I 661 W/m 12,6 C 17,7 C 8,0 km/h (2 Bft) 95,65 %
20.09.2020 12:44 17,6 C 73 % 1017,7 hPa 0,0 l/m 4,8 km/h (1 Bft) SO 135 1 min 0,000 mm 3,9 UV-I 659 W/m 12,7 C 17,6 C 6,4 km/h (2 Bft) 95,65 %
20.09.2020 12:43 17,5 C 72 % 1017,7 hPa 0,0 l/m 6,4 km/h (2 Bft) SO 135 1 min 0,000 mm 3,9 UV-I 659 W/m 12,4 C 17,5 C 12,9 km/h (3 Bft) 95,65 %
20.09.2020 12:42 17,6 C 72 % 1017,6 hPa 0,0 l/m 6,4 km/h (2 Bft) SO 135 1 min 0,000 mm 3,9 UV-I 657 W/m 12,5 C 17,6 C 11,3 km/h (2 Bft) 95,65 %
20.09.2020 12:41 17,6 C 74 % 1017,6 hPa 0,0 l/m 9,7 km/h (2 Bft) SO 135 1 min 0,000 mm 3,9 UV-I 661 W/m 12,9 C 17,6 C 14,5 km/h (3 Bft) 100,00 %
20.09.2020 12:40 17,6 C 72 % 1017,6 hPa 0,0 l/m 3,2 km/h (1 Bft) O-SO 112 1 min 0,000 mm 3,9 UV-I 659 W/m 12,5 C 17,6 C 6,4 km/h (2 Bft) 95,65 %
20.09.2020 12:39 17,6 C 72 % 1017,5 hPa 0,0 l/m 1,6 km/h (1 Bft) O-SO 112 1 min 0,000 mm 3,9 UV-I 661 W/m 12,5 C 17,6 C 3,2 km/h (1 Bft) 95,65 %
20.09.2020 12:38 17,8 C 71 % 1017,7 hPa 0,0 l/m 4,8 km/h (1 Bft) O-SO 112 1 min 0,000 mm 3,9 UV-I 659 W/m 12,5 C 17,8 C 8,0 km/h (2 Bft) 95,65 %
20.09.2020 12:37 17,8 C 72 % 1017,6 hPa 0,0 l/m 3,2 km/h (1 Bft) S-SO 157 1 min 0,000 mm 3,9 UV-I 659 W/m 12,7 C 17,8 C 6,4 km/h (2 Bft) 100,00 %
20.09.2020 12:36 17,8 C 73 % 1017,6 hPa 0,0 l/m 4,8 km/h (1 Bft) SO 135 1 min 0,000 mm 3,9 UV-I 659 W/m 12,9 C 17,8 C 6,4 km/h (2 Bft) 95,65 %
20.09.2020 12:35 17,8 C 74 % 1017,7 hPa 0,0 l/m 1,6 km/h (1 Bft) SO 135 1 min 0,000 mm 3,9 UV-I 659 W/m 13,1 C 17,8 C 4,8 km/h (1 Bft) 95,65 %
20.09.2020 12:34 17,7 C 76 % 1017,7 hPa 0,0 l/m 1,6 km/h (1 Bft) SO 135 1 min 0,000 mm 3,9 UV-I 657 W/m 13,4 C 17,7 C 3,2 km/h (1 Bft) 95,65 %
20.09.2020 12:33 17,4 C 74 % 1017,7 hPa 0,0 l/m 3,2 km/h (1 Bft) O-SO 112 1 min 0,000 mm 3,9 UV-I 657 W/m 12,7 C 17,4 C 6,4 km/h (2 Bft) 95,65 %
20.09.2020 12:32 17,3 C 74 % 1017,7 hPa 0,0 l/m 4,8 km/h (1 Bft) O-SO 112 1 min 0,000 mm 3,9 UV-I 656 W/m 12,6 C 17,3 C 9,7 km/h (2 Bft) 95,65 %
20.09.2020 12:31 17,2 C 73 % 1017,7 hPa 0,0 l/m 4,8 km/h (1 Bft) O-SO 112 1 min 0,000 mm 3,9 UV-I 657 W/m 12,3 C 17,2 C 8,0 km/h (2 Bft) 95,65 %
20.09.2020 12:30 17,2 C 72 % 1017,7 hPa 0,0 l/m 8,0 km/h (2 Bft) O-SO 112 1 min 0,000 mm 3,9 UV-I 656 W/m 12,1 C 17,2 C 11,3 km/h (2 Bft) 95,65 %
20.09.2020 12:29 17,3 C 73 % 1017,7 hPa 0,0 l/m 8,0 km/h (2 Bft) O-SO 112 1 min 0,000 mm 3,9 UV-I 654 W/m 12,4 C 17,3 C 11,3 km/h (2 Bft) 95,65 %
20.09.2020 12:28 17,3 C 72 % 1017,7 hPa 0,0 l/m 6,4 km/h (2 Bft) O-SO 112 1 min 0,000 mm 3,9 UV-I 656 W/m 12,2 C 17,3 C 11,3 km/h (2 Bft) 100,00 %
20.09.2020 12:27 17,4 C 75 % 1017,7 hPa 0,0 l/m 3,2 km/h (1 Bft) O-SO 112 1 min 0,000 mm 3,9 UV-I 656 W/m 12,9 C 17,4 C 6,4 km/h (2 Bft) 95,65 %
20.09.2020 12:26 17,3 C 78 % 1017,6 hPa 0,0 l/m 3,2 km/h (1 Bft) S-SO 157 1 min 0,000 mm 3,9 UV-I 656 W/m 13,4 C 17,3 C 6,4 km/h (2 Bft) 100,00 %
20.09.2020 12:25 17,1 C 74 % 1017,7 hPa 0,0 l/m 3,2 km/h (1 Bft) O-SO 112 1 min 0,000 mm 3,9 UV-I 654 W/m 12,4 C 17,1 C 6,4 km/h (2 Bft) 91,30 %
20.09.2020 12:24 17,1 C 73 % 1017,7 hPa 0,0 l/m 3,2 km/h (1 Bft) O-SO 112 1 min 0,000 mm 3,9 UV-I 656 W/m 12,2 C 17,1 C 6,4 km/h (2 Bft) 91,30 %
20.09.2020 12:23 17,2 C 74 % 1017,7 hPa 0,0 l/m 6,4 km/h (2 Bft) SO 135 1 min 0,000 mm 3,9 UV-I 656 W/m 12,5 C 17,2 C 8,0 km/h (2 Bft) 100,00 %
20.09.2020 12:22 17,2 C 75 % 1017,6 hPa 0,0 l/m 8,0 km/h (2 Bft) SO 135 1 min 0,000 mm 3,8 UV-I 654 W/m 12,7 C 17,2 C 12,9 km/h (3 Bft) 95,65 %
20.09.2020 12:21 17,1 C 75 % 1017,7 hPa 0,0 l/m 6,4 km/h (2 Bft) SO 135 1 min 0,000 mm 3,8 UV-I 654 W/m 12,6 C 17,1 C 12,9 km/h (3 Bft) 100,00 %
20.09.2020 12:20 17,1 C 73 % 1017,6 hPa 0,0 l/m 1,6 km/h (1 Bft) SO 135 1 min 0,000 mm 3,8 UV-I 654 W/m 12,2 C 17,1 C 4,8 km/h (1 Bft) 95,65 %
20.09.2020 12:19 17,2 C 73 % 1017,6 hPa 0,0 l/m 4,8 km/h (1 Bft) S-SO 157 1 min 0,000 mm 3,8 UV-I 656 W/m 12,3 C 17,2 C 8,0 km/h (2 Bft) 100,00 %
20.09.2020 12:18 17,3 C 72 % 1017,6 hPa 0,0 l/m 6,4 km/h (2 Bft) SO 135 1 min 0,000 mm 3,8 UV-I 654 W/m 12,2 C 17,3 C 11,3 km/h (2 Bft) 91,30 %
20.09.2020 12:17 17,3 C 73 % 1017,6 hPa 0,0 l/m 4,8 km/h (1 Bft) SO 135 1 min 0,000 mm 3,8 UV-I 654 W/m 12,4 C 17,3 C 8,0 km/h (2 Bft) 100,00 %
20.09.2020 12:16 17,4 C 72 % 1017,6 hPa 0,0 l/m 9,7 km/h (2 Bft) O-SO 112 1 min 0,000 mm 3,8 UV-I 652 W/m 12,3 C 17,4 C 12,9 km/h (3 Bft) 95,65 %
20.09.2020 12:15 17,3 C 74 % 1017,6 hPa 0,0 l/m 4,8 km/h (1 Bft) O 90 1 min 0,000 mm 3,8 UV-I 652 W/m 12,6 C 17,3 C 8,0 km/h (2 Bft) 95,65 %
20.09.2020 12:14 17,3 C 72 % 1017,6 hPa 0,0 l/m 6,4 km/h (2 Bft) SO 135 1 min 0,000 mm 3,8 UV-I 649 W/m 12,2 C 17,3 C 9,7 km/h (2 Bft) 100,00 %
20.09.2020 12:13 17,3 C 73 % 1017,5 hPa 0,0 l/m 6,4 km/h (2 Bft) SO 135 1 min 0,000 mm 3,8 UV-I 649 W/m 12,4 C 17,3 C 11,3 km/h (2 Bft) 100,00 %
20.09.2020 12:12 17,3 C 75 % 1017,6 hPa 0,0 l/m 8,0 km/h (2 Bft) SO 135 1 min 0,000 mm 3,8 UV-I 647 W/m 12,8 C 17,3 C 11,3 km/h (2 Bft) 95,65 %
20.09.2020 12:11 17,2 C 75 % 1017,6 hPa 0,0 l/m 8,0 km/h (2 Bft) SO 135 1 min 0,000 mm 3,8 UV-I 647 W/m 12,7 C 17,2 C 12,9 km/h (3 Bft) 91,30 %
20.09.2020 12:10 17,1 C 77 % 1017,6 hPa 0,0 l/m 9,7 km/h (2 Bft) O-SO 112 1 min 0,000 mm 3,8 UV-I 647 W/m 13,0 C 17,1 C 12,9 km/h (3 Bft) 100,00 %
20.09.2020 12:09 16,8 C 75 % 1017,6 hPa 0,0 l/m 9,7 km/h (2 Bft) O-SO 112 1 min 0,000 mm 3,7 UV-I 647 W/m 12,3 C 16,8 C 12,9 km/h (3 Bft) 100,00 %
20.09.2020 12:08 16,8 C 77 % 1017,6 hPa 0,0 l/m 6,4 km/h (2 Bft) S-SO 157 1 min 0,000 mm 3,7 UV-I 645 W/m 12,7 C 16,8 C 9,7 km/h (2 Bft) 100,00 %
20.09.2020 12:07 16,7 C 75 % 1017,6 hPa 0,0 l/m 3,2 km/h (1 Bft) S-SW 202 1 min 0,000 mm 3,7 UV-I 645 W/m 12,2 C 16,7 C 4,8 km/h (1 Bft) 100,00 %
20.09.2020 12:06 16,7 C 75 % 1017,6 hPa 0,0 l/m 3,2 km/h (1 Bft) SW 225 1 min 0,000 mm 3,7 UV-I 647 W/m 12,2 C 16,7 C 4,8 km/h (1 Bft) 100,00 %
20.09.2020 12:05 16,6 C 77 % 1017,6 hPa 0,0 l/m 1,6 km/h (1 Bft) SW 225 1 min 0,000 mm 3,7 UV-I 643 W/m 12,5 C 16,6 C 3,2 km/h (1 Bft) 95,65 %
20.09.2020 12:04 16,5 C 76 % 1017,6 hPa 0,0 l/m 3,2 km/h (1 Bft) SW 225 1 min 0,000 mm 3,7 UV-I 643 W/m 12,3 C 16,5 C 4,8 km/h (1 Bft) 95,65 %
20.09.2020 12:03 16,4 C 76 % 1017,6 hPa 0,0 l/m 3,2 km/h (1 Bft) W-SW 247 1 min 0,000 mm 3,7 UV-I 642 W/m 12,2 C 16,4 C 8,0 km/h (2 Bft) 100,00 %
20.09.2020 12:02 16,3 C 77 % 1017,7 hPa 0,0 l/m 3,2 km/h (1 Bft) SW 225 1 min 0,000 mm 3,7 UV-I 640 W/m 12,3 C 16,3 C 4,8 km/h (1 Bft) 100,00 %
20.09.2020 12:01 16,3 C 74 % 1017,7 hPa 0,0 l/m 4,8 km/h (1 Bft) SW 225 1 min 0,000 mm 3,7 UV-I 640 W/m 11,7 C 16,3 C 8,0 km/h (2 Bft) 95,65 %
20.09.2020 12:00 16,3 C 74 % 1017,7 hPa 0,0 l/m 4,8 km/h (1 Bft) S-SO 157 1 min 0,330 mm 3,7 UV-I 640 W/m 11,7 C 16,3 C 8,0 km/h (2 Bft) 100,00 %
20.09.2020 11:59 16,3 C 76 % 1017,7 hPa 0,0 l/m 6,4 km/h (2 Bft) S-SO 157 1 min 0,000 mm 3,7 UV-I 638 W/m 12,1 C 16,3 C 11,3 km/h (2 Bft) 100,00 %
20.09.2020 11:58 16,3 C 75 % 1017,7 hPa 0,0 l/m 3,2 km/h (1 Bft) SW 225 1 min 0,000 mm 3,6 UV-I 638 W/m 11,9 C 16,3 C 4,8 km/h (1 Bft) 100,00 %
20.09.2020 11:57 16,3 C 75 % 1017,7 hPa 0,0 l/m 4,8 km/h (1 Bft) S 180 1 min 0,000 mm 3,6 UV-I 636 W/m 11,9 C 16,3 C 8,0 km/h (2 Bft) 95,65 %
20.09.2020 11:56 16,3 C 75 % 1017,8 hPa 0,0 l/m 3,2 km/h (1 Bft) W 270 1 min 0,000 mm 3,6 UV-I 635 W/m 11,9 C 16,3 C 6,4 km/h (2 Bft) 95,65 %
20.09.2020 11:55 16,3 C 75 % 1017,7 hPa 0,0 l/m 3,2 km/h (1 Bft) S-SW 202 1 min 0,000 mm 3,6 UV-I 633 W/m 11,9 C 16,3 C 4,8 km/h (1 Bft) 100,00 %
20.09.2020 11:54 16,3 C 75 % 1017,7 hPa 0,0 l/m 4,8 km/h (1 Bft) S-SW 202 1 min 0,000 mm 3,6 UV-I 633 W/m 11,9 C 16,3 C 8,0 km/h (2 Bft) 100,00 %
20.09.2020 11:53 16,3 C 74 % 1017,8 hPa 0,0 l/m 6,4 km/h (2 Bft) S 180 1 min 0,000 mm 3,6 UV-I 631 W/m 11,7 C 16,3 C 9,7 km/h (2 Bft) 100,00 %
20.09.2020 11:52 16,3 C 75 % 1017,8 hPa 0,0 l/m 6,4 km/h (2 Bft) S 180 1 min 0,000 mm 3,6 UV-I 631 W/m 11,9 C 16,3 C 11,3 km/h (2 Bft) 100,00 %
20.09.2020 11:51 16,2 C 74 % 1017,8 hPa 0,0 l/m 4,8 km/h (1 Bft) S-SO 157 1 min 0,000 mm 3,6 UV-I 629 W/m 11,6 C 16,2 C 8,0 km/h (2 Bft) 95,65 %
20.09.2020 11:50 16,2 C 76 % 1017,8 hPa 0,0 l/m 4,8 km/h (1 Bft) S 180 1 min 0,000 mm 3,6 UV-I 629 W/m 12,0 C 16,2 C 6,4 km/h (2 Bft) 95,65 %
20.09.2020 11:49 16,1 C 76 % 1017,7 hPa 0,0 l/m 3,2 km/h (1 Bft) S 180 1 min 0,000 mm 3,6 UV-I 628 W/m 11,9 C 16,1 C 6,4 km/h (2 Bft) 100,00 %
20.09.2020 11:48 16,1 C 74 % 1017,7 hPa 0,0 l/m 3,2 km/h (1 Bft) S 180 1 min 0,000 mm 3,5 UV-I 628 W/m 11,5 C 16,1 C 4,8 km/h (1 Bft) 95,65 %
20.09.2020 11:47 16,1 C 76 % 1017,7 hPa 0,0 l/m 3,2 km/h (1 Bft) SW 225 1 min 0,000 mm 3,5 UV-I 628 W/m 11,9 C 16,1 C 3,2 km/h (1 Bft) 100,00 %
20.09.2020 11:46 16,1 C 75 % 1017,7 hPa 0,0 l/m 3,2 km/h (1 Bft) SW 225 1 min 0,000 mm 3,5 UV-I 626 W/m 11,7 C 16,1 C 4,8 km/h (1 Bft) 100,00 %
20.09.2020 11:45 16,1 C 75 % 1017,7 hPa 0,0 l/m 3,2 km/h (1 Bft) SW 225 1 min 0,000 mm 3,5 UV-I 626 W/m 11,7 C 16,1 C 6,4 km/h (2 Bft) 100,00 %
20.09.2020 11:44 16,1 C 76 % 1017,7 hPa 0,0 l/m 3,2 km/h (1 Bft) S-SW 202 1 min 0,000 mm 3,5 UV-I 624 W/m 11,9 C 16,1 C 4,8 km/h (1 Bft) 100,00 %
20.09.2020 11:43 16,1 C 75 % 1017,7 hPa 0,0 l/m 1,6 km/h (1 Bft) S-SW 202 1 min 0,000 mm 3,5 UV-I 624 W/m 11,7 C 16,1 C 3,2 km/h (1 Bft) 95,65 %
20.09.2020 11:42 16,0 C 75 % 1017,7 hPa 0,0 l/m 1,6 km/h (1 Bft) S 180 1 min 0,000 mm 3,5 UV-I 622 W/m 11,6 C 16,0 C 3,2 km/h (1 Bft) 100,00 %
20.09.2020 11:41 16,0 C 74 % 1017,7 hPa 0,0 l/m 3,2 km/h (1 Bft) S 180 1 min 0,000 mm 3,5 UV-I 621 W/m 11,4 C 16,0 C 8,0 km/h (2 Bft) 100,00 %
20.09.2020 11:40 15,9 C 76 % 1017,7 hPa 0,0 l/m 3,2 km/h (1 Bft) S 180 1 min 0,000 mm 3,5 UV-I 621 W/m 11,7 C 15,9 C 4,8 km/h (1 Bft) 95,65 %
20.09.2020 11:39 15,9 C 74 % 1017,8 hPa 0,0 l/m 3,2 km/h (1 Bft) S-SW 202 1 min 0,000 mm 3,5 UV-I 621 W/m 11,3 C 15,9 C 8,0 km/h (2 Bft) 100,00 %
20.09.2020 11:38 16,0 C 75 % 1017,7 hPa 0,0 l/m 3,2 km/h (1 Bft) S-SW 202 1 min 0,000 mm 3,4 UV-I 619 W/m 11,6 C 16,0 C 4,8 km/h (1 Bft) 100,00 %
20.09.2020 11:37 16,1 C 74 % 1017,7 hPa 0,0 l/m 1,6 km/h (1 Bft) S-SW 202 1 min 0,000 mm 3,4 UV-I 619 W/m 11,5 C 16,1 C 3,2 km/h (1 Bft) 100,00 %
20.09.2020 11:36 16,1 C 76 % 1017,7 hPa 0,0 l/m 3,2 km/h (1 Bft) S 180 1 min 0,000 mm 3,4 UV-I 617 W/m 11,9 C 16,1 C 6,4 km/h (2 Bft) 95,65 %
20.09.2020 11:35 15,9 C 77 % 1017,7 hPa 0,0 l/m 4,8 km/h (1 Bft) S 180 1 min 0,000 mm 3,4 UV-I 617 W/m 11,9 C 15,9 C 8,0 km/h (2 Bft) 100,00 %
20.09.2020 11:34 15,8 C 75 % 1017,7 hPa 0,0 l/m 3,2 km/h (1 Bft) S-SO 157 1 min 0,000 mm 3,4 UV-I 615 W/m 11,4 C 15,8 C 8,0 km/h (2 Bft) 95,65 %
20.09.2020 11:33 15,8 C 75 % 1017,7 hPa 0,0 l/m 1,6 km/h (1 Bft) S-SO 157 1 min 0,000 mm 3,4 UV-I 612 W/m 11,4 C 15,8 C 4,8 km/h (1 Bft) 100,00 %
20.09.2020 11:32 15,8 C 75 % 1017,8 hPa 0,0 l/m 1,6 km/h (1 Bft) S-SO 157 1 min 0,000 mm 3,4 UV-I 612 W/m 11,4 C 15,8 C 6,4 km/h (2 Bft) 100,00 %
20.09.2020 11:31 15,8 C 76 % 1017,7 hPa 0,0 l/m 3,2 km/h (1 Bft) S 180 1 min 0,000 mm 3,3 UV-I 610 W/m 11,6 C 15,8 C 6,4 km/h (2 Bft) 100,00 %
20.09.2020 11:30 15,8 C 74 % 1017,7 hPa 0,0 l/m 3,2 km/h (1 Bft) S 180 1 min 0,000 mm 3,3 UV-I 610 W/m 11,2 C 15,8 C 3,2 km/h (1 Bft) 95,65 %
20.09.2020 11:29 15,9 C 74 % 1017,6 hPa 0,0 l/m 4,8 km/h (1 Bft) S-SO 157 1 min 0,000 mm 3,3 UV-I 608 W/m 11,3 C 15,9 C 8,0 km/h (2 Bft) 95,65 %
20.09.2020 11:28 16,0 C 74 % 1017,7 hPa 0,0 l/m 4,8 km/h (1 Bft) S 180 1 min 0,000 mm 3,3 UV-I 606 W/m 11,4 C 16,0 C 8,0 km/h (2 Bft) 100,00 %
20.09.2020 11:27 16,0 C 75 % 1017,7 hPa 0,0 l/m 6,4 km/h (2 Bft) S 180 1 min 0,000 mm 3,3 UV-I 605 W/m 11,6 C 16,0 C 8,0 km/h (2 Bft) 100,00 %
20.09.2020 11:26 16,0 C 76 % 1017,7 hPa 0,0 l/m 6,4 km/h (2 Bft) S 180 1 min 0,000 mm 3,3 UV-I 603 W/m 11,8 C 16,0 C 8,0 km/h (2 Bft) 100,00 %
20.09.2020 11:25 15,9 C 74 % 1017,7 hPa 0,0 l/m 3,2 km/h (1 Bft) S 180 1 min 0,000 mm 3,3 UV-I 603 W/m 11,3 C 15,9 C 6,4 km/h (2 Bft) 100,00 %
20.09.2020 11:24 16,0 C 74 % 1017,7 hPa 0,0 l/m 3,2 km/h (1 Bft) S-SO 157 1 min 0,000 mm 3,3 UV-I 603 W/m 11,4 C 16,0 C 4,8 km/h (1 Bft) 100,00 %
20.09.2020 11:23 16,1 C 74 % 1017,7 hPa 0,0 l/m 4,8 km/h (1 Bft) S-SO 157 1 min 0,000 mm 3,2 UV-I 601 W/m 11,5 C 16,1 C 6,4 km/h (2 Bft) 100,00 %
20.09.2020 11:22 16,1 C 75 % 1017,8 hPa 0,0 l/m 4,8 km/h (1 Bft) S 180 1 min 0,000 mm 3,2 UV-I 599 W/m 11,7 C 16,1 C 6,4 km/h (2 Bft) 95,65 %
20.09.2020 11:21 16,1 C 75 % 1017,7 hPa 0,0 l/m 3,2 km/h (1 Bft) S 180 1 min 0,000 mm 3,2 UV-I 598 W/m 11,7 C 16,1 C 6,4 km/h (2 Bft) 100,00 %
20.09.2020 11:20 16,2 C 75 % 1017,7 hPa 0,0 l/m 6,4 km/h (2 Bft) S 180 1 min 0,000 mm 3,2 UV-I 596 W/m 11,8 C 16,2 C 9,7 km/h (2 Bft) 100,00 %
20.09.2020 11:19 16,1 C 74 % 1017,7 hPa 0,0 l/m 6,4 km/h (2 Bft) S-SO 157 1 min 0,000 mm 3,2 UV-I 594 W/m 11,5 C 16,1 C 9,7 km/h (2 Bft) 95,65 %
20.09.2020 11:18 16,0 C 75 % 1017,7 hPa 0,0 l/m 4,8 km/h (1 Bft) S-SO 157 1 min 0,000 mm 3,2 UV-I 592 W/m 11,6 C 16,0 C 4,8 km/h (1 Bft) 100,00 %
20.09.2020 11:17 15,9 C 75 % 1017,7 hPa 0,0 l/m 8,0 km/h (2 Bft) S-SO 157 1 min 0,000 mm 3,1 UV-I 592 W/m 11,5 C 15,9 C 9,7 km/h (2 Bft) 95,65 %
20.09.2020 11:16 15,9 C 74 % 1017,7 hPa 0,0 l/m 4,8 km/h (1 Bft) S 180 1 min 0,000 mm 3,1 UV-I 591 W/m 11,3 C 15,9 C 9,7 km/h (2 Bft) 100,00 %
20.09.2020 11:15 15,9 C 75 % 1017,7 hPa 0,0 l/m 4,8 km/h (1 Bft) S 180 1 min 0,000 mm 3,1 UV-I 587 W/m 11,5 C 15,9 C 6,4 km/h (2 Bft) 95,65 %
20.09.2020 11:14 15,9 C 75 % 1017,6 hPa 0,0 l/m 4,8 km/h (1 Bft) S 180 1 min 0,000 mm 3,1 UV-I 587 W/m 11,5 C 15,9 C 8,0 km/h (2 Bft) 100,00 %
20.09.2020 11:13 15,8 C 76 % 1017,6 hPa 0,0 l/m 4,8 km/h (1 Bft) S 180 1 min 0,000 mm 3,1 UV-I 585 W/m 11,6 C 15,8 C 8,0 km/h (2 Bft) 100,00 %
20.09.2020 11:12 15,7 C 76 % 1017,6 hPa 0,0 l/m 6,4 km/h (2 Bft) S-SO 157 1 min 0,000 mm 3,1 UV-I 584 W/m 11,5 C 15,7 C 9,7 km/h (2 Bft) 95,65 %
20.09.2020 11:11 15,8 C 75 % 1017,7 hPa 0,0 l/m 3,2 km/h (1 Bft) S 180 1 min 0,000 mm 3,1 UV-I 584 W/m 11,4 C 15,8 C 6,4 km/h (2 Bft) 100,00 %
20.09.2020 11:10 15,7 C 76 % 1017,7 hPa 0,0 l/m 3,2 km/h (1 Bft) S 180 1 min 0,000 mm 3,1 UV-I 580 W/m 11,5 C 15,7 C 6,4 km/h (2 Bft) 100,00 %
20.09.2020 11:09 15,7 C 75 % 1017,6 hPa 0,0 l/m 6,4 km/h (2 Bft) S 180 1 min 0,000 mm 3,0 UV-I 580 W/m 11,3 C 15,7 C 8,0 km/h (2 Bft) 100,00 %
20.09.2020 11:08 15,7 C 77 % 1017,7 hPa 0,0 l/m 1,6 km/h (1 Bft) S 180 1 min 0,000 mm 3,0 UV-I 578 W/m 11,7 C 15,7 C 4,8 km/h (1 Bft) 95,65 %
20.09.2020 11:07 15,8 C 74 % 1017,6 hPa 0,0 l/m 1,6 km/h (1 Bft) S 180 1 min 0,000 mm 3,0 UV-I 578 W/m 11,2 C 15,8 C 3,2 km/h (1 Bft) 100,00 %
20.09.2020 11:06 15,9 C 76 % 1017,6 hPa 0,0 l/m 1,6 km/h (1 Bft) S 180 1 min 0,000 mm 3,0 UV-I 577 W/m 11,7 C 15,9 C 3,2 km/h (1 Bft) 95,65 %
20.09.2020 11:05 15,9 C 75 % 1017,6 hPa 0,0 l/m 1,6 km/h (1 Bft) S 180 1 min 0,000 mm 3,0 UV-I 577 W/m 11,5 C 15,9 C 4,8 km/h (1 Bft) 95,65 %
20.09.2020 11:04 15,8 C 76 % 1017,6 hPa 0,0 l/m 4,8 km/h (1 Bft) S 180 1 min 0,000 mm 3,0 UV-I 573 W/m 11,6 C 15,8 C 8,0 km/h (2 Bft) 100,00 %
20.09.2020 11:03 15,8 C 74 % 1017,5 hPa 0,0 l/m 3,2 km/h (1 Bft) S-SW 202 1 min 0,000 mm 3,0 UV-I 573 W/m 11,2 C 15,8 C 4,8 km/h (1 Bft) 100,00 %
20.09.2020 11:02 15,8 C 74 % 1017,7 hPa 0,0 l/m 1,6 km/h (1 Bft) S-SW 202 1 min 0,000 mm 3,0 UV-I 573 W/m 11,2 C 15,8 C 3,2 km/h (1 Bft) 100,00 %
20.09.2020 11:01 15,8 C 75 % 1017,5 hPa 0,0 l/m 3,2 km/h (1 Bft) S-SW 202 1 min 0,000 mm 2,9 UV-I 570 W/m 11,4 C 15,8 C 6,4 km/h (2 Bft) 95,65 %
20.09.2020 11:00 15,8 C 76 % 1017,6 hPa 0,0 l/m 4,8 km/h (1 Bft) S 180 1 min 0,279 mm 2,9 UV-I 570 W/m 11,6 C 15,8 C 6,4 km/h (2 Bft) 95,65 %
20.09.2020 10:59 15,8 C 75 % 1017,6 hPa 0,0 l/m 3,2 km/h (1 Bft) SW 225 1 min 0,000 mm 2,9 UV-I 568 W/m 11,4 C 15,8 C 4,8 km/h (1 Bft) 95,65 %
20.09.2020 10:58 15,8 C 74 % 1017,6 hPa 0,0 l/m 3,2 km/h (1 Bft) S-SW 202 1 min 0,000 mm 2,9 UV-I 566 W/m 11,2 C 15,8 C 4,8 km/h (1 Bft) 100,00 %
20.09.2020 10:57 15,8 C 76 % 1017,7 hPa 0,0 l/m 1,6 km/h (1 Bft) S-SW 202 1 min 0,000 mm 2,9 UV-I 566 W/m 11,6 C 15,8 C 4,8 km/h (1 Bft) 100,00 %
20.09.2020 10:56 15,7 C 75 % 1017,7 hPa 0,0 l/m 3,2 km/h (1 Bft) S-SW 202 1 min 0,000 mm 2,9 UV-I 564 W/m 11,3 C 15,7 C 4,8 km/h (1 Bft) 95,65 %
20.09.2020 10:55 15,8 C 75 % 1017,7 hPa 0,0 l/m 1,6 km/h (1 Bft) SW 225 1 min 0,000 mm 2,9 UV-I 563 W/m 11,4 C 15,8 C 3,2 km/h (1 Bft) 100,00 %
20.09.2020 10:54 15,7 C 76 % 1017,8 hPa 0,0 l/m 3,2 km/h (1 Bft) S-SW 202 1 min 0,000 mm 2,8 UV-I 563 W/m 11,5 C 15,7 C 4,8 km/h (1 Bft) 91,30 %
20.09.2020 10:53 15,7 C 76 % 1017,8 hPa 0,0 l/m 1,6 km/h (1 Bft) S-SW 202 1 min 0,000 mm 2,8 UV-I 563 W/m 11,5 C 15,7 C 3,2 km/h (1 Bft) 100,00 %
20.09.2020 10:52 15,8 C 74 % 1017,9 hPa 0,0 l/m 1,6 km/h (1 Bft) S-SW 202 1 min 0,000 mm 2,8 UV-I 559 W/m 11,2 C 15,8 C 3,2 km/h (1 Bft) 100,00 %
20.09.2020 10:51 15,8 C 75 % 1017,7 hPa 0,0 l/m 3,2 km/h (1 Bft) S-SW 202 1 min 0,000 mm 2,8 UV-I 559 W/m 11,4 C 15,8 C 6,4 km/h (2 Bft) 100,00 %
20.09.2020 10:50 15,8 C 74 % 1017,8 hPa 0,0 l/m 1,6 km/h (1 Bft) O-SO 112 1 min 0,000 mm 2,8 UV-I 555 W/m 11,2 C 15,8 C 3,2 km/h (1 Bft) 100,00 %
20.09.2020 10:49 15,8 C 74 % 1017,8 hPa 0,0 l/m 1,6 km/h (1 Bft) O-SO 112 1 min 0,000 mm 2,8 UV-I 555 W/m 11,2 C 15,8 C 3,2 km/h (1 Bft) 95,65 %
20.09.2020 10:48 15,8 C 73 % 1017,8 hPa 0,0 l/m 0,0 km/h (0 Bft) O-NO 67 1 min 0,000 mm 2,7 UV-I 554 W/m 11,0 C 15,8 C 3,2 km/h (1 Bft) 100,00 %
20.09.2020 10:47 15,7 C 73 % 1017,8 hPa 0,0 l/m 0,0 km/h (0 Bft) N 0 1 min 0,000 mm 2,7 UV-I 552 W/m 10,9 C 15,7 C 0,0 km/h (0 Bft) 91,30 %
20.09.2020 10:46 15,7 C 73 % 1017,8 hPa 0,0 l/m 0,0 km/h (0 Bft) N 0 1 min 0,000 mm 2,7 UV-I 548 W/m 10,9 C 15,7 C 0,0 km/h (0 Bft) 100,00 %
20.09.2020 10:45 15,7 C 72 % 1017,8 hPa 0,0 l/m 0,0 km/h (0 Bft) N-NO 22 1 min 0,000 mm 2,7 UV-I 548 W/m 10,7 C 15,7 C 1,6 km/h (1 Bft) 91,30 %
20.09.2020 10:44 15,7 C 74 % 1017,8 hPa 0,0 l/m 1,6 km/h (1 Bft) N-NO 22 1 min 0,000 mm 2,7 UV-I 547 W/m 11,1 C 15,7 C 1,6 km/h (1 Bft) 95,65 %
20.09.2020 10:43 15,5 C 72 % 1017,8 hPa 0,0 l/m 0,0 km/h (0 Bft) N-NO 22 1 min 0,000 mm 2,7 UV-I 545 W/m 10,5 C 15,5 C 1,6 km/h (1 Bft) 95,65 %
20.09.2020 10:42 15,4 C 71 % 1017,9 hPa 0,0 l/m 1,6 km/h (1 Bft) N-NO 22 1 min 0,000 mm 2,6 UV-I 543 W/m 10,2 C 15,4 C 3,2 km/h (1 Bft) 100,00 %
20.09.2020 10:41 15,4 C 73 % 1017,9 hPa 0,0 l/m 1,6 km/h (1 Bft) N-NO 22 1 min 0,000 mm 2,6 UV-I 541 W/m 10,6 C 15,4 C 3,2 km/h (1 Bft) 91,30 %
20.09.2020 10:40 15,3 C 72 % 1017,9 hPa 0,0 l/m 1,6 km/h (1 Bft) N-NO 22 1 min 0,000 mm 2,6 UV-I 540 W/m 10,3 C 15,3 C 3,2 km/h (1 Bft) 86,96 %
20.09.2020 10:39 15,3 C 72 % 1017,9 hPa 0,0 l/m 3,2 km/h (1 Bft) N-NO 22 1 min 0,000 mm 2,6 UV-I 538 W/m 10,3 C 15,3 C 4,8 km/h (1 Bft) 100,00 %
20.09.2020 10:38 15,3 C 71 % 1017,9 hPa 0,0 l/m 1,6 km/h (1 Bft) N-NO 22 1 min 0,000 mm 2,5 UV-I 534 W/m 10,1 C 15,3 C 3,2 km/h (1 Bft) 91,30 %
20.09.2020 10:37 15,3 C 74 % 1017,9 hPa 0,0 l/m 1,6 km/h (1 Bft) N-NO 22 1 min 0,000 mm 2,5 UV-I 534 W/m 10,7 C 15,3 C 3,2 km/h (1 Bft) 95,65 %
20.09.2020 10:36 15,2 C 73 % 1017,8 hPa 0,0 l/m 1,6 km/h (1 Bft) N-NO 22 1 min 0,000 mm 2,5 UV-I 533 W/m 10,4 C 15,2 C 3,2 km/h (1 Bft) 95,65 %
20.09.2020 10:35 15,1 C 71 % 1017,8 hPa 0,0 l/m 1,6 km/h (1 Bft) N-NO 22 1 min 0,000 mm 2,5 UV-I 531 W/m 9,9 C 15,1 C 4,8 km/h (1 Bft) 100,00 %
20.09.2020 10:34 15,1 C 72 % 1017,8 hPa 0,0 l/m 1,6 km/h (1 Bft) NO 45 1 min 0,000 mm 2,4 UV-I 527 W/m 10,1 C 15,1 C 3,2 km/h (1 Bft) 95,65 %
20.09.2020 10:33 15,1 C 72 % 1017,8 hPa 0,0 l/m 3,2 km/h (1 Bft) NO 45 1 min 0,000 mm 2,4 UV-I 526 W/m 10,1 C 15,1 C 3,2 km/h (1 Bft) 91,30 %
20.09.2020 10:32 15,0 C 72 % 1017,8 hPa 0,0 l/m 1,6 km/h (1 Bft) NO 45 1 min 0,000 mm 2,4 UV-I 524 W/m 10,0 C 15,0 C 3,2 km/h (1 Bft) 95,65 %
20.09.2020 10:31 14,9 C 72 % 1017,8 hPa 0,0 l/m 1,6 km/h (1 Bft) NO 45 1 min 0,000 mm 2,4 UV-I 522 W/m 9,9 C 14,9 C 3,2 km/h (1 Bft) 95,65 %
20.09.2020 10:30 14,9 C 73 % 1017,8 hPa 0,0 l/m 3,2 km/h (1 Bft) NO 45 1 min 0,000 mm 2,3 UV-I 519 W/m 10,1 C 14,9 C 6,4 km/h (2 Bft) 100,00 %
20.09.2020 10:29 14,9 C 73 % 1017,8 hPa 0,0 l/m 3,2 km/h (1 Bft) NO 45 1 min 0,000 mm 2,3 UV-I 517 W/m 10,1 C 14,9 C 4,8 km/h (1 Bft) 91,30 %
20.09.2020 10:28 14,8 C 72 % 1017,8 hPa 0,0 l/m 4,8 km/h (1 Bft) NO 45 1 min 0,000 mm 2,3 UV-I 515 W/m 9,8 C 14,8 C 6,4 km/h (2 Bft) 95,65 %
20.09.2020 10:27 14,8 C 74 % 1017,9 hPa 0,0 l/m 3,2 km/h (1 Bft) N-NO 22 1 min 0,000 mm 2,3 UV-I 512 W/m 10,2 C 14,8 C 3,2 km/h (1 Bft) 95,65 %
20.09.2020 10:26 14,6 C 74 % 1017,9 hPa 0,0 l/m 1,6 km/h (1 Bft) N-NO 22 1 min 0,000 mm 2,3 UV-I 512 W/m 10,0 C 14,6 C 3,2 km/h (1 Bft) 95,65 %
20.09.2020 10:25 14,5 C 73 % 1017,9 hPa 0,0 l/m 3,2 km/h (1 Bft) N-NO 22 1 min 0,000 mm 2,3 UV-I 510 W/m 9,7 C 14,5 C 4,8 km/h (1 Bft) 95,65 %
20.09.2020 10:24 14,4 C 73 % 1017,9 hPa 0,0 l/m 3,2 km/h (1 Bft) N-NO 22 1 min 0,000 mm 2,2 UV-I 510 W/m 9,6 C 14,4 C 6,4 km/h (2 Bft) 100,00 %
20.09.2020 10:23 14,4 C 73 % 1017,8 hPa 0,0 l/m 4,8 km/h (1 Bft) NO 45 1 min 0,000 mm 2,2 UV-I 506 W/m 9,6 C 14,4 C 6,4 km/h (2 Bft) 91,30 %
20.09.2020 10:22 14,4 C 73 % 1017,8 hPa 0,0 l/m 3,2 km/h (1 Bft) N-NO 22 1 min 0,000 mm 2,2 UV-I 504 W/m 9,6 C 14,4 C 3,2 km/h (1 Bft) 91,30 %
20.09.2020 10:21 14,4 C 74 % 1017,8 hPa 0,0 l/m 3,2 km/h (1 Bft) N-NO 22 1 min 0,000 mm 2,2 UV-I 503 W/m 9,8 C 14,4 C 4,8 km/h (1 Bft) 100,00 %
20.09.2020 10:20 14,3 C 73 % 1017,9 hPa 0,0 l/m 3,2 km/h (1 Bft) N-NO 22 1 min 0,000 mm 2,2 UV-I 499 W/m 9,5 C 14,3 C 6,4 km/h (2 Bft) 95,65 %
20.09.2020 10:19 14,3 C 73 % 1017,7 hPa 0,0 l/m 3,2 km/h (1 Bft) NO 45 1 min 0,000 mm 2,2 UV-I 497 W/m 9,5 C 14,3 C 4,8 km/h (1 Bft) 95,65 %
20.09.2020 10:18 14,3 C 74 % 1017,9 hPa 0,0 l/m 3,2 km/h (1 Bft) NO 45 1 min 0,000 mm 2,1 UV-I 496 W/m 9,7 C 14,3 C 6,4 km/h (2 Bft) 95,65 %
20.09.2020 10:17 14,2 C 73 % 1017,9 hPa 0,0 l/m 3,2 km/h (1 Bft) N-NO 22 1 min 0,000 mm 2,1 UV-I 492 W/m 9,4 C 14,2 C 4,8 km/h (1 Bft) 95,65 %
20.09.2020 10:16 14,2 C 73 % 1017,9 hPa 0,0 l/m 4,8 km/h (1 Bft) N-NO 22 1 min 0,000 mm 2,1 UV-I 490 W/m 9,4 C 14,2 C 6,4 km/h (2 Bft) 100,00 %
20.09.2020 10:15 14,2 C 72 % 1017,9 hPa 0,0 l/m 6,4 km/h (2 Bft) N-NO 22 1 min 0,000 mm 2,1 UV-I 489 W/m 9,2 C 14,2 C 8,0 km/h (2 Bft) 95,65 %
20.09.2020 10:14 14,2 C 75 % 1017,9 hPa 0,0 l/m 3,2 km/h (1 Bft) N-NO 22 1 min 0,000 mm 2,1 UV-I 487 W/m 9,8 C 14,2 C 4,8 km/h (1 Bft) 100,00 %
20.09.2020 10:13 14,2 C 73 % 1017,9 hPa 0,0 l/m 3,2 km/h (1 Bft) NO 45 1 min 0,000 mm 2,0 UV-I 485 W/m 9,4 C 14,2 C 4,8 km/h (1 Bft) 95,65 %
20.09.2020 10:12 14,2 C 76 % 1017,9 hPa 0,0 l/m 3,2 km/h (1 Bft) NO 45 1 min 0,000 mm 2,0 UV-I 483 W/m 10,0 C 14,2 C 4,8 km/h (1 Bft) 95,65 %
20.09.2020 10:11 14,0 C 75 % 1017,9 hPa 0,0 l/m 3,2 km/h (1 Bft) NO 45 1 min 0,000 mm 2,0 UV-I 482 W/m 9,6 C 14,0 C 4,8 km/h (1 Bft) 100,00 %
20.09.2020 10:10 13,9 C 74 % 1017,9 hPa 0,0 l/m 3,2 km/h (1 Bft) NO 45 1 min 0,000 mm 2,0 UV-I 478 W/m 9,3 C 13,9 C 6,4 km/h (2 Bft) 100,00 %
20.09.2020 10:09 13,9 C 75 % 1017,9 hPa 0,0 l/m 4,8 km/h (1 Bft) NO 45 1 min 0,000 mm 2,0 UV-I 476 W/m 9,5 C 13,9 C 6,4 km/h (2 Bft) 95,65 %
20.09.2020 10:08 13,8 C 76 % 1017,9 hPa 0,0 l/m 3,2 km/h (1 Bft) NO 45 1 min 0,000 mm 1,9 UV-I 476 W/m 9,6 C 13,8 C 4,8 km/h (1 Bft) 100,00 %
20.09.2020 10:07 13,7 C 74 % 1017,9 hPa 0,0 l/m 3,2 km/h (1 Bft) NO 45 1 min 0,000 mm 1,9 UV-I 473 W/m 9,2 C 13,7 C 6,4 km/h (2 Bft) 100,00 %
20.09.2020 10:06 13,7 C 75 % 1017,8 hPa 0,0 l/m 3,2 km/h (1 Bft) NO 45 1 min 0,000 mm 1,9 UV-I 473 W/m 9,3 C 13,7 C 6,4 km/h (2 Bft) 100,00 %
20.09.2020 10:05 13,6 C 75 % 1017,9 hPa 0,0 l/m 3,2 km/h (1 Bft) NO 45 1 min 0,000 mm 1,9 UV-I 468 W/m 9,3 C 13,6 C 4,8 km/h (1 Bft) 95,65 %
20.09.2020 10:04 13,6 C 75 % 1017,8 hPa 0,0 l/m 4,8 km/h (1 Bft) NO 45 1 min 0,000 mm 1,9 UV-I 466 W/m 9,3 C 13,6 C 6,4 km/h (2 Bft) 95,65 %
20.09.2020 10:03 13,5 C 75 % 1017,8 hPa 0,0 l/m 4,8 km/h (1 Bft) NO 45 1 min 0,000 mm 1,9 UV-I 466 W/m 9,2 C 13,5 C 6,4 km/h (2 Bft) 100,00 %
20.09.2020 10:02 13,4 C 75 % 1017,8 hPa 0,0 l/m 4,8 km/h (1 Bft) NO 45 1 min 0,000 mm 1,8 UV-I 462 W/m 9,1 C 13,4 C 8,0 km/h (2 Bft) 100,00 %
20.09.2020 10:01 13,4 C 75 % 1017,9 hPa 0,0 l/m 4,8 km/h (1 Bft) NO 45 1 min 0,000 mm 1,8 UV-I 461 W/m 9,1 C 13,4 C 6,4 km/h (2 Bft) 100,00 %
20.09.2020 10:00 13,3 C 76 % 1017,8 hPa 0,0 l/m 3,2 km/h (1 Bft) N-NO 22 1 min 0,127 mm 1,8 UV-I 459 W/m 9,2 C 13,3 C 4,8 km/h (1 Bft) 100,00 %
20.09.2020 09:59 13,3 C 75 % 1017,8 hPa 0,0 l/m 4,8 km/h (1 Bft) NO 45 1 min 0,000 mm 1,8 UV-I 455 W/m 9,0 C 13,3 C 6,4 km/h (2 Bft) 100,00 %
20.09.2020 09:58 13,2 C 77 % 1017,8 hPa 0,0 l/m 4,8 km/h (1 Bft) N-NO 22 1 min 0,000 mm 1,8 UV-I 452 W/m 9,3 C 13,2 C 6,4 km/h (2 Bft) 95,65 %
20.09.2020 09:57 13,1 C 75 % 1017,8 hPa 0,0 l/m 3,2 km/h (1 Bft) NO 45 1 min 0,000 mm 1,7 UV-I 448 W/m 8,8 C 13,1 C 8,0 km/h (2 Bft) 95,65 %
20.09.2020 09:56 13,1 C 75 % 1017,9 hPa 0,0 l/m 4,8 km/h (1 Bft) NO 45 1 min 0,000 mm 1,7 UV-I 448 W/m 8,8 C 13,1 C 8,0 km/h (2 Bft) 100,00 %
20.09.2020 09:55 13,1 C 76 % 1017,8 hPa 0,0 l/m 4,8 km/h (1 Bft) NO 45 1 min 0,000 mm 1,7 UV-I 446 W/m 9,0 C 13,1 C 6,4 km/h (2 Bft) 100,00 %
20.09.2020 09:54 13,0 C 76 % 1017,9 hPa 0,0 l/m 3,2 km/h (1 Bft) NO 45 1 min 0,000 mm 1,7 UV-I 443 W/m 8,9 C 13,0 C 4,8 km/h (1 Bft) 100,00 %
20.09.2020 09:53 12,9 C 76 % 1017,9 hPa 0,0 l/m 4,8 km/h (1 Bft) NO 45 1 min 0,000 mm 1,7 UV-I 439 W/m 8,8 C 12,9 C 6,4 km/h (2 Bft) 100,00 %
20.09.2020 09:52 12,9 C 75 % 1017,9 hPa 0,0 l/m 4,8 km/h (1 Bft) NO 45 1 min 0,000 mm 1,7 UV-I 436 W/m 8,6 C 12,9 C 8,0 km/h (2 Bft) 91,30 %
20.09.2020 09:51 12,9 C 76 % 1017,9 hPa 0,0 l/m 4,8 km/h (1 Bft) NO 45 1 min 0,000 mm 1,6 UV-I 434 W/m 8,8 C 12,9 C 8,0 km/h (2 Bft) 95,65 %
20.09.2020 09:50 12,9 C 77 % 1017,9 hPa 0,0 l/m 6,4 km/h (2 Bft) NO 45 1 min 0,000 mm 1,6 UV-I 432 W/m 9,0 C 12,9 C 8,0 km/h (2 Bft) 100,00 %
20.09.2020 09:49 12,8 C 78 % 1017,9 hPa 0,0 l/m 4,8 km/h (1 Bft) N-NO 22 1 min 0,000 mm 1,6 UV-I 427 W/m 9,1 C 12,8 C 6,4 km/h (2 Bft) 100,00 %
20.09.2020 09:48 12,7 C 77 % 1017,9 hPa 0,0 l/m 4,8 km/h (1 Bft) NO 45 1 min 0,000 mm 1,6 UV-I 425 W/m 8,8 C 12,7 C 6,4 km/h (2 Bft) 100,00 %
20.09.2020 09:47 12,7 C 77 % 1017,8 hPa 0,0 l/m 4,8 km/h (1 Bft) NO 45 1 min 0,000 mm 1,6 UV-I 424 W/m 8,8 C 12,7 C 6,4 km/h (2 Bft) 100,00 %
20.09.2020 09:46 12,6 C 76 % 1017,9 hPa 0,0 l/m 4,8 km/h (1 Bft) N-NO 22 1 min 0,000 mm 1,6 UV-I 422 W/m 8,5 C 12,6 C 6,4 km/h (2 Bft) 100,00 %
20.09.2020 09:45 12,6 C 76 % 1017,8 hPa 0,0 l/m 4,8 km/h (1 Bft) NO 45 1 min 0,000 mm 1,5 UV-I 420 W/m 8,5 C 12,6 C 6,4 km/h (2 Bft) 95,65 %
20.09.2020 09:44 12,4 C 77 % 1017,8 hPa 0,0 l/m 4,8 km/h (1 Bft) NO 45 1 min 0,000 mm 1,5 UV-I 417 W/m 8,5 C 12,4 C 8,0 km/h (2 Bft) 95,65 %
20.09.2020 09:43 12,4 C 77 % 1018,0 hPa 0,0 l/m 4,8 km/h (1 Bft) N-NO 22 1 min 0,000 mm 1,5 UV-I 415 W/m 8,5 C 12,4 C 6,4 km/h (2 Bft) 95,65 %
20.09.2020 09:42 12,4 C 77 % 1017,8 hPa 0,0 l/m 4,8 km/h (1 Bft) N-NO 22 1 min 0,000 mm 1,5 UV-I 411 W/m 8,5 C 12,4 C 6,4 km/h (2 Bft) 100,00 %
20.09.2020 09:41 12,4 C 77 % 1017,9 hPa 0,0 l/m 4,8 km/h (1 Bft) N-NO 22 1 min 0,000 mm 1,5 UV-I 410 W/m 8,5 C 12,4 C 6,4 km/h (2 Bft) 100,00 %
20.09.2020 09:40 12,3 C 77 % 1017,8 hPa 0,0 l/m 4,8 km/h (1 Bft) NO 45 1 min 0,000 mm 1,5 UV-I 406 W/m 8,4 C 12,3 C 6,4 km/h (2 Bft) 95,65 %
20.09.2020 09:39 12,3 C 78 % 1017,8 hPa 0,0 l/m 4,8 km/h (1 Bft) N-NO 22 1 min 0,000 mm 1,4 UV-I 404 W/m 8,6 C 12,3 C 6,4 km/h (2 Bft) 100,00 %
20.09.2020 09:38 12,2 C 76 % 1017,9 hPa 0,0 l/m 4,8 km/h (1 Bft) N-NO 22 1 min 0,000 mm 1,4 UV-I 403 W/m 8,1 C 12,2 C 8,0 km/h (2 Bft) 100,00 %
20.09.2020 09:37 12,2 C 78 % 1017,9 hPa 0,0 l/m 4,8 km/h (1 Bft) NO 45 1 min 0,000 mm 1,4 UV-I 399 W/m 8,5 C 12,2 C 4,8 km/h (1 Bft) 95,65 %
20.09.2020 09:36 12,2 C 77 % 1017,9 hPa 0,0 l/m 4,8 km/h (1 Bft) NO 45 1 min 0,000 mm 1,4 UV-I 396 W/m 8,3 C 12,2 C 6,4 km/h (2 Bft) 100,00 %
20.09.2020 09:35 12,1 C 77 % 1017,9 hPa 0,0 l/m 4,8 km/h (1 Bft) NO 45 1 min 0,000 mm 1,4 UV-I 394 W/m 8,2 C 12,1 C 6,4 km/h (2 Bft) 100,00 %
20.09.2020 09:34 12,1 C 78 % 1017,8 hPa 0,0 l/m 4,8 km/h (1 Bft) NO 45 1 min 0,000 mm 1,4 UV-I 392 W/m 8,4 C 12,1 C 8,0 km/h (2 Bft) 100,00 %
20.09.2020 09:33 12,1 C 77 % 1017,9 hPa 0,0 l/m 4,8 km/h (1 Bft) NO 45 1 min 0,000 mm 1,3 UV-I 390 W/m 8,2 C 12,1 C 6,4 km/h (2 Bft) 95,65 %
20.09.2020 09:32 12,1 C 78 % 1017,8 hPa 0,0 l/m 6,4 km/h (2 Bft) N-NO 22 1 min 0,000 mm 1,3 UV-I 387 W/m 8,4 C 12,1 C 8,0 km/h (2 Bft) 95,65 %
20.09.2020 09:31 12,0 C 78 % 1017,8 hPa 0,0 l/m 6,4 km/h (2 Bft) NO 45 1 min 0,000 mm 1,3 UV-I 364 W/m 8,3 C 12,0 C 8,0 km/h (2 Bft) 95,65 %
20.09.2020 09:30 11,9 C 78 % 1017,9 hPa 0,0 l/m 6,4 km/h (2 Bft) NO 45 1 min 0,000 mm 1,1 UV-I 172 W/m 8,2 C 11,9 C 6,4 km/h (2 Bft) 95,65 %
20.09.2020 09:29 11,9 C 78 % 1017,9 hPa 0,0 l/m 4,8 km/h (1 Bft) NO 45 1 min 0,000 mm 1,0 UV-I 172 W/m 8,2 C 11,9 C 6,4 km/h (2 Bft) 100,00 %
20.09.2020 09:28 11,8 C 79 % 1017,8 hPa 0,0 l/m 4,8 km/h (1 Bft) NO 45 0 min 0,000 mm 1,0 UV-I 90 W/m 8,3 C 11,8 C 6,4 km/h (2 Bft) 100,00 %
20.09.2020 09:27 11,8 C 77 % 1017,8 hPa 0,0 l/m 4,8 km/h (1 Bft) NO 45 0 min 0,000 mm 1,0 UV-I 67 W/m 7,9 C 11,8 C 6,4 km/h (2 Bft) 95,65 %
20.09.2020 09:26 11,7 C 79 % 1017,9 hPa 0,0 l/m 4,8 km/h (1 Bft) NO 45 0 min 0,000 mm 0,9 UV-I 65 W/m 8,2 C 11,7 C 6,4 km/h (2 Bft) 100,00 %
20.09.2020 09:25 11,7 C 79 % 1018,0 hPa 0,0 l/m 4,8 km/h (1 Bft) NO 45 0 min 0,000 mm 0,9 UV-I 67 W/m 8,2 C 11,7 C 6,4 km/h (2 Bft) 100,00 %
20.09.2020 09:24 11,6 C 78 % 1017,9 hPa 0,0 l/m 4,8 km/h (1 Bft) NO 45 0 min 0,000 mm 0,9 UV-I 65 W/m 7,9 C 11,6 C 6,4 km/h (2 Bft) 95,65 %
20.09.2020 09:23 11,6 C 78 % 1017,9 hPa 0,0 l/m 4,8 km/h (1 Bft) NO 45 0 min 0,000 mm 0,9 UV-I 65 W/m 7,9 C 11,6 C 6,4 km/h (2 Bft) 91,30 %
20.09.2020 09:22 11,6 C 79 % 1017,9 hPa 0,0 l/m 4,8 km/h (1 Bft) NO 45 0 min 0,000 mm 0,9 UV-I 65 W/m 8,1 C 11,6 C 8,0 km/h (2 Bft) 95,65 %
20.09.2020 09:21 11,5 C 80 % 1017,9 hPa 0,0 l/m 6,4 km/h (2 Bft) N-NO 22 0 min 0,000 mm 0,9 UV-I 65 W/m 8,2 C 11,5 C 8,0 km/h (2 Bft) 95,65 %
20.09.2020 09:20 11,4 C 80 % 1017,9 hPa 0,0 l/m 4,8 km/h (1 Bft) NO 45 0 min 0,000 mm 0,9 UV-I 65 W/m 8,1 C 11,4 C 6,4 km/h (2 Bft) 100,00 %
20.09.2020 09:19 11,3 C 79 % 1017,9 hPa 0,0 l/m 6,4 km/h (2 Bft) NO 45 0 min 0,000 mm 0,9 UV-I 70 W/m 7,8 C 11,3 C 9,7 km/h (2 Bft) 100,00 %
20.09.2020 09:18 11,3 C 79 % 1017,9 hPa 0,0 l/m 4,8 km/h (1 Bft) NO 45 0 min 0,000 mm 0,9 UV-I 69 W/m 7,8 C 11,3 C 6,4 km/h (2 Bft) 100,00 %
20.09.2020 09:17 11,3 C 79 % 1017,9 hPa 0,0 l/m 4,8 km/h (1 Bft) NO 45 0 min 0,000 mm 0,9 UV-I 65 W/m 7,8 C 11,3 C 8,0 km/h (2 Bft) 100,00 %
20.09.2020 09:16 11,3 C 79 % 1017,9 hPa 0,0 l/m 6,4 km/h (2 Bft) NO 45 0 min 0,000 mm 0,9 UV-I 67 W/m 7,8 C 11,3 C 8,0 km/h (2 Bft) 95,65 %
20.09.2020 09:15 11,3 C 79 % 1017,9 hPa 0,0 l/m 6,4 km/h (2 Bft) NO 45 0 min 0,000 mm 0,9 UV-I 67 W/m 7,8 C 11,3 C 8,0 km/h (2 Bft) 95,65 %
20.09.2020 09:14 11,2 C 79 % 1017,8 hPa 0,0 l/m 6,4 km/h (2 Bft) NO 45 0 min 0,000 mm 0,8 UV-I 70 W/m 7,7 C 11,2 C 8,0 km/h (2 Bft) 100,00 %
20.09.2020 09:13 11,2 C 79 % 1017,9 hPa 0,0 l/m 4,8 km/h (1 Bft) NO 45 0 min 0,000 mm 0,8 UV-I 70 W/m 7,7 C 11,2 C 8,0 km/h (2 Bft) 100,00 %
20.09.2020 09:12 11,2 C 79 % 1017,9 hPa 0,0 l/m 6,4 km/h (2 Bft) N-NO 22 0 min 0,000 mm 0,8 UV-I 83 W/m 7,7 C 11,2 C 8,0 km/h (2 Bft) 100,00 %
20.09.2020 09:11 11,1 C 80 % 1017,9 hPa 0,0 l/m 6,4 km/h (2 Bft) NO 45 0 min 0,000 mm 0,8 UV-I 81 W/m 7,8 C 11,1 C 9,7 km/h (2 Bft) 100,00 %
20.09.2020 09:10 11,1 C 80 % 1017,9 hPa 0,0 l/m 4,8 km/h (1 Bft) NO 45 0 min 0,000 mm 0,8 UV-I 69 W/m 7,8 C 11,1 C 6,4 km/h (2 Bft) 100,00 %
20.09.2020 09:09 11,1 C 80 % 1017,9 hPa 0,0 l/m 3,2 km/h (1 Bft) NO 45 0 min 0,000 mm 0,8 UV-I 65 W/m 7,8 C 11,1 C 4,8 km/h (1 Bft) 100,00 %
20.09.2020 09:08 11,0 C 80 % 1018,0 hPa 0,0 l/m 4,8 km/h (1 Bft) NO 45 0 min 0,000 mm 0,8 UV-I 65 W/m 7,7 C 11,0 C 6,4 km/h (2 Bft) 95,65 %
20.09.2020 09:07 10,9 C 79 % 1017,9 hPa 0,0 l/m 6,4 km/h (2 Bft) NO 45 0 min 0,000 mm 0,8 UV-I 69 W/m 7,4 C 10,9 C 8,0 km/h (2 Bft) 95,65 %
20.09.2020 09:06 10,9 C 79 % 1017,9 hPa 0,0 l/m 3,2 km/h (1 Bft) NO 45 0 min 0,000 mm 0,8 UV-I 79 W/m 7,4 C 10,9 C 6,4 km/h (2 Bft) 100,00 %
20.09.2020 09:05 10,8 C 79 % 1017,9 hPa 0,0 l/m 4,8 km/h (1 Bft) NO 45 0 min 0,000 mm 0,8 UV-I 91 W/m 7,3 C 10,8 C 8,0 km/h (2 Bft) 100,00 %
20.09.2020 09:04 10,8 C 80 % 1017,8 hPa 0,0 l/m 6,4 km/h (2 Bft) NO 45 0 min 0,000 mm 0,8 UV-I 79 W/m 7,5 C 10,8 C 9,7 km/h (2 Bft) 95,65 %
20.09.2020 09:03 10,8 C 79 % 1017,9 hPa 0,0 l/m 6,4 km/h (2 Bft) NO 45 0 min 0,000 mm 0,8 UV-I 90 W/m 7,3 C 10,8 C 8,0 km/h (2 Bft) 95,65 %
20.09.2020 09:02 10,8 C 80 % 1018,0 hPa 0,0 l/m 6,4 km/h (2 Bft) NO 45 0 min 0,000 mm 0,8 UV-I 111 W/m 7,5 C 10,8 C 9,7 km/h (2 Bft) 100,00 %
20.09.2020 09:01 10,8 C 80 % 1017,9 hPa 0,0 l/m 8,0 km/h (2 Bft) NO 45 0 min 0,000 mm 0,8 UV-I 98 W/m 7,5 C 10,8 C 9,7 km/h (2 Bft) 91,30 %
20.09.2020 09:00 10,7 C 80 % 1017,9 hPa 0,0 l/m 6,4 km/h (2 Bft) NO 45 0 min 0,051 mm 0,7 UV-I 83 W/m 7,4 C 10,7 C 9,7 km/h (2 Bft) 100,00 %
20.09.2020 08:59 10,7 C 80 % 1017,9 hPa 0,0 l/m 4,8 km/h (1 Bft) NO 45 0 min 0,000 mm 0,7 UV-I 63 W/m 7,4 C 10,7 C 8,0 km/h (2 Bft) 100,00 %
20.09.2020 08:58 10,7 C 79 % 1017,9 hPa 0,0 l/m 8,0 km/h (2 Bft) NO 45 0 min 0,000 mm 0,7 UV-I 63 W/m 7,2 C 10,7 C 11,3 km/h (2 Bft) 95,65 %
20.09.2020 08:57 10,7 C 80 % 1017,9 hPa 0,0 l/m 8,0 km/h (2 Bft) NO 45 0 min 0,000 mm 0,7 UV-I 63 W/m 7,4 C 10,7 C 9,7 km/h (2 Bft) 100,00 %
20.09.2020 08:56 10,7 C 80 % 1017,9 hPa 0,0 l/m 8,0 km/h (2 Bft) NO 45 0 min 0,000 mm 0,7 UV-I 77 W/m 7,4 C 10,7 C 11,3 km/h (2 Bft) 100,00 %
20.09.2020 08:55 10,7 C 80 % 1017,9 hPa 0,0 l/m 8,0 km/h (2 Bft) NO 45 0 min 0,000 mm 0,7 UV-I 65 W/m 7,4 C 10,7 C 9,7 km/h (2 Bft) 95,65 %
20.09.2020 08:54 10,7 C 80 % 1017,9 hPa 0,0 l/m 6,4 km/h (2 Bft) N-NO 22 0 min 0,000 mm 0,7 UV-I 65 W/m 7,4 C 10,7 C 8,0 km/h (2 Bft) 91,30 %
20.09.2020 08:53 10,7 C 80 % 1017,9 hPa 0,0 l/m 6,4 km/h (2 Bft) NO 45 1 min 0,000 mm 0,7 UV-I 227 W/m 7,4 C 10,7 C 8,0 km/h (2 Bft) 100,00 %
20.09.2020 08:52 10,7 C 80 % 1018,0 hPa 0,0 l/m 4,8 km/h (1 Bft) NO 45 1 min 0,000 mm 0,7 UV-I 227 W/m 7,4 C 10,7 C 6,4 km/h (2 Bft) 100,00 %
20.09.2020 08:51 10,7 C 80 % 1018,0 hPa 0,0 l/m 4,8 km/h (1 Bft) NO 45 1 min 0,000 mm 0,8 UV-I 227 W/m 7,4 C 10,7 C 6,4 km/h (2 Bft) 100,00 %
20.09.2020 08:50 10,7 C 81 % 1017,9 hPa 0,0 l/m 3,2 km/h (1 Bft) NO 45 1 min 0,000 mm 0,7 UV-I 206 W/m 7,6 C 10,7 C 4,8 km/h (1 Bft) 100,00 %
20.09.2020 08:49 10,7 C 80 % 1018,0 hPa 0,0 l/m 1,6 km/h (1 Bft) NO 45 0 min 0,000 mm 0,6 UV-I 72 W/m 7,4 C 10,7 C 3,2 km/h (1 Bft) 95,65 %
20.09.2020 08:48 10,6 C 80 % 1017,9 hPa 0,0 l/m 1,6 km/h (1 Bft) O-NO 67 0 min 0,000 mm 0,6 UV-I 72 W/m 7,3 C 10,6 C 3,2 km/h (1 Bft) 100,00 %
20.09.2020 08:47 10,6 C 81 % 1017,9 hPa 0,0 l/m 3,2 km/h (1 Bft) O-NO 67 0 min 0,000 mm 0,6 UV-I 81 W/m 7,5 C 10,6 C 3,2 km/h (1 Bft) 91,30 %
20.09.2020 08:46 10,6 C 80 % 1017,9 hPa 0,0 l/m 3,2 km/h (1 Bft) O-NO 67 0 min 0,000 mm 0,6 UV-I 83 W/m 7,3 C 10,6 C 4,8 km/h (1 Bft) 100,00 %
20.09.2020 08:45 10,5 C 80 % 1018,0 hPa 0,0 l/m 3,2 km/h (1 Bft) O 90 0 min 0,000 mm 0,6 UV-I 74 W/m 7,2 C 10,5 C 4,8 km/h (1 Bft) 95,65 %
20.09.2020 08:44 10,5 C 81 % 1017,9 hPa 0,0 l/m 1,6 km/h (1 Bft) O 90 0 min 0,000 mm 0,6 UV-I 79 W/m 7,4 C 10,5 C 1,6 km/h (1 Bft) 100,00 %
20.09.2020 08:43 10,4 C 81 % 1017,9 hPa 0,0 l/m 1,6 km/h (1 Bft) O 90 0 min 0,000 mm 0,6 UV-I 65 W/m 7,3 C 10,4 C 3,2 km/h (1 Bft) 91,30 %
20.09.2020 08:42 10,4 C 81 % 1017,9 hPa 0,0 l/m 0,0 km/h (0 Bft) O 90 0 min 0,000 mm 0,6 UV-I 62 W/m 7,3 C 10,4 C 1,6 km/h (1 Bft) 100,00 %
20.09.2020 08:41 10,3 C 81 % 1017,9 hPa 0,0 l/m 1,6 km/h (1 Bft) O 90 0 min 0,000 mm 0,6 UV-I 58 W/m 7,2 C 10,3 C 1,6 km/h (1 Bft) 95,65 %
20.09.2020 08:40 10,3 C 81 % 1017,8 hPa 0,0 l/m 1,6 km/h (1 Bft) O 90 0 min 0,000 mm 0,6 UV-I 58 W/m 7,2 C 10,3 C 3,2 km/h (1 Bft) 86,96 %
20.09.2020 08:39 10,3 C 80 % 1017,9 hPa 0,0 l/m 3,2 km/h (1 Bft) O 90 0 min 0,000 mm 0,6 UV-I 58 W/m 7,0 C 10,3 C 4,8 km/h (1 Bft) 91,30 %
20.09.2020 08:38 10,2 C 81 % 1017,9 hPa 0,0 l/m 1,6 km/h (1 Bft) O 90 0 min 0,000 mm 0,5 UV-I 56 W/m 7,1 C 10,2 C 6,4 km/h (2 Bft) 95,65 %
20.09.2020 08:37 10,2 C 81 % 1017,9 hPa 0,0 l/m 1,6 km/h (1 Bft) O 90 0 min 0,000 mm 0,5 UV-I 63 W/m 7,1 C 10,2 C 3,2 km/h (1 Bft) 100,00 %
20.09.2020 08:36 10,2 C 82 % 1017,8 hPa 0,0 l/m 1,6 km/h (1 Bft) O 90 0 min 0,000 mm 0,5 UV-I 62 W/m 7,3 C 10,2 C 4,8 km/h (1 Bft) 95,65 %
20.09.2020 08:35 10,1 C 81 % 1017,9 hPa 0,0 l/m 1,6 km/h (1 Bft) O 90 0 min 0,000 mm 0,5 UV-I 60 W/m 7,0 C 10,1 C 3,2 km/h (1 Bft) 95,65 %
20.09.2020 08:34 10,1 C 81 % 1017,7 hPa 0,0 l/m 3,2 km/h (1 Bft) O 90 0 min 0,000 mm 0,5 UV-I 62 W/m 7,0 C 10,1 C 4,8 km/h (1 Bft) 95,65 %
20.09.2020 08:33 10,1 C 81 % 1017,8 hPa 0,0 l/m 1,6 km/h (1 Bft) O 90 0 min 0,000 mm 0,5 UV-I 69 W/m 7,0 C 10,1 C 3,2 km/h (1 Bft) 95,65 %
20.09.2020 08:32 10,1 C 82 % 1017,8 hPa 0,0 l/m 3,2 km/h (1 Bft) O 90 0 min 0,000 mm 0,5 UV-I 67 W/m 7,2 C 10,1 C 4,8 km/h (1 Bft) 95,65 %
20.09.2020 08:31 10,1 C 81 % 1017,8 hPa 0,0 l/m 3,2 km/h (1 Bft) O 90 0 min 0,000 mm 0,0 UV-I 54 W/m 7,0 C 10,1 C 4,8 km/h (1 Bft) 95,65 %
20.09.2020 08:30 10,0 C 82 % 1017,7 hPa 0,0 l/m 1,6 km/h (1 Bft) O 90 0 min 0,000 mm 0,0 UV-I 54 W/m 7,1 C 10,0 C 3,2 km/h (1 Bft) 91,30 %
20.09.2020 08:29 9,9 C 82 % 1017,9 hPa 0,0 l/m 1,6 km/h (1 Bft) O 90 0 min 0,000 mm 0,0 UV-I 54 W/m 7,0 C 9,9 C 3,2 km/h (1 Bft) 91,30 %
20.09.2020 08:28 9,9 C 82 % 1017,8 hPa 0,0 l/m 3,2 km/h (1 Bft) O 90 0 min 0,000 mm 0,0 UV-I 54 W/m 7,0 C 9,9 C 4,8 km/h (1 Bft) 100,00 %
20.09.2020 08:27 9,9 C 82 % 1017,9 hPa 0,0 l/m 1,6 km/h (1 Bft) O 90 0 min 0,000 mm 0,0 UV-I 53 W/m 7,0 C 9,9 C 3,2 km/h (1 Bft) 95,65 %
20.09.2020 08:26 9,8 C 82 % 1017,8 hPa 0,0 l/m 3,2 km/h (1 Bft) O 90 0 min 0,000 mm 0,0 UV-I 53 W/m 6,9 C 9,8 C 4,8 km/h (1 Bft) 95,65 %
20.09.2020 08:25 9,8 C 82 % 1017,7 hPa 0,0 l/m 3,2 km/h (1 Bft) NO 45 0 min 0,000 mm 0,0 UV-I 53 W/m 6,9 C 9,8 C 4,8 km/h (1 Bft) 95,65 %
20.09.2020 08:24 9,8 C 82 % 1017,7 hPa 0,0 l/m 3,2 km/h (1 Bft) NO 45 0 min 0,000 mm 0,0 UV-I 53 W/m 6,9 C 9,8 C 4,8 km/h (1 Bft) 100,00 %
20.09.2020 08:23 9,8 C 82 % 1017,7 hPa 0,0 l/m 3,2 km/h (1 Bft) NO 45 0 min 0,000 mm 0,0 UV-I 53 W/m 6,9 C 9,8 C 4,8 km/h (1 Bft) 91,30 %
20.09.2020 08:22 9,7 C 82 % 1017,8 hPa 0,0 l/m 3,2 km/h (1 Bft) NO 45 0 min 0,000 mm 0,0 UV-I 54 W/m 6,8 C 9,7 C 4,8 km/h (1 Bft) 95,65 %
20.09.2020 08:21 9,7 C 82 % 1017,7 hPa 0,0 l/m 3,2 km/h (1 Bft) NO 45 0 min 0,000 mm 0,0 UV-I 56 W/m 6,8 C 9,7 C 3,2 km/h (1 Bft) 100,00 %
20.09.2020 08:20 9,7 C 82 % 1017,7 hPa 0,0 l/m 3,2 km/h (1 Bft) NO 45 0 min 0,000 mm 0,0 UV-I 60 W/m 6,8 C 9,7 C 4,8 km/h (1 Bft) 95,65 %
20.09.2020 08:19 9,7 C 82 % 1017,7 hPa 0,0 l/m 4,8 km/h (1 Bft) N-NO 22 0 min 0,000 mm 0,0 UV-I 56 W/m 6,8 C 9,5 C 8,0 km/h (2 Bft) 95,65 %
20.09.2020 08:18 9,6 C 82 % 1017,7 hPa 0,0 l/m 4,8 km/h (1 Bft) N-NO 22 0 min 0,000 mm 0,0 UV-I 53 W/m 6,7 C 9,4 C 8,0 km/h (2 Bft) 95,65 %
20.09.2020 08:17 9,6 C 82 % 1017,7 hPa 0,0 l/m 4,8 km/h (1 Bft) NO 45 0 min 0,000 mm 0,0 UV-I 51 W/m 6,7 C 9,4 C 8,0 km/h (2 Bft) 100,00 %
20.09.2020 08:16 9,6 C 82 % 1017,7 hPa 0,0 l/m 6,4 km/h (2 Bft) NO 45 0 min 0,000 mm 0,0 UV-I 53 W/m 6,7 C 8,9 C 11,3 km/h (2 Bft) 95,65 %
20.09.2020 08:15 9,6 C 82 % 1017,6 hPa 0,0 l/m 4,8 km/h (1 Bft) NO 45 0 min 0,000 mm 0,0 UV-I 51 W/m 6,7 C 9,4 C 8,0 km/h (2 Bft) 100,00 %
20.09.2020 08:14 9,6 C 82 % 1017,8 hPa 0,0 l/m 6,4 km/h (2 Bft) N-NO 22 0 min 0,000 mm 0,0 UV-I 54 W/m 6,7 C 8,9 C 11,3 km/h (2 Bft) 91,30 %
20.09.2020 08:13 9,5 C 82 % 1017,8 hPa 0,0 l/m 6,4 km/h (2 Bft) NO 45 0 min 0,000 mm 0,0 UV-I 51 W/m 6,6 C 8,8 C 9,7 km/h (2 Bft) 95,65 %
20.09.2020 08:12 9,4 C 82 % 1017,8 hPa 0,0 l/m 4,8 km/h (1 Bft) NO 45 0 min 0,000 mm 0,0 UV-I 47 W/m 6,5 C 9,1 C 8,0 km/h (2 Bft) 91,30 %
20.09.2020 08:11 9,4 C 83 % 1017,8 hPa 0,0 l/m 4,8 km/h (1 Bft) NO 45 0 min 0,000 mm 0,0 UV-I 47 W/m 6,7 C 9,1 C 8,0 km/h (2 Bft) 95,65 %
20.09.2020 08:10 9,4 C 83 % 1017,7 hPa 0,0 l/m 3,2 km/h (1 Bft) NO 45 0 min 0,000 mm 0,0 UV-I 47 W/m 6,7 C 9,4 C 4,8 km/h (1 Bft) 100,00 %
20.09.2020 08:09 9,4 C 83 % 1017,8 hPa 0,0 l/m 3,2 km/h (1 Bft) NO 45 0 min 0,000 mm 0,0 UV-I 46 W/m 6,7 C 9,4 C 6,4 km/h (2 Bft) 95,65 %
20.09.2020 08:08 9,4 C 83 % 1017,8 hPa 0,0 l/m 1,6 km/h (1 Bft) O 90 0 min 0,000 mm 0,0 UV-I 46 W/m 6,7 C 9,4 C 3,2 km/h (1 Bft) 100,00 %
20.09.2020 08:07 9,4 C 82 % 1017,7 hPa 0,0 l/m 1,6 km/h (1 Bft) O 90 0 min 0,000 mm 0,0 UV-I 46 W/m 6,5 C 9,4 C 3,2 km/h (1 Bft) 95,65 %
20.09.2020 08:06 9,4 C 83 % 1017,9 hPa 0,0 l/m 3,2 km/h (1 Bft) O 90 0 min 0,000 mm 0,0 UV-I 46 W/m 6,7 C 9,4 C 4,8 km/h (1 Bft) 100,00 %
20.09.2020 08:05 9,4 C 83 % 1017,7 hPa 0,0 l/m 3,2 km/h (1 Bft) O 90 0 min 0,000 mm 0,0 UV-I 46 W/m 6,7 C 9,4 C 6,4 km/h (2 Bft) 91,30 %
20.09.2020 08:04 9,3 C 83 % 1017,7 hPa 0,0 l/m 3,2 km/h (1 Bft) O 90 0 min 0,000 mm 0,0 UV-I 53 W/m 6,6 C 9,3 C 4,8 km/h (1 Bft) 91,30 %
20.09.2020 08:03 9,3 C 83 % 1017,8 hPa 0,0 l/m 3,2 km/h (1 Bft) O-SO 112 0 min 0,000 mm 0,0 UV-I 53 W/m 6,6 C 9,3 C 4,8 km/h (1 Bft) 100,00 %
20.09.2020 08:02 9,3 C 84 % 1017,8 hPa 0,0 l/m 3,2 km/h (1 Bft) O-SO 112 0 min 0,000 mm 0,0 UV-I 46 W/m 6,7 C 9,3 C 6,4 km/h (2 Bft) 100,00 %
20.09.2020 08:01 9,2 C 83 % 1017,9 hPa 0,0 l/m 3,2 km/h (1 Bft) NO 45 0 min 0,000 mm 0,0 UV-I 44 W/m 6,5 C 9,2 C 4,8 km/h (1 Bft) 100,00 %
20.09.2020 08:00 9,2 C 84 % 1017,8 hPa 0,0 l/m 1,6 km/h (1 Bft) NO 45 0 min 0,025 mm 0,0 UV-I 42 W/m 6,6 C 9,2 C 3,2 km/h (1 Bft) 95,65 %
20.09.2020 07:59 9,2 C 84 % 1017,7 hPa 0,0 l/m 1,6 km/h (1 Bft) NO 45 0 min 0,000 mm 0,0 UV-I 42 W/m 6,6 C 9,2 C 4,8 km/h (1 Bft) 100,00 %
20.09.2020 07:58 9,2 C 84 % 1017,9 hPa 0,0 l/m 1,6 km/h (1 Bft) NO 45 0 min 0,000 mm 0,0 UV-I 42 W/m 6,6 C 9,2 C 3,2 km/h (1 Bft) 95,65 %
20.09.2020 07:57 9,1 C 84 % 1017,8 hPa 0,0 l/m 3,2 km/h (1 Bft) NO 45 0 min 0,000 mm 0,0 UV-I 40 W/m 6,5 C 9,1 C 4,8 km/h (1 Bft) 100,00 %
20.09.2020 07:56 9,1 C 84 % 1017,8 hPa 0,0 l/m 3,2 km/h (1 Bft) NO 45 0 min 0,000 mm 0,0 UV-I 40 W/m 6,5 C 9,1 C 6,4 km/h (2 Bft) 100,00 %
20.09.2020 07:55 9,0 C 84 % 1017,8 hPa 0,0 l/m 1,6 km/h (1 Bft) O 90 0 min 0,000 mm 0,0 UV-I 40 W/m 6,4 C 9,0 C 3,2 km/h (1 Bft) 95,65 %
20.09.2020 07:54 9,0 C 84 % 1017,9 hPa 0,0 l/m 1,6 km/h (1 Bft) O 90 0 min 0,000 mm 0,0 UV-I 40 W/m 6,4 C 9,0 C 4,8 km/h (1 Bft) 95,65 %
20.09.2020 07:53 9,0 C 84 % 1017,8 hPa 0,0 l/m 1,6 km/h (1 Bft) O 90 0 min 0,000 mm 0,0 UV-I 39 W/m 6,4 C 9,0 C 3,2 km/h (1 Bft) 100,00 %
20.09.2020 07:52 8,9 C 84 % 1017,9 hPa 0,0 l/m 3,2 km/h (1 Bft) O 90 0 min 0,000 mm 0,0 UV-I 39 W/m 6,3 C 8,9 C 3,2 km/h (1 Bft) 100,00 %
20.09.2020 07:51 8,9 C 84 % 1017,8 hPa 0,0 l/m 3,2 km/h (1 Bft) O 90 0 min 0,000 mm 0,0 UV-I 39 W/m 6,3 C 8,9 C 6,4 km/h (2 Bft) 91,30 %
20.09.2020 07:50 8,9 C 84 % 1017,8 hPa 0,0 l/m 3,2 km/h (1 Bft) O 90 0 min 0,000 mm 0,0 UV-I 37 W/m 6,3 C 8,9 C 6,4 km/h (2 Bft) 95,65 %
20.09.2020 07:49 8,9 C 84 % 1017,9 hPa 0,0 l/m 1,6 km/h (1 Bft) O 90 0 min 0,000 mm 0,0 UV-I 37 W/m 6,3 C 8,9 C 3,2 km/h (1 Bft) 95,65 %
20.09.2020 07:48 8,8 C 84 % 1017,8 hPa 0,0 l/m 4,8 km/h (1 Bft) O-NO 67 0 min 0,000 mm 0,0 UV-I 37 W/m 6,2 C 8,5 C 4,8 km/h (1 Bft) 100,00 %
20.09.2020 07:47 8,8 C 84 % 1017,8 hPa 0,0 l/m 3,2 km/h (1 Bft) O-NO 67 0 min 0,000 mm 0,0 UV-I 37 W/m 6,2 C 8,8 C 4,8 km/h (1 Bft) 100,00 %
20.09.2020 07:46 8,8 C 85 % 1017,8 hPa 0,0 l/m 3,2 km/h (1 Bft) O-NO 67 0 min 0,000 mm 0,0 UV-I 35 W/m 6,4 C 8,8 C 4,8 km/h (1 Bft) 100,00 %
20.09.2020 07:45 8,8 C 85 % 1017,7 hPa 0,0 l/m 1,6 km/h (1 Bft) NO 45 0 min 0,000 mm 0,0 UV-I 35 W/m 6,4 C 8,8 C 3,2 km/h (1 Bft) 95,65 %
20.09.2020 07:44 8,8 C 85 % 1017,7 hPa 0,0 l/m 4,8 km/h (1 Bft) NO 45 0 min 0,000 mm 0,0 UV-I 35 W/m 6,4 C 8,5 C 6,4 km/h (2 Bft) 91,30 %
20.09.2020 07:43 8,7 C 85 % 1017,8 hPa 0,0 l/m 3,2 km/h (1 Bft) NO 45 0 min 0,000 mm 0,0 UV-I 35 W/m 6,3 C 8,7 C 6,4 km/h (2 Bft) 95,65 %
20.09.2020 07:42 8,7 C 85 % 1017,8 hPa 0,0 l/m 3,2 km/h (1 Bft) NO 45 0 min 0,000 mm 0,0 UV-I 33 W/m 6,3 C 8,7 C 4,8 km/h (1 Bft) 100,00 %
20.09.2020 07:41 8,6 C 86 % 1017,7 hPa 0,0 l/m 4,8 km/h (1 Bft) O-NO 67 0 min 0,000 mm 0,0 UV-I 33 W/m 6,4 C 8,2 C 6,4 km/h (2 Bft) 100,00 %
20.09.2020 07:40 8,6 C 86 % 1017,7 hPa 0,0 l/m 3,2 km/h (1 Bft) O-NO 67 0 min 0,000 mm 0,0 UV-I 33 W/m 6,4 C 8,6 C 6,4 km/h (2 Bft) 95,65 %
20.09.2020 07:39 8,5 C 86 % 1017,7 hPa 0,0 l/m 3,2 km/h (1 Bft) O-NO 67 0 min 0,000 mm 0,0 UV-I 33 W/m 6,3 C 8,5 C 4,8 km/h (1 Bft) 100,00 %
20.09.2020 07:38 8,4 C 86 % 1017,7 hPa 0,0 l/m 4,8 km/h (1 Bft) O-NO 67 0 min 0,000 mm 0,0 UV-I 32 W/m 6,2 C 8,0 C 6,4 km/h (2 Bft) 100,00 %
20.09.2020 07:37 8,4 C 86 % 1017,8 hPa 0,0 l/m 4,8 km/h (1 Bft) NO 45 0 min 0,000 mm 0,0 UV-I 32 W/m 6,2 C 8,0 C 8,0 km/h (2 Bft) 95,65 %
20.09.2020 07:36 8,4 C 86 % 1017,7 hPa 0,0 l/m 6,4 km/h (2 Bft) NO 45 0 min 0,000 mm 0,0 UV-I 32 W/m 6,2 C 7,5 C 8,0 km/h (2 Bft) 95,65 %
20.09.2020 07:35 8,3 C 86 % 1017,8 hPa 0,0 l/m 6,4 km/h (2 Bft) NO 45 0 min 0,000 mm 0,0 UV-I 30 W/m 6,1 C 7,4 C 8,0 km/h (2 Bft) 100,00 %
20.09.2020 07:34 8,3 C 86 % 1017,8 hPa 0,0 l/m 4,8 km/h (1 Bft) NO 45 0 min 0,000 mm 0,0 UV-I 30 W/m 6,1 C 7,9 C 6,4 km/h (2 Bft) 100,00 %
20.09.2020 07:33 8,3 C 86 % 1017,7 hPa 0,0 l/m 8,0 km/h (2 Bft) NO 45 0 min 0,000 mm 0,0 UV-I 30 W/m 6,1 C 7,0 C 9,7 km/h (2 Bft) 100,00 %
20.09.2020 07:32 8,2 C 86 % 1017,8 hPa 0,0 l/m 6,4 km/h (2 Bft) O-NO 67 0 min 0,000 mm 0,0 UV-I 30 W/m 6,0 C 7,3 C 9,7 km/h (2 Bft) 100,00 %
20.09.2020 07:31 8,2 C 86 % 1017,8 hPa 0,0 l/m 6,4 km/h (2 Bft) NO 45 0 min 0,000 mm 0,0 UV-I 28 W/m 6,0 C 7,3 C 8,0 km/h (2 Bft) 100,00 %
20.09.2020 07:30 8,2 C 86 % 1017,8 hPa 0,0 l/m 6,4 km/h (2 Bft) NO 45 0 min 0,000 mm 0,0 UV-I 28 W/m 6,0 C 7,3 C 9,7 km/h (2 Bft) 95,65 %
20.09.2020 07:29 8,2 C 86 % 1017,8 hPa 0,0 l/m 6,4 km/h (2 Bft) O-NO 67 0 min 0,000 mm 0,0 UV-I 28 W/m 6,0 C 7,3 C 8,0 km/h (2 Bft) 100,00 %
20.09.2020 07:28 8,2 C 86 % 1017,8 hPa 0,0 l/m 4,8 km/h (1 Bft) O-NO 67 0 min 0,000 mm 0,0 UV-I 28 W/m 6,0 C 7,8 C 6,4 km/h (2 Bft) 95,65 %
20.09.2020 07:27 8,2 C 86 % 1017,7 hPa 0,0 l/m 6,4 km/h (2 Bft) NO 45 0 min 0,000 mm 0,0 UV-I 26 W/m 6,0 C 7,3 C 9,7 km/h (2 Bft) 100,00 %
20.09.2020 07:26 8,2 C 86 % 1017,8 hPa 0,0 l/m 6,4 km/h (2 Bft) NO 45 0 min 0,000 mm 0,0 UV-I 26 W/m 6,0 C 7,3 C 8,0 km/h (2 Bft) 100,00 %
20.09.2020 07:25 8,2 C 86 % 1017,7 hPa 0,0 l/m 6,4 km/h (2 Bft) NO 45 0 min 0,000 mm 0,0 UV-I 26 W/m 6,0 C 7,3 C 8,0 km/h (2 Bft) 100,00 %
20.09.2020 07:24 8,2 C 86 % 1017,8 hPa 0,0 l/m 4,8 km/h (1 Bft) NO 45 0 min 0,000 mm 0,0 UV-I 25 W/m 6,0 C 7,8 C 6,4 km/h (2 Bft) 100,00 %
20.09.2020 07:23 8,2 C 86 % 1017,8 hPa 0,0 l/m 4,8 km/h (1 Bft) NO 45 0 min 0,000 mm 0,0 UV-I 25 W/m 6,0 C 7,8 C 8,0 km/h (2 Bft) 95,65 %
20.09.2020 07:22 8,2 C 86 % 1017,7 hPa 0,0 l/m 4,8 km/h (1 Bft) NO 45 0 min 0,000 mm 0,0 UV-I 25 W/m 6,0 C 7,8 C 8,0 km/h (2 Bft) 100,00 %
20.09.2020 07:21 8,1 C 86 % 1017,8 hPa 0,0 l/m 4,8 km/h (1 Bft) NO 45 0 min 0,000 mm 0,0 UV-I 23 W/m 5,9 C 7,7 C 6,4 km/h (2 Bft) 95,65 %
20.09.2020 07:20 8,1 C 86 % 1017,8 hPa 0,0 l/m 6,4 km/h (2 Bft) NO 45 0 min 0,000 mm 0,0 UV-I 23 W/m 5,9 C 7,2 C 8,0 km/h (2 Bft) 100,00 %
20.09.2020 07:19 8,1 C 86 % 1017,8 hPa 0,0 l/m 6,4 km/h (2 Bft) NO 45 0 min 0,000 mm 0,0 UV-I 23 W/m 5,9 C 7,2 C 8,0 km/h (2 Bft) 100,00 %
20.09.2020 07:18 8,1 C 86 % 1017,7 hPa 0,0 l/m 8,0 km/h (2 Bft) O-NO 67 0 min 0,000 mm 0,0 UV-I 23 W/m 5,9 C 6,8 C 9,7 km/h (2 Bft) 100,00 %
20.09.2020 07:17 8,1 C 86 % 1017,7 hPa 0,0 l/m 8,0 km/h (2 Bft) NO 45 0 min 0,000 mm 0,0 UV-I 21 W/m 5,9 C 6,8 C 9,7 km/h (2 Bft) 100,00 %
20.09.2020 07:16 8,1 C 86 % 1017,7 hPa 0,0 l/m 9,7 km/h (2 Bft) NO 45 0 min 0,000 mm 0,0 UV-I 21 W/m 5,9 C 6,4 C 12,9 km/h (3 Bft) 95,65 %
20.09.2020 07:15 8,1 C 86 % 1017,8 hPa 0,0 l/m 9,7 km/h (2 Bft) NO 45 0 min 0,000 mm 0,0 UV-I 21 W/m 5,9 C 6,4 C 14,5 km/h (3 Bft) 100,00 %
20.09.2020 07:14 8,1 C 86 % 1017,7 hPa 0,0 l/m 11,3 km/h (2 Bft) NO 45 0 min 0,000 mm 0,0 UV-I 19 W/m 5,9 C 6,1 C 14,5 km/h (3 Bft) 100,00 %
20.09.2020 07:13 8,1 C 86 % 1017,7 hPa 0,0 l/m 11,3 km/h (2 Bft) NO 45 0 min 0,000 mm 0,0 UV-I 19 W/m 5,9 C 6,1 C 14,5 km/h (3 Bft) 95,65 %
20.09.2020 07:12 8,1 C 86 % 1017,7 hPa 0,0 l/m 9,7 km/h (2 Bft) NO 45 0 min 0,000 mm 0,0 UV-I 19 W/m 5,9 C 6,4 C 11,3 km/h (2 Bft) 100,00 %
20.09.2020 07:11 8,1 C 86 % 1017,7 hPa 0,0 l/m 9,7 km/h (2 Bft) NO 45 0 min 0,000 mm 0,0 UV-I 19 W/m 5,9 C 6,4 C 11,3 km/h (2 Bft) 95,65 %
20.09.2020 07:10 8,1 C 86 % 1017,8 hPa 0,0 l/m 9,7 km/h (2 Bft) NO 45 0 min 0,000 mm 0,0 UV-I 18 W/m 5,9 C 6,4 C 11,3 km/h (2 Bft) 100,00 %
20.09.2020 07:09 8,0 C 86 % 1017,7 hPa 0,0 l/m 9,7 km/h (2 Bft) NO 45 0 min 0,000 mm 0,0 UV-I 18 W/m 5,8 C 6,3 C 12,9 km/h (3 Bft) 95,65 %
20.09.2020 07:08 8,0 C 86 % 1017,7 hPa 0,0 l/m 11,3 km/h (2 Bft) NO 45 0 min 0,000 mm 0,0 UV-I 16 W/m 5,8 C 6,0 C 14,5 km/h (3 Bft) 95,65 %
20.09.2020 07:07 8,0 C 86 % 1017,6 hPa 0,0 l/m 11,3 km/h (2 Bft) O-NO 67 0 min 0,000 mm 0,0 UV-I 16 W/m 5,8 C 6,0 C 14,5 km/h (3 Bft) 100,00 %
20.09.2020 07:06 8,0 C 86 % 1017,6 hPa 0,0 l/m 9,7 km/h (2 Bft) NO 45 0 min 0,000 mm 0,0 UV-I 16 W/m 5,8 C 6,3 C 14,5 km/h (3 Bft) 100,00 %
20.09.2020 07:05 8,0 C 86 % 1017,6 hPa 0,0 l/m 9,7 km/h (2 Bft) NO 45 0 min 0,000 mm 0,0 UV-I 14 W/m 5,8 C 6,3 C 14,5 km/h (3 Bft) 100,00 %
20.09.2020 07:04 8,0 C 86 % 1017,7 hPa 0,0 l/m 8,0 km/h (2 Bft) NO 45 0 min 0,000 mm 0,0 UV-I 14 W/m 5,8 C 6,7 C 9,7 km/h (2 Bft) 100,00 %
20.09.2020 07:03 8,0 C 86 % 1017,6 hPa 0,0 l/m 9,7 km/h (2 Bft) O-NO 67 0 min 0,000 mm 0,0 UV-I 12 W/m 5,8 C 6,3 C 11,3 km/h (2 Bft) 100,00 %
20.09.2020 07:02 8,0 C 86 % 1017,5 hPa 0,0 l/m 8,0 km/h (2 Bft) NO 45 0 min 0,000 mm 0,0 UV-I 12 W/m 5,8 C 6,7 C 9,7 km/h (2 Bft) 91,30 %
20.09.2020 07:01 8,0 C 86 % 1017,6 hPa 0,0 l/m 8,0 km/h (2 Bft) O-NO 67 0 min 0,000 mm 0,0 UV-I 12 W/m 5,8 C 6,7 C 9,7 km/h (2 Bft) 100,00 %
20.09.2020 07:00 8,1 C 86 % 1017,6 hPa 0,0 l/m 8,0 km/h (2 Bft) NO 45 0 min 0,000 mm 0,0 UV-I 11 W/m 5,9 C 6,8 C 9,7 km/h (2 Bft) 100,00 %
20.09.2020 06:59 8,1 C 85 % 1017,6 hPa 0,0 l/m 6,4 km/h (2 Bft) NO 45 0 min 0,000 mm 0,0 UV-I 11 W/m 5,7 C 7,2 C 9,7 km/h (2 Bft) 100,00 %
20.09.2020 06:58 8,1 C 85 % 1017,7 hPa 0,0 l/m 8,0 km/h (2 Bft) NO 45 0 min 0,000 mm 0,0 UV-I 9 W/m 5,7 C 6,8 C 12,9 km/h (3 Bft) 95,65 %
20.09.2020 06:57 8,1 C 85 % 1017,6 hPa 0,0 l/m 8,0 km/h (2 Bft) NO 45 0 min 0,000 mm 0,0 UV-I 9 W/m 5,7 C 6,8 C 9,7 km/h (2 Bft) 95,65 %
20.09.2020 06:56 8,1 C 85 % 1017,7 hPa 0,0 l/m 8,0 km/h (2 Bft) NO 45 0 min 0,000 mm 0,0 UV-I 9 W/m 5,7 C 6,8 C 9,7 km/h (2 Bft) 100,00 %
20.09.2020 06:55 8,1 C 85 % 1017,7 hPa 0,0 l/m 9,7 km/h (2 Bft) NO 45 0 min 0,000 mm 0,0 UV-I 7 W/m 5,7 C 6,4 C 11,3 km/h (2 Bft) 95,65 %
20.09.2020 06:54 8,1 C 85 % 1017,6 hPa 0,0 l/m 9,7 km/h (2 Bft) NO 45 0 min 0,000 mm 0,0 UV-I 7 W/m 5,7 C 6,4 C 12,9 km/h (3 Bft) 100,00 %
20.09.2020 06:53 8,1 C 85 % 1017,7 hPa 0,0 l/m 8,0 km/h (2 Bft) NO 45 0 min 0,000 mm 0,0 UV-I 5 W/m 5,7 C 6,8 C 11,3 km/h (2 Bft) 100,00 %
20.09.2020 06:52 8,1 C 85 % 1017,7 hPa 0,0 l/m 6,4 km/h (2 Bft) NO 45 0 min 0,000 mm 0,0 UV-I 5 W/m 5,7 C 7,2 C 9,7 km/h (2 Bft) 95,65 %
20.09.2020 06:51 8,1 C 85 % 1017,7 hPa 0,0 l/m 6,4 km/h (2 Bft) NO 45 0 min 0,000 mm 0,0 UV-I 5 W/m 5,7 C 7,2 C 9,7 km/h (2 Bft) 100,00 %
20.09.2020 06:50 8,2 C 85 % 1017,7 hPa 0,0 l/m 9,7 km/h (2 Bft) O-NO 67 0 min 0,000 mm 0,0 UV-I 0 W/m 5,8 C 6,5 C 11,3 km/h (2 Bft) 95,65 %
20.09.2020 06:49 8,2 C 85 % 1017,7 hPa 0,0 l/m 9,7 km/h (2 Bft) O-NO 67 0 min 0,000 mm 0,0 UV-I 0 W/m 5,8 C 6,5 C 11,3 km/h (2 Bft) 100,00 %
20.09.2020 06:48 8,2 C 85 % 1017,7 hPa 0,0 l/m 9,7 km/h (2 Bft) O-NO 67 0 min 0,000 mm 0,0 UV-I 0 W/m 5,8 C 6,5 C 12,9 km/h (3 Bft) 95,65 %
20.09.2020 06:47 8,2 C 85 % 1017,7 hPa 0,0 l/m 9,7 km/h (2 Bft) NO 45 0 min 0,000 mm 0,0 UV-I 0 W/m 5,8 C 6,5 C 11,3 km/h (2 Bft) 100,00 %
20.09.2020 06:46 8,2 C 85 % 1017,7 hPa 0,0 l/m 6,4 km/h (2 Bft) NO 45 0 min 0,000 mm 0,0 UV-I 0 W/m 5,8 C 7,3 C 9,7 km/h (2 Bft) 100,00 %
20.09.2020 06:45 8,2 C 85 % 1017,5 hPa 0,0 l/m 8,0 km/h (2 Bft) NO 45 0 min 0,000 mm 0,0 UV-I 0 W/m 5,8 C 6,9 C 9,7 km/h (2 Bft) 95,65 %
20.09.2020 06:44 8,2 C 85 % 1017,6 hPa 0,0 l/m 6,4 km/h (2 Bft) O-NO 67 0 min 0,000 mm 0,0 UV-I 0 W/m 5,8 C 7,3 C 8,0 km/h (2 Bft) 95,65 %
20.09.2020 06:43 8,1 C 85 % 1017,6 hPa 0,0 l/m 8,0 km/h (2 Bft) NO 45 0 min 0,000 mm 0,0 UV-I 0 W/m 5,7 C 6,8 C 9,7 km/h (2 Bft) 95,65 %
20.09.2020 06:42 8,1 C 85 % 1017,6 hPa 0,0 l/m 6,4 km/h (2 Bft) NO 45 0 min 0,000 mm 0,0 UV-I 0 W/m 5,7 C 7,2 C 9,7 km/h (2 Bft) 100,00 %
20.09.2020 06:41 8,1 C 85 % 1017,7 hPa 0,0 l/m 4,8 km/h (1 Bft) O-NO 67 0 min 0,000 mm 0,0 UV-I 0 W/m 5,7 C 7,7 C 8,0 km/h (2 Bft) 91,30 %
20.09.2020 06:40 8,1 C 85 % 1017,7 hPa 0,0 l/m 4,8 km/h (1 Bft) O-NO 67 0 min 0,000 mm 0,0 UV-I 0 W/m 5,7 C 7,7 C 6,4 km/h (2 Bft) 100,00 %
20.09.2020 06:39 8,1 C 85 % 1017,7 hPa 0,0 l/m 4,8 km/h (1 Bft) O-NO 67 0 min 0,000 mm 0,0 UV-I 0 W/m 5,7 C 7,7 C 8,0 km/h (2 Bft) 95,65 %
20.09.2020 06:38 8,1 C 85 % 1017,7 hPa 0,0 l/m 3,2 km/h (1 Bft) O-NO 67 0 min 0,000 mm 0,0 UV-I 0 W/m 5,7 C 8,1 C 3,2 km/h (1 Bft) 95,65 %
20.09.2020 06:37 8,1 C 85 % 1017,7 hPa 0,0 l/m 3,2 km/h (1 Bft) O-NO 67 0 min 0,000 mm 0,0 UV-I 0 W/m 5,7 C 8,1 C 4,8 km/h (1 Bft) 100,00 %
20.09.2020 06:36 8,1 C 85 % 1017,7 hPa 0,0 l/m 3,2 km/h (1 Bft) O-NO 67 0 min 0,000 mm 0,0 UV-I 0 W/m 5,7 C 8,1 C 4,8 km/h (1 Bft) 95,65 %
20.09.2020 06:35 8,1 C 84 % 1017,7 hPa 0,0 l/m 1,6 km/h (1 Bft) O-NO 67 0 min 0,000 mm 0,0 UV-I 0 W/m 5,6 C 8,1 C 3,2 km/h (1 Bft) 100,00 %
20.09.2020 06:34 8,1 C 84 % 1017,7 hPa 0,0 l/m 1,6 km/h (1 Bft) O-NO 67 0 min 0,000 mm 0,0 UV-I 0 W/m 5,6 C 8,1 C 4,8 km/h (1 Bft) 91,30 %
20.09.2020 06:33 8,2 C 84 % 1017,8 hPa 0,0 l/m 3,2 km/h (1 Bft) O-NO 67 0 min 0,000 mm 0,0 UV-I 0 W/m 5,7 C 8,2 C 4,8 km/h (1 Bft) 100,00 %
20.09.2020 06:32 8,3 C 84 % 1017,7 hPa 0,0 l/m 3,2 km/h (1 Bft) O-NO 67 0 min 0,000 mm 0,0 UV-I 0 W/m 5,8 C 8,3 C 4,8 km/h (1 Bft) 95,65 %
20.09.2020 06:31 8,3 C 84 % 1017,7 hPa 0,0 l/m 3,2 km/h (1 Bft) O-NO 67 0 min 0,000 mm 0,0 UV-I 0 W/m 5,8 C 8,3 C 4,8 km/h (1 Bft) 95,65 %
20.09.2020 06:30 8,4 C 84 % 1017,7 hPa 0,0 l/m 3,2 km/h (1 Bft) O-NO 67 0 min 0,000 mm 0,0 UV-I 0 W/m 5,9 C 8,4 C 3,2 km/h (1 Bft) 95,65 %
20.09.2020 06:29 8,4 C 84 % 1017,7 hPa 0,0 l/m 3,2 km/h (1 Bft) O-NO 67 0 min 0,000 mm 0,0 UV-I 0 W/m 5,9 C 8,4 C 4,8 km/h (1 Bft) 95,65 %
20.09.2020 06:28 8,4 C 84 % 1017,7 hPa 0,0 l/m 3,2 km/h (1 Bft) O-NO 67 0 min 0,000 mm 0,0 UV-I 0 W/m 5,9 C 8,4 C 4,8 km/h (1 Bft) 100,00 %
20.09.2020 06:27 8,4 C 84 % 1017,7 hPa 0,0 l/m 3,2 km/h (1 Bft) O-NO 67 0 min 0,000 mm 0,0 UV-I 0 W/m 5,9 C 8,4 C 3,2 km/h (1 Bft) 91,30 %
20.09.2020 06:26 8,4 C 85 % 1017,7 hPa 0,0 l/m 3,2 km/h (1 Bft) O-NO 67 0 min 0,000 mm 0,0 UV-I 0 W/m 6,0 C 8,4 C 4,8 km/h (1 Bft) 100,00 %
20.09.2020 06:25 8,3 C 85 % 1017,8 hPa 0,0 l/m 3,2 km/h (1 Bft) O-NO 67 0 min 0,000 mm 0,0 UV-I 0 W/m 5,9 C 8,3 C 4,8 km/h (1 Bft) 95,65 %
20.09.2020 06:24 8,3 C 85 % 1017,7 hPa 0,0 l/m 3,2 km/h (1 Bft) O-NO 67 0 min 0,000 mm 0,0 UV-I 0 W/m 5,9 C 8,3 C 4,8 km/h (1 Bft) 100,00 %
20.09.2020 06:23 8,3 C 85 % 1017,7 hPa 0,0 l/m 3,2 km/h (1 Bft) O-NO 67 0 min 0,000 mm 0,0 UV-I 0 W/m 5,9 C 8,3 C 4,8 km/h (1 Bft) 95,65 %
20.09.2020 06:22 8,2 C 85 % 1017,8 hPa 0,0 l/m 1,6 km/h (1 Bft) O-NO 67 0 min 0,000 mm 0,0 UV-I 0 W/m 5,8 C 8,2 C 3,2 km/h (1 Bft) 100,00 %
20.09.2020 06:21 8,2 C 85 % 1017,7 hPa 0,0 l/m 3,2 km/h (1 Bft) O-NO 67 0 min 0,000 mm 0,0 UV-I 0 W/m 5,8 C 8,2 C 3,2 km/h (1 Bft) 95,65 %
20.09.2020 06:20 8,2 C 85 % 1017,7 hPa 0,0 l/m 1,6 km/h (1 Bft) O-NO 67 0 min 0,000 mm 0,0 UV-I 0 W/m 5,8 C 8,2 C 3,2 km/h (1 Bft) 91,30 %
20.09.2020 06:19 8,1 C 85 % 1017,8 hPa 0,0 l/m 3,2 km/h (1 Bft) O-NO 67 0 min 0,000 mm 0,0 UV-I 0 W/m 5,7 C 8,1 C 4,8 km/h (1 Bft) 100,00 %
20.09.2020 06:18 8,1 C 85 % 1017,7 hPa 0,0 l/m 3,2 km/h (1 Bft) O-NO 67 0 min 0,000 mm 0,0 UV-I 0 W/m 5,7 C 8,1 C 4,8 km/h (1 Bft) 95,65 %
20.09.2020 06:17 8,1 C 85 % 1017,7 hPa 0,0 l/m 3,2 km/h (1 Bft) O-NO 67 0 min 0,000 mm 0,0 UV-I 0 W/m 5,7 C 8,1 C 3,2 km/h (1 Bft) 100,00 %
20.09.2020 06:16 8,1 C 85 % 1017,8 hPa 0,0 l/m 3,2 km/h (1 Bft) O-NO 67 0 min 0,000 mm 0,0 UV-I 0 W/m 5,7 C 8,1 C 4,8 km/h (1 Bft) 95,65 %
20.09.2020 06:15 8,0 C 85 % 1017,7 hPa 0,0 l/m 3,2 km/h (1 Bft) O-NO 67 0 min 0,000 mm 0,0 UV-I 0 W/m 5,6 C 8,0 C 4,8 km/h (1 Bft) 100,00 %
20.09.2020 06:14 8,0 C 85 % 1017,7 hPa 0,0 l/m 1,6 km/h (1 Bft) O-NO 67 0 min 0,000 mm 0,0 UV-I 0 W/m 5,6 C 8,0 C 4,8 km/h (1 Bft) 95,65 %
20.09.2020 06:13 8,0 C 85 % 1017,7 hPa 0,0 l/m 3,2 km/h (1 Bft) O-NO 67 0 min 0,000 mm 0,0 UV-I 0 W/m 5,6 C 8,0 C 4,8 km/h (1 Bft) 95,65 %
20.09.2020 06:12 8,0 C 85 % 1017,7 hPa 0,0 l/m 4,8 km/h (1 Bft) O-NO 67 0 min 0,000 mm 0,0 UV-I 0 W/m 5,6 C 7,6 C 4,8 km/h (1 Bft) 95,65 %
20.09.2020 06:11 8,1 C 85 % 1017,7 hPa 0,0 l/m 3,2 km/h (1 Bft) O-NO 67 0 min 0,000 mm 0,0 UV-I 0 W/m 5,7 C 8,1 C 4,8 km/h (1 Bft) 91,30 %
20.09.2020 06:10 8,1 C 85 % 1017,7 hPa 0,0 l/m 1,6 km/h (1 Bft) O-NO 67 0 min 0,000 mm 0,0 UV-I 0 W/m 5,7 C 8,1 C 4,8 km/h (1 Bft) 95,65 %
20.09.2020 06:09 8,1 C 85 % 1017,7 hPa 0,0 l/m 3,2 km/h (1 Bft) O-NO 67 0 min 0,000 mm 0,0 UV-I 0 W/m 5,7 C 8,1 C 4,8 km/h (1 Bft) 91,30 %
20.09.2020 06:08 8,1 C 85 % 1017,7 hPa 0,0 l/m 1,6 km/h (1 Bft) O-NO 67 0 min 0,000 mm 0,0 UV-I 0 W/m 5,7 C 8,1 C 3,2 km/h (1 Bft) 100,00 %
20.09.2020 06:07 8,1 C 85 % 1017,7 hPa 0,0 l/m 3,2 km/h (1 Bft) O-NO 67 0 min 0,000 mm 0,0 UV-I 0 W/m 5,7 C 8,1 C 4,8 km/h (1 Bft) 95,65 %
20.09.2020 06:06 8,1 C 85 % 1017,6 hPa 0,0 l/m 1,6 km/h (1 Bft) O-NO 67 0 min 0,000 mm 0,0 UV-I 0 W/m 5,7 C 8,1 C 3,2 km/h (1 Bft) 95,65 %
20.09.2020 06:05 8,1 C 85 % 1017,8 hPa 0,0 l/m 1,6 km/h (1 Bft) O-NO 67 0 min 0,000 mm 0,0 UV-I 0 W/m 5,7 C 8,1 C 3,2 km/h (1 Bft) 95,65 %
20.09.2020 06:04 8,1 C 85 % 1017,7 hPa 0,0 l/m 1,6 km/h (1 Bft) O-NO 67 0 min 0,000 mm 0,0 UV-I 0 W/m 5,7 C 8,1 C 3,2 km/h (1 Bft) 100,00 %
20.09.2020 06:03 8,1 C 84 % 1017,7 hPa 0,0 l/m 3,2 km/h (1 Bft) O-NO 67 0 min 0,000 mm 0,0 UV-I 0 W/m 5,6 C 8,1 C 3,2 km/h (1 Bft) 95,65 %
20.09.2020 06:02 8,2 C 84 % 1017,7 hPa 0,0 l/m 3,2 km/h (1 Bft) O-NO 67 0 min 0,000 mm 0,0 UV-I 0 W/m 5,7 C 8,2 C 4,8 km/h (1 Bft) 100,00 %
20.09.2020 06:01 8,1 C 85 % 1017,7 hPa 0,0 l/m 4,8 km/h (1 Bft) O-NO 67 0 min 0,000 mm 0,0 UV-I 0 W/m 5,7 C 7,7 C 4,8 km/h (1 Bft) 100,00 %
20.09.2020 06:00 8,2 C 84 % 1017,7 hPa 0,0 l/m 3,2 km/h (1 Bft) O-NO 67 0 min 0,025 mm 0,0 UV-I 0 W/m 5,7 C 8,2 C 4,8 km/h (1 Bft) 100,00 %
20.09.2020 05:59 8,2 C 85 % 1017,6 hPa 0,0 l/m 3,2 km/h (1 Bft) O-NO 67 0 min 0,000 mm 0,0 UV-I 0 W/m 5,8 C 8,2 C 3,2 km/h (1 Bft) 95,65 %
20.09.2020 05:58 8,2 C 85 % 1017,7 hPa 0,0 l/m 1,6 km/h (1 Bft) O-NO 67 0 min 0,000 mm 0,0 UV-I 0 W/m 5,8 C 8,2 C 1,6 km/h (1 Bft) 100,00 %
20.09.2020 05:57 8,2 C 85 % 1017,7 hPa 0,0 l/m 1,6 km/h (1 Bft) O-NO 67 0 min 0,000 mm 0,0 UV-I 0 W/m 5,8 C 8,2 C 1,6 km/h (1 Bft) 100,00 %
20.09.2020 05:56 8,2 C 85 % 1017,7 hPa 0,0 l/m 1,6 km/h (1 Bft) O-NO 67 0 min 0,000 mm 0,0 UV-I 0 W/m 5,8 C 8,2 C 3,2 km/h (1 Bft) 100,00 %
20.09.2020 05:55 8,2 C 85 % 1017,7 hPa 0,0 l/m 1,6 km/h (1 Bft) O-NO 67 0 min 0,000 mm 0,0 UV-I 0 W/m 5,8 C 8,2 C 3,2 km/h (1 Bft) 100,00 %
20.09.2020 05:54 8,2 C 85 % 1017,7 hPa 0,0 l/m 1,6 km/h (1 Bft) O-NO 67 0 min 0,000 mm 0,0 UV-I 0 W/m 5,8 C 8,2 C 3,2 km/h (1 Bft) 100,00 %
20.09.2020 05:53 8,1 C 85 % 1017,7 hPa 0,0 l/m 3,2 km/h (1 Bft) O-NO 67 0 min 0,000 mm 0,0 UV-I 0 W/m 5,7 C 8,1 C 4,8 km/h (1 Bft) 95,65 %
20.09.2020 05:52 8,1 C 85 % 1017,7 hPa 0,0 l/m 3,2 km/h (1 Bft) O-NO 67 0 min 0,000 mm 0,0 UV-I 0 W/m 5,7 C 8,1 C 4,8 km/h (1 Bft) 95,65 %
20.09.2020 05:51 8,1 C 85 % 1017,7 hPa 0,0 l/m 3,2 km/h (1 Bft) O-NO 67 0 min 0,000 mm 0,0 UV-I 0 W/m 5,7 C 8,1 C 6,4 km/h (2 Bft) 95,65 %
20.09.2020 05:50 8,1 C 84 % 1017,7 hPa 0,0 l/m 4,8 km/h (1 Bft) NO 45 0 min 0,000 mm 0,0 UV-I 0 W/m 5,6 C 7,7 C 6,4 km/h (2 Bft) 95,65 %
20.09.2020 05:49 8,1 C 84 % 1017,7 hPa 0,0 l/m 4,8 km/h (1 Bft) NO 45 0 min 0,000 mm 0,0 UV-I 0 W/m 5,6 C 7,7 C 6,4 km/h (2 Bft) 100,00 %
20.09.2020 05:48 8,1 C 84 % 1017,7 hPa 0,0 l/m 4,8 km/h (1 Bft) NO 45 0 min 0,000 mm 0,0 UV-I 0 W/m 5,6 C 7,7 C 8,0 km/h (2 Bft) 100,00 %
20.09.2020 05:47 8,2 C 84 % 1017,6 hPa 0,0 l/m 1,6 km/h (1 Bft) NO 45 0 min 0,000 mm 0,0 UV-I 0 W/m 5,7 C 8,2 C 3,2 km/h (1 Bft) 100,00 %
20.09.2020 05:46 8,2 C 84 % 1017,5 hPa 0,0 l/m 3,2 km/h (1 Bft) NO 45 0 min 0,000 mm 0,0 UV-I 0 W/m 5,7 C 8,2 C 4,8 km/h (1 Bft) 100,00 %
20.09.2020 05:45 8,3 C 84 % 1017,7 hPa 0,0 l/m 3,2 km/h (1 Bft) NO 45 0 min 0,000 mm 0,0 UV-I 0 W/m 5,8 C 8,3 C 4,8 km/h (1 Bft) 91,30 %
20.09.2020 05:44 8,3 C 84 % 1017,7 hPa 0,0 l/m 3,2 km/h (1 Bft) NO 45 0 min 0,000 mm 0,0 UV-I 0 W/m 5,8 C 8,3 C 4,8 km/h (1 Bft) 100,00 %
20.09.2020 05:43 8,3 C 84 % 1017,7 hPa 0,0 l/m 3,2 km/h (1 Bft) NO 45 0 min 0,000 mm 0,0 UV-I 0 W/m 5,8 C 8,3 C 6,4 km/h (2 Bft) 100,00 %
20.09.2020 05:42 8,3 C 84 % 1017,7 hPa 0,0 l/m 4,8 km/h (1 Bft) O-NO 67 0 min 0,000 mm 0,0 UV-I 0 W/m 5,8 C 7,9 C 6,4 km/h (2 Bft) 100,00 %
20.09.2020 05:41 8,3 C 84 % 1017,7 hPa 0,0 l/m 6,4 km/h (2 Bft) O-NO 67 0 min 0,000 mm 0,0 UV-I 0 W/m 5,8 C 7,4 C 8,0 km/h (2 Bft) 100,00 %
20.09.2020 05:40 8,3 C 84 % 1017,7 hPa 0,0 l/m 4,8 km/h (1 Bft) NO 45 0 min 0,000 mm 0,0 UV-I 0 W/m 5,8 C 7,9 C 9,7 km/h (2 Bft) 95,65 %
20.09.2020 05:39 8,3 C 84 % 1017,7 hPa 0,0 l/m 6,4 km/h (2 Bft) NO 45 0 min 0,000 mm 0,0 UV-I 0 W/m 5,8 C 7,4 C 6,4 km/h (2 Bft) 95,65 %
20.09.2020 05:38 8,3 C 84 % 1017,7 hPa 0,0 l/m 3,2 km/h (1 Bft) NO 45 0 min 0,000 mm 0,0 UV-I 0 W/m 5,8 C 8,3 C 4,8 km/h (1 Bft) 95,65 %
20.09.2020 05:37 8,4 C 84 % 1017,8 hPa 0,0 l/m 4,8 km/h (1 Bft) NO 45 0 min 0,000 mm 0,0 UV-I 0 W/m 5,9 C 8,0 C 6,4 km/h (2 Bft) 95,65 %
20.09.2020 05:36 8,4 C 83 % 1017,8 hPa 0,0 l/m 4,8 km/h (1 Bft) NO 45 0 min 0,000 mm 0,0 UV-I 0 W/m 5,7 C 8,0 C 8,0 km/h (2 Bft) 100,00 %
20.09.2020 05:35 8,5 C 83 % 1017,8 hPa 0,0 l/m 3,2 km/h (1 Bft) NO 45 0 min 0,000 mm 0,0 UV-I 0 W/m 5,8 C 8,5 C 4,8 km/h (1 Bft) 100,00 %
20.09.2020 05:34 8,6 C 83 % 1017,7 hPa 0,0 l/m 6,4 km/h (2 Bft) NO 45 0 min 0,000 mm 0,0 UV-I 0 W/m 5,9 C 7,8 C 8,0 km/h (2 Bft) 95,65 %
20.09.2020 05:33 8,6 C 83 % 1017,8 hPa 0,0 l/m 4,8 km/h (1 Bft) NO 45 0 min 0,000 mm 0,0 UV-I 0 W/m 5,9 C 8,2 C 6,4 km/h (2 Bft) 95,65 %
20.09.2020 05:32 8,6 C 83 % 1017,8 hPa 0,0 l/m 4,8 km/h (1 Bft) NO 45 0 min 0,000 mm 0,0 UV-I 0 W/m 5,9 C 8,2 C 8,0 km/h (2 Bft) 100,00 %
20.09.2020 05:31 8,6 C 83 % 1017,9 hPa 0,0 l/m 3,2 km/h (1 Bft) NO 45 0 min 0,000 mm 0,0 UV-I 0 W/m 5,9 C 8,6 C 6,4 km/h (2 Bft) 95,65 %
20.09.2020 05:30 8,6 C 83 % 1017,8 hPa 0,0 l/m 1,6 km/h (1 Bft) NO 45 0 min 0,000 mm 0,0 UV-I 0 W/m 5,9 C 8,6 C 3,2 km/h (1 Bft) 100,00 %
20.09.2020 05:29 8,7 C 83 % 1017,8 hPa 0,0 l/m 1,6 km/h (1 Bft) NO 45 0 min 0,000 mm 0,0 UV-I 0 W/m 6,0 C 8,7 C 4,8 km/h (1 Bft) 100,00 %
20.09.2020 05:28 8,7 C 83 % 1017,9 hPa 0,0 l/m 0,0 km/h (0 Bft) NO 45 0 min 0,000 mm 0,0 UV-I 0 W/m 6,0 C 8,7 C 1,6 km/h (1 Bft) 95,65 %
20.09.2020 05:27 8,6 C 83 % 1017,8 hPa 0,0 l/m 3,2 km/h (1 Bft) NO 45 0 min 0,000 mm 0,0 UV-I 0 W/m 5,9 C 8,6 C 4,8 km/h (1 Bft) 95,65 %
20.09.2020 05:26 8,6 C 83 % 1017,9 hPa 0,0 l/m 3,2 km/h (1 Bft) NO 45 0 min 0,000 mm 0,0 UV-I 0 W/m 5,9 C 8,6 C 4,8 km/h (1 Bft) 100,00 %
20.09.2020 05:25 8,6 C 83 % 1017,8 hPa 0,0 l/m 1,6 km/h (1 Bft) NO 45 0 min 0,000 mm 0,0 UV-I 0 W/m 5,9 C 8,6 C 3,2 km/h (1 Bft) 100,00 %
20.09.2020 05:24 8,6 C 83 % 1017,8 hPa 0,0 l/m 1,6 km/h (1 Bft) O-NO 67 0 min 0,000 mm 0,0 UV-I 0 W/m 5,9 C 8,6 C 4,8 km/h (1 Bft) 95,65 %
20.09.2020 05:23 8,7 C 83 % 1017,8 hPa 0,0 l/m 1,6 km/h (1 Bft) O-NO 67 0 min 0,000 mm 0,0 UV-I 0 W/m 6,0 C 8,7 C 3,2 km/h (1 Bft) 91,30 %
20.09.2020 05:22 8,7 C 83 % 1017,8 hPa 0,0 l/m 1,6 km/h (1 Bft) O-NO 67 0 min 0,000 mm 0,0 UV-I 0 W/m 6,0 C 8,7 C 3,2 km/h (1 Bft) 100,00 %
20.09.2020 05:21 8,7 C 83 % 1017,9 hPa 0,0 l/m 3,2 km/h (1 Bft) O-NO 67 0 min 0,000 mm 0,0 UV-I 0 W/m 6,0 C 8,7 C 6,4 km/h (2 Bft) 100,00 %
20.09.2020 05:20 8,7 C 83 % 1017,9 hPa 0,0 l/m 4,8 km/h (1 Bft) NO 45 0 min 0,000 mm 0,0 UV-I 0 W/m 6,0 C 8,3 C 6,4 km/h (2 Bft) 95,65 %
20.09.2020 05:19 8,7 C 83 % 1017,9 hPa 0,0 l/m 3,2 km/h (1 Bft) O-NO 67 0 min 0,000 mm 0,0 UV-I 0 W/m 6,0 C 8,7 C 6,4 km/h (2 Bft) 100,00 %
20.09.2020 05:18 8,7 C 83 % 1017,9 hPa 0,0 l/m 1,6 km/h (1 Bft) O-NO 67 0 min 0,000 mm 0,0 UV-I 0 W/m 6,0 C 8,7 C 3,2 km/h (1 Bft) 100,00 %
20.09.2020 05:17 8,7 C 83 % 1018,0 hPa 0,0 l/m 3,2 km/h (1 Bft) O-NO 67 0 min 0,000 mm 0,0 UV-I 0 W/m 6,0 C 8,7 C 4,8 km/h (1 Bft) 95,65 %
20.09.2020 05:16 8,7 C 83 % 1017,9 hPa 0,0 l/m 1,6 km/h (1 Bft) O-NO 67 0 min 0,000 mm 0,0 UV-I 0 W/m 6,0 C 8,7 C 3,2 km/h (1 Bft) 100,00 %
20.09.2020 05:15 8,7 C 83 % 1017,9 hPa 0,0 l/m 3,2 km/h (1 Bft) O-NO 67 0 min 0,000 mm 0,0 UV-I 0 W/m 6,0 C 8,7 C 4,8 km/h (1 Bft) 95,65 %
20.09.2020 05:14 8,7 C 83 % 1018,0 hPa 0,0 l/m 3,2 km/h (1 Bft) O-NO 67 0 min 0,000 mm 0,0 UV-I 0 W/m 6,0 C 8,7 C 3,2 km/h (1 Bft) 100,00 %
20.09.2020 05:13 8,6 C 83 % 1018,0 hPa 0,0 l/m 1,6 km/h (1 Bft) O-NO 67 0 min 0,000 mm 0,0 UV-I 0 W/m 5,9 C 8,6 C 3,2 km/h (1 Bft) 100,00 %
20.09.2020 05:12 8,6 C 84 % 1017,9 hPa 0,0 l/m 3,2 km/h (1 Bft) O-NO 67 0 min 0,000 mm 0,0 UV-I 0 W/m 6,1 C 8,6 C 4,8 km/h (1 Bft) 95,65 %
20.09.2020 05:11 8,5 C 84 % 1017,9 hPa 0,0 l/m 3,2 km/h (1 Bft) O-NO 67 0 min 0,000 mm 0,0 UV-I 0 W/m 6,0 C 8,5 C 4,8 km/h (1 Bft) 100,00 %
20.09.2020 05:10 8,4 C 84 % 1017,9 hPa 0,0 l/m 3,2 km/h (1 Bft) NO 45 0 min 0,000 mm 0,0 UV-I 0 W/m 5,9 C 8,4 C 3,2 km/h (1 Bft) 95,65 %
20.09.2020 05:09 8,4 C 84 % 1017,9 hPa 0,0 l/m 1,6 km/h (1 Bft) NO 45 0 min 0,000 mm 0,0 UV-I 0 W/m 5,9 C 8,4 C 3,2 km/h (1 Bft) 100,00 %
20.09.2020 05:08 8,4 C 84 % 1018,0 hPa 0,0 l/m 1,6 km/h (1 Bft) NO 45 0 min 0,000 mm 0,0 UV-I 0 W/m 5,9 C 8,4 C 1,6 km/h (1 Bft) 100,00 %
20.09.2020 05:07 8,5 C 83 % 1017,9 hPa 0,0 l/m 1,6 km/h (1 Bft) NO 45 0 min 0,000 mm 0,0 UV-I 0 W/m 5,8 C 8,5 C 3,2 km/h (1 Bft) 95,65 %
20.09.2020 05:06 8,5 C 83 % 1017,9 hPa 0,0 l/m 1,6 km/h (1 Bft) NO 45 0 min 0,000 mm 0,0 UV-I 0 W/m 5,8 C 8,5 C 1,6 km/h (1 Bft) 100,00 %
20.09.2020 05:05 8,5 C 83 % 1017,8 hPa 0,0 l/m 3,2 km/h (1 Bft) NO 45 0 min 0,000 mm 0,0 UV-I 0 W/m 5,8 C 8,5 C 4,8 km/h (1 Bft) 100,00 %
20.09.2020 05:04 8,6 C 83 % 1017,9 hPa 0,0 l/m 3,2 km/h (1 Bft) NO 45 0 min 0,000 mm 0,0 UV-I 0 W/m 5,9 C 8,6 C 4,8 km/h (1 Bft) 100,00 %
20.09.2020 05:03 8,6 C 83 % 1018,0 hPa 0,0 l/m 1,6 km/h (1 Bft) O-NO 67 0 min 0,000 mm 0,0 UV-I 0 W/m 5,9 C 8,6 C 3,2 km/h (1 Bft) 95,65 %
20.09.2020 05:02 8,6 C 83 % 1018,0 hPa 0,0 l/m 1,6 km/h (1 Bft) O-NO 67 0 min 0,000 mm 0,0 UV-I 0 W/m 5,9 C 8,6 C 3,2 km/h (1 Bft) 100,00 %
20.09.2020 05:01 8,6 C 83 % 1017,9 hPa 0,0 l/m 1,6 km/h (1 Bft) O-NO 67 0 min 0,000 mm 0,0 UV-I 0 W/m 5,9 C 8,6 C 1,6 km/h (1 Bft) 100,00 %
20.09.2020 05:00 8,6 C 83 % 1017,9 hPa 0,0 l/m 1,6 km/h (1 Bft) O-NO 67 0 min 0,025 mm 0,0 UV-I 0 W/m 5,9 C 8,6 C 3,2 km/h (1 Bft) 100,00 %
20.09.2020 04:59 8,6 C 83 % 1017,9 hPa 0,0 l/m 3,2 km/h (1 Bft) O-NO 67 0 min 0,000 mm 0,0 UV-I 0 W/m 5,9 C 8,6 C 4,8 km/h (1 Bft) 100,00 %
20.09.2020 04:58 8,6 C 83 % 1017,9 hPa 0,0 l/m 1,6 km/h (1 Bft) O-NO 67 0 min 0,000 mm 0,0 UV-I 0 W/m 5,9 C 8,6 C 3,2 km/h (1 Bft) 100,00 %
20.09.2020 04:57 8,6 C 83 % 1017,9 hPa 0,0 l/m 1,6 km/h (1 Bft) O-NO 67 0 min 0,000 mm 0,0 UV-I 0 W/m 5,9 C 8,6 C 3,2 km/h (1 Bft) 100,00 %
20.09.2020 04:56 8,6 C 83 % 1017,9 hPa 0,0 l/m 1,6 km/h (1 Bft) O-NO 67 0 min 0,000 mm 0,0 UV-I 0 W/m 5,9 C 8,6 C 3,2 km/h (1 Bft) 95,65 %
20.09.2020 04:55 8,6 C 83 % 1017,9 hPa 0,0 l/m 1,6 km/h (1 Bft) O-NO 67 0 min 0,000 mm 0,0 UV-I 0 W/m 5,9 C 8,6 C 3,2 km/h (1 Bft) 95,65 %
20.09.2020 04:54 8,6 C 83 % 1018,0 hPa 0,0 l/m 1,6 km/h (1 Bft) O-NO 67 0 min 0,000 mm 0,0 UV-I 0 W/m 5,9 C 8,6 C 1,6 km/h (1 Bft) 100,00 %
20.09.2020 04:53 8,6 C 83 % 1018,0 hPa 0,0 l/m 3,2 km/h (1 Bft) O-NO 67 0 min 0,000 mm 0,0 UV-I 0 W/m 5,9 C 8,6 C 4,8 km/h (1 Bft) 100,00 %
20.09.2020 04:52 8,6 C 83 % 1017,9 hPa 0,0 l/m 3,2 km/h (1 Bft) O-NO 67 0 min 0,000 mm 0,0 UV-I 0 W/m 5,9 C 8,6 C 4,8 km/h (1 Bft) 100,00 %
20.09.2020 04:51 8,6 C 84 % 1017,9 hPa 0,0 l/m 3,2 km/h (1 Bft) NO 45 0 min 0,000 mm 0,0 UV-I 0 W/m 6,1 C 8,6 C 4,8 km/h (1 Bft) 100,00 %
20.09.2020 04:50 8,5 C 84 % 1017,8 hPa 0,0 l/m 1,6 km/h (1 Bft) NO 45 0 min 0,000 mm 0,0 UV-I 0 W/m 6,0 C 8,5 C 3,2 km/h (1 Bft) 95,65 %
20.09.2020 04:49 8,4 C 84 % 1017,8 hPa 0,0 l/m 4,8 km/h (1 Bft) NO 45 0 min 0,000 mm 0,0 UV-I 0 W/m 5,9 C 8,0 C 6,4 km/h (2 Bft) 91,30 %
20.09.2020 04:48 8,4 C 84 % 1017,8 hPa 0,0 l/m 1,6 km/h (1 Bft) N-NO 22 0 min 0,000 mm 0,0 UV-I 0 W/m 5,9 C 8,4 C 4,8 km/h (1 Bft) 91,30 %
20.09.2020 04:47 8,4 C 84 % 1017,8 hPa 0,0 l/m 3,2 km/h (1 Bft) N-NO 22 0 min 0,000 mm 0,0 UV-I 0 W/m 5,9 C 8,4 C 4,8 km/h (1 Bft) 100,00 %
20.09.2020 04:46 8,4 C 84 % 1017,8 hPa 0,0 l/m 3,2 km/h (1 Bft) N-NO 22 0 min 0,000 mm 0,0 UV-I 0 W/m 5,9 C 8,4 C 4,8 km/h (1 Bft) 95,65 %
20.09.2020 04:45 8,3 C 84 % 1017,8 hPa 0,0 l/m 6,4 km/h (2 Bft) NO 45 0 min 0,000 mm 0,0 UV-I 0 W/m 5,8 C 7,4 C 11,3 km/h (2 Bft) 95,65 %
20.09.2020 04:44 8,4 C 84 % 1017,9 hPa 0,0 l/m 6,4 km/h (2 Bft) NO 45 0 min 0,000 mm 0,0 UV-I 0 W/m 5,9 C 7,5 C 8,0 km/h (2 Bft) 100,00 %
20.09.2020 04:43 8,4 C 84 % 1017,9 hPa 0,0 l/m 8,0 km/h (2 Bft) NO 45 0 min 0,000 mm 0,0 UV-I 0 W/m 5,9 C 7,1 C 9,7 km/h (2 Bft) 95,65 %
20.09.2020 04:42 8,4 C 84 % 1017,9 hPa 0,0 l/m 8,0 km/h (2 Bft) NO 45 0 min 0,000 mm 0,0 UV-I 0 W/m 5,9 C 7,1 C 9,7 km/h (2 Bft) 95,65 %
20.09.2020 04:41 8,4 C 84 % 1017,9 hPa 0,0 l/m 8,0 km/h (2 Bft) NO 45 0 min 0,000 mm 0,0 UV-I 0 W/m 5,9 C 7,1 C 11,3 km/h (2 Bft) 95,65 %
20.09.2020 04:40 8,4 C 84 % 1017,9 hPa 0,0 l/m 9,7 km/h (2 Bft) NO 45 0 min 0,000 mm 0,0 UV-I 0 W/m 5,9 C 6,8 C 12,9 km/h (3 Bft) 100,00 %
20.09.2020 04:39 8,4 C 84 % 1017,9 hPa 0,0 l/m 9,7 km/h (2 Bft) NO 45 0 min 0,000 mm 0,0 UV-I 0 W/m 5,9 C 6,8 C 11,3 km/h (2 Bft) 95,65 %
20.09.2020 04:38 8,4 C 84 % 1017,9 hPa 0,0 l/m 9,7 km/h (2 Bft) NO 45 0 min 0,000 mm 0,0 UV-I 0 W/m 5,9 C 6,8 C 14,5 km/h (3 Bft) 95,65 %
20.09.2020 04:37 8,4 C 84 % 1017,9 hPa 0,0 l/m 9,7 km/h (2 Bft) NO 45 0 min 0,000 mm 0,0 UV-I 0 W/m 5,9 C 6,8 C 14,5 km/h (3 Bft) 95,65 %
20.09.2020 04:36 8,4 C 84 % 1017,9 hPa 0,0 l/m 4,8 km/h (1 Bft) NO 45 0 min 0,000 mm 0,0 UV-I 0 W/m 5,9 C 8,0 C 9,7 km/h (2 Bft) 95,65 %
20.09.2020 04:35 8,3 C 84 % 1017,9 hPa 0,0 l/m 1,6 km/h (1 Bft) O-NO 67 0 min 0,000 mm 0,0 UV-I 0 W/m 5,8 C 8,3 C 1,6 km/h (1 Bft) 95,65 %
20.09.2020 04:34 8,3 C 84 % 1018,0 hPa 0,0 l/m 1,6 km/h (1 Bft) O-NO 67 0 min 0,000 mm 0,0 UV-I 0 W/m 5,8 C 8,3 C 3,2 km/h (1 Bft) 95,65 %
20.09.2020 04:33 8,3 C 84 % 1018,0 hPa 0,0 l/m 3,2 km/h (1 Bft) O-NO 67 0 min 0,000 mm 0,0 UV-I 0 W/m 5,8 C 8,3 C 4,8 km/h (1 Bft) 100,00 %
20.09.2020 04:32 8,3 C 84 % 1018,1 hPa 0,0 l/m 1,6 km/h (1 Bft) O-NO 67 0 min 0,000 mm 0,0 UV-I 0 W/m 5,8 C 8,3 C 4,8 km/h (1 Bft) 95,65 %
20.09.2020 04:31 8,3 C 84 % 1018,0 hPa 0,0 l/m 3,2 km/h (1 Bft) O-NO 67 0 min 0,000 mm 0,0 UV-I 0 W/m 5,8 C 8,3 C 4,8 km/h (1 Bft) 100,00 %
20.09.2020 04:30 8,3 C 84 % 1018,0 hPa 0,0 l/m 3,2 km/h (1 Bft) O-NO 67 0 min 0,000 mm 0,0 UV-I 0 W/m 5,8 C 8,3 C 4,8 km/h (1 Bft) 91,30 %
20.09.2020 04:29 8,3 C 84 % 1018,1 hPa 0,0 l/m 3,2 km/h (1 Bft) O-NO 67 0 min 0,000 mm 0,0 UV-I 0 W/m 5,8 C 8,3 C 6,4 km/h (2 Bft) 100,00 %
20.09.2020 04:28 8,4 C 84 % 1018,1 hPa 0,0 l/m 3,2 km/h (1 Bft) O-NO 67 0 min 0,000 mm 0,0 UV-I 0 W/m 5,9 C 8,4 C 4,8 km/h (1 Bft) 91,30 %
20.09.2020 04:27 8,4 C 84 % 1018,2 hPa 0,0 l/m 3,2 km/h (1 Bft) O-NO 67 0 min 0,000 mm 0,0 UV-I 0 W/m 5,9 C 8,4 C 4,8 km/h (1 Bft) 95,65 %
20.09.2020 04:26 8,4 C 84 % 1018,1 hPa 0,0 l/m 1,6 km/h (1 Bft) O-NO 67 0 min 0,000 mm 0,0 UV-I 0 W/m 5,9 C 8,4 C 3,2 km/h (1 Bft) 95,65 %
20.09.2020 04:25 8,4 C 84 % 1018,1 hPa 0,0 l/m 3,2 km/h (1 Bft) O-NO 67 0 min 0,000 mm 0,0 UV-I 0 W/m 5,9 C 8,4 C 4,8 km/h (1 Bft) 91,30 %
20.09.2020 04:24 8,4 C 84 % 1018,0 hPa 0,0 l/m 1,6 km/h (1 Bft) O-NO 67 0 min 0,000 mm 0,0 UV-I 0 W/m 5,9 C 8,4 C 3,2 km/h (1 Bft) 100,00 %
20.09.2020 04:23 8,4 C 84 % 1018,0 hPa 0,0 l/m 1,6 km/h (1 Bft) O-NO 67 0 min 0,000 mm 0,0 UV-I 0 W/m 5,9 C 8,4 C 3,2 km/h (1 Bft) 91,30 %
20.09.2020 04:22 8,4 C 84 % 1018,2 hPa 0,0 l/m 1,6 km/h (1 Bft) O-NO 67 0 min 0,000 mm 0,0 UV-I 0 W/m 5,9 C 8,4 C 3,2 km/h (1 Bft) 100,00 %
20.09.2020 04:21 8,4 C 84 % 1018,1 hPa 0,0 l/m 1,6 km/h (1 Bft) O-NO 67 0 min 0,000 mm 0,0 UV-I 0 W/m 5,9 C 8,4 C 3,2 km/h (1 Bft) 91,30 %
20.09.2020 04:20 8,4 C 84 % 1018,0 hPa 0,0 l/m 1,6 km/h (1 Bft) O-NO 67 0 min 0,000 mm 0,0 UV-I 0 W/m 5,9 C 8,4 C 3,2 km/h (1 Bft) 100,00 %
20.09.2020 04:19 8,4 C 84 % 1018,1 hPa 0,0 l/m 3,2 km/h (1 Bft) O-NO 67 0 min 0,000 mm 0,0 UV-I 0 W/m 5,9 C 8,4 C 4,8 km/h (1 Bft) 95,65 %
20.09.2020 04:18 8,5 C 84 % 1018,1 hPa 0,0 l/m 3,2 km/h (1 Bft) O-NO 67 0 min 0,000 mm 0,0 UV-I 0 W/m 6,0 C 8,5 C 4,8 km/h (1 Bft) 95,65 %
20.09.2020 04:17 8,5 C 84 % 1018,1 hPa 0,0 l/m 1,6 km/h (1 Bft) O-NO 67 0 min 0,000 mm 0,0 UV-I 0 W/m 6,0 C 8,5 C 3,2 km/h (1 Bft) 95,65 %
20.09.2020 04:16 8,5 C 84 % 1018,2 hPa 0,0 l/m 1,6 km/h (1 Bft) O-NO 67 0 min 0,000 mm 0,0 UV-I 0 W/m 6,0 C 8,5 C 3,2 km/h (1 Bft) 91,30 %
20.09.2020 04:15 8,5 C 84 % 1018,1 hPa 0,0 l/m 1,6 km/h (1 Bft) O-NO 67 0 min 0,000 mm 0,0 UV-I 0 W/m 6,0 C 8,5 C 1,6 km/h (1 Bft) 100,00 %
20.09.2020 04:14 8,5 C 83 % 1018,1 hPa 0,0 l/m 1,6 km/h (1 Bft) O-NO 67 0 min 0,000 mm 0,0 UV-I 0 W/m 5,8 C 8,5 C 3,2 km/h (1 Bft) 95,65 %
20.09.2020 04:13 8,5 C 84 % 1018,0 hPa 0,0 l/m 1,6 km/h (1 Bft) O-NO 67 0 min 0,000 mm 0,0 UV-I 0 W/m 6,0 C 8,5 C 3,2 km/h (1 Bft) 100,00 %
20.09.2020 04:12 8,5 C 83 % 1018,1 hPa 0,0 l/m 3,2 km/h (1 Bft) O-NO 67 0 min 0,000 mm 0,0 UV-I 0 W/m 5,8 C 8,5 C 4,8 km/h (1 Bft) 100,00 %
20.09.2020 04:11 8,5 C 84 % 1018,1 hPa 0,0 l/m 1,6 km/h (1 Bft) O-NO 67 0 min 0,000 mm 0,0 UV-I 0 W/m 6,0 C 8,5 C 3,2 km/h (1 Bft) 100,00 %
20.09.2020 04:10 8,4 C 84 % 1018,1 hPa 0,0 l/m 1,6 km/h (1 Bft) O-NO 67 0 min 0,000 mm 0,0 UV-I 0 W/m 5,9 C 8,4 C 3,2 km/h (1 Bft) 100,00 %
20.09.2020 04:09 8,5 C 83 % 1018,2 hPa 0,0 l/m 1,6 km/h (1 Bft) O-NO 67 0 min 0,000 mm 0,0 UV-I 0 W/m 5,8 C 8,5 C 3,2 km/h (1 Bft) 100,00 %
20.09.2020 04:08 8,5 C 84 % 1018,1 hPa 0,0 l/m 1,6 km/h (1 Bft) O-NO 67 0 min 0,000 mm 0,0 UV-I 0 W/m 6,0 C 8,5 C 3,2 km/h (1 Bft) 100,00 %
20.09.2020 04:07 8,4 C 84 % 1018,2 hPa 0,0 l/m 1,6 km/h (1 Bft) O-NO 67 0 min 0,000 mm 0,0 UV-I 0 W/m 5,9 C 8,4 C 3,2 km/h (1 Bft) 95,65 %
20.09.2020 04:06 8,5 C 84 % 1018,1 hPa 0,0 l/m 1,6 km/h (1 Bft) O-NO 67 0 min 0,000 mm 0,0 UV-I 0 W/m 6,0 C 8,5 C 3,2 km/h (1 Bft) 100,00 %
20.09.2020 04:05 8,4 C 84 % 1018,2 hPa 0,0 l/m 3,2 km/h (1 Bft) O-NO 67 0 min 0,000 mm 0,0 UV-I 0 W/m 5,9 C 8,4 C 4,8 km/h (1 Bft) 95,65 %
20.09.2020 04:04 8,4 C 84 % 1018,1 hPa 0,0 l/m 3,2 km/h (1 Bft) NO 45 0 min 0,000 mm 0,0 UV-I 0 W/m 5,9 C 8,4 C 4,8 km/h (1 Bft) 100,00 %
20.09.2020 04:03 8,4 C 84 % 1018,1 hPa 0,0 l/m 0,0 km/h (0 Bft) NO 45 0 min 0,000 mm 0,0 UV-I 0 W/m 5,9 C 8,4 C 1,6 km/h (1 Bft) 100,00 %
20.09.2020 04:02 8,5 C 83 % 1018,2 hPa 0,0 l/m 1,6 km/h (1 Bft) NO 45 0 min 0,000 mm 0,0 UV-I 0 W/m 5,8 C 8,5 C 3,2 km/h (1 Bft) 95,65 %
20.09.2020 04:01 8,5 C 84 % 1018,2 hPa 0,0 l/m 3,2 km/h (1 Bft) NO 45 0 min 0,000 mm 0,0 UV-I 0 W/m 6,0 C 8,5 C 6,4 km/h (2 Bft) 100,00 %
20.09.2020 04:00 8,5 C 83 % 1018,2 hPa 0,0 l/m 3,2 km/h (1 Bft) NO 45 0 min 0,025 mm 0,0 UV-I 0 W/m 5,8 C 8,5 C 6,4 km/h (2 Bft) 91,30 %
20.09.2020 03:59 8,5 C 83 % 1018,2 hPa 0,0 l/m 3,2 km/h (1 Bft) NO 45 0 min 0,000 mm 0,0 UV-I 0 W/m 5,8 C 8,5 C 3,2 km/h (1 Bft) 100,00 %
20.09.2020 03:58 8,5 C 83 % 1018,1 hPa 0,0 l/m 3,2 km/h (1 Bft) NO 45 0 min 0,000 mm 0,0 UV-I 0 W/m 5,8 C 8,5 C 4,8 km/h (1 Bft) 95,65 %
20.09.2020 03:57 8,6 C 83 % 1018,2 hPa 0,0 l/m 4,8 km/h (1 Bft) NO 45 0 min 0,000 mm 0,0 UV-I 0 W/m 5,9 C 8,2 C 4,8 km/h (1 Bft) 100,00 %
20.09.2020 03:56 8,6 C 83 % 1018,2 hPa 0,0 l/m 4,8 km/h (1 Bft) O-NO 67 0 min 0,000 mm 0,0 UV-I 0 W/m 5,9 C 8,2 C 6,4 km/h (2 Bft) 95,65 %
20.09.2020 03:55 8,6 C 83 % 1018,1 hPa 0,0 l/m 4,8 km/h (1 Bft) O-NO 67 0 min 0,000 mm 0,0 UV-I 0 W/m 5,9 C 8,2 C 9,7 km/h (2 Bft) 100,00 %
20.09.2020 03:54 8,6 C 83 % 1018,1 hPa 0,0 l/m 8,0 km/h (2 Bft) NO 45 0 min 0,000 mm 0,0 UV-I 0 W/m 5,9 C 7,4 C 9,7 km/h (2 Bft) 95,65 %
20.09.2020 03:53 8,6 C 83 % 1018,1 hPa 0,0 l/m 4,8 km/h (1 Bft) O-NO 67 0 min 0,000 mm 0,0 UV-I 0 W/m 5,9 C 8,2 C 8,0 km/h (2 Bft) 91,30 %
20.09.2020 03:52 8,6 C 83 % 1018,0 hPa 0,0 l/m 6,4 km/h (2 Bft) O-NO 67 0 min 0,000 mm 0,0 UV-I 0 W/m 5,9 C 7,8 C 9,7 km/h (2 Bft) 95,65 %
20.09.2020 03:51 8,6 C 83 % 1018,0 hPa 0,0 l/m 8,0 km/h (2 Bft) NO 45 0 min 0,000 mm 0,0 UV-I 0 W/m 5,9 C 7,4 C 9,7 km/h (2 Bft) 95,65 %
20.09.2020 03:50 8,6 C 83 % 1018,1 hPa 0,0 l/m 8,0 km/h (2 Bft) O-NO 67 0 min 0,000 mm 0,0 UV-I 0 W/m 5,9 C 7,4 C 9,7 km/h (2 Bft) 95,65 %
20.09.2020 03:49 8,6 C 83 % 1018,0 hPa 0,0 l/m 8,0 km/h (2 Bft) O-NO 67 0 min 0,000 mm 0,0 UV-I 0 W/m 5,9 C 7,4 C 9,7 km/h (2 Bft) 100,00 %
20.09.2020 03:48 8,6 C 83 % 1018,1 hPa 0,0 l/m 6,4 km/h (2 Bft) O-NO 67 0 min 0,000 mm 0,0 UV-I 0 W/m 5,9 C 7,8 C 8,0 km/h (2 Bft) 100,00 %
20.09.2020 03:47 8,6 C 83 % 1018,1 hPa 0,0 l/m 4,8 km/h (1 Bft) NO 45 0 min 0,000 mm 0,0 UV-I 0 W/m 5,9 C 8,2 C 6,4 km/h (2 Bft) 100,00 %
20.09.2020 03:46 8,6 C 83 % 1018,1 hPa 0,0 l/m 4,8 km/h (1 Bft) O-NO 67 0 min 0,000 mm 0,0 UV-I 0 W/m 5,9 C 8,2 C 6,4 km/h (2 Bft) 91,30 %
20.09.2020 03:45 8,6 C 83 % 1018,2 hPa 0,0 l/m 4,8 km/h (1 Bft) O-NO 67 0 min 0,000 mm 0,0 UV-I 0 W/m 5,9 C 8,2 C 6,4 km/h (2 Bft) 91,30 %
20.09.2020 03:44 8,7 C 83 % 1018,2 hPa 0,0 l/m 4,8 km/h (1 Bft) O-NO 67 0 min 0,000 mm 0,0 UV-I 0 W/m 6,0 C 8,3 C 8,0 km/h (2 Bft) 100,00 %
20.09.2020 03:43 8,7 C 83 % 1018,1 hPa 0,0 l/m 4,8 km/h (1 Bft) NO 45 0 min 0,000 mm 0,0 UV-I 0 W/m 6,0 C 8,3 C 6,4 km/h (2 Bft) 100,00 %
20.09.2020 03:42 8,7 C 83 % 1018,1 hPa 0,0 l/m 1,6 km/h (1 Bft) NO 45 0 min 0,000 mm 0,0 UV-I 0 W/m 6,0 C 8,7 C 3,2 km/h (1 Bft) 100,00 %
20.09.2020 03:41 8,7 C 83 % 1018,2 hPa 0,0 l/m 1,6 km/h (1 Bft) NO 45 0 min 0,000 mm 0,0 UV-I 0 W/m 6,0 C 8,7 C 3,2 km/h (1 Bft) 100,00 %
20.09.2020 03:40 8,7 C 83 % 1018,2 hPa 0,0 l/m 3,2 km/h (1 Bft) NO 45 0 min 0,000 mm 0,0 UV-I 0 W/m 6,0 C 8,7 C 4,8 km/h (1 Bft) 95,65 %
20.09.2020 03:39 8,7 C 83 % 1018,3 hPa 0,0 l/m 3,2 km/h (1 Bft) NO 45 0 min 0,000 mm 0,0 UV-I 0 W/m 6,0 C 8,7 C 4,8 km/h (1 Bft) 95,65 %
20.09.2020 03:38 8,7 C 83 % 1018,2 hPa 0,0 l/m 3,2 km/h (1 Bft) NO 45 0 min 0,000 mm 0,0 UV-I 0 W/m 6,0 C 8,7 C 4,8 km/h (1 Bft) 95,65 %
20.09.2020 03:37 8,7 C 83 % 1018,3 hPa 0,0 l/m 4,8 km/h (1 Bft) NO 45 0 min 0,000 mm 0,0 UV-I 0 W/m 6,0 C 8,3 C 6,4 km/h (2 Bft) 100,00 %
20.09.2020 03:36 8,7 C 83 % 1018,2 hPa 0,0 l/m 3,2 km/h (1 Bft) NO 45 0 min 0,000 mm 0,0 UV-I 0 W/m 6,0 C 8,7 C 6,4 km/h (2 Bft) 100,00 %
20.09.2020 03:35 8,7 C 83 % 1018,2 hPa 0,0 l/m 4,8 km/h (1 Bft) NO 45 0 min 0,000 mm 0,0 UV-I 0 W/m 6,0 C 8,3 C 6,4 km/h (2 Bft) 100,00 %
20.09.2020 03:34 8,8 C 83 % 1018,3 hPa 0,0 l/m 6,4 km/h (2 Bft) NO 45 0 min 0,000 mm 0,0 UV-I 0 W/m 6,1 C 8,0 C 8,0 km/h (2 Bft) 100,00 %
20.09.2020 03:33 8,8 C 83 % 1018,2 hPa 0,0 l/m 6,4 km/h (2 Bft) NO 45 0 min 0,000 mm 0,0 UV-I 0 W/m 6,1 C 8,0 C 9,7 km/h (2 Bft) 100,00 %
20.09.2020 03:32 8,8 C 83 % 1018,2 hPa 0,0 l/m 6,4 km/h (2 Bft) NO 45 0 min 0,000 mm 0,0 UV-I 0 W/m 6,1 C 8,0 C 8,0 km/h (2 Bft) 95,65 %
20.09.2020 03:31 8,8 C 83 % 1018,3 hPa 0,0 l/m 6,4 km/h (2 Bft) NO 45 0 min 0,000 mm 0,0 UV-I 0 W/m 6,1 C 8,0 C 8,0 km/h (2 Bft) 100,00 %
20.09.2020 03:30 8,8 C 83 % 1018,3 hPa 0,0 l/m 4,8 km/h (1 Bft) O-NO 67 0 min 0,000 mm 0,0 UV-I 0 W/m 6,1 C 8,5 C 6,4 km/h (2 Bft) 100,00 %
20.09.2020 03:29 8,8 C 83 % 1018,2 hPa 0,0 l/m 4,8 km/h (1 Bft) NO 45 0 min 0,000 mm 0,0 UV-I 0 W/m 6,1 C 8,5 C 8,0 km/h (2 Bft) 100,00 %
20.09.2020 03:28 8,9 C 83 % 1018,2 hPa 0,0 l/m 4,8 km/h (1 Bft) NO 45 0 min 0,000 mm 0,0 UV-I 0 W/m 6,2 C 8,6 C 8,0 km/h (2 Bft) 100,00 %
20.09.2020 03:27 8,8 C 83 % 1018,3 hPa 0,0 l/m 4,8 km/h (1 Bft) NO 45 0 min 0,000 mm 0,0 UV-I 0 W/m 6,1 C 8,5 C 6,4 km/h (2 Bft) 95,65 %
20.09.2020 03:26 8,8 C 83 % 1018,2 hPa 0,0 l/m 3,2 km/h (1 Bft) O-NO 67 0 min 0,000 mm 0,0 UV-I 0 W/m 6,1 C 8,8 C 6,4 km/h (2 Bft) 100,00 %
20.09.2020 03:25 8,8 C 83 % 1018,3 hPa 0,0 l/m 4,8 km/h (1 Bft) O-NO 67 0 min 0,000 mm 0,0 UV-I 0 W/m 6,1 C 8,5 C 6,4 km/h (2 Bft) 95,65 %
20.09.2020 03:24 8,8 C 83 % 1018,3 hPa 0,0 l/m 6,4 km/h (2 Bft) O-NO 67 0 min 0,000 mm 0,0 UV-I 0 W/m 6,1 C 8,0 C 8,0 km/h (2 Bft) 100,00 %
20.09.2020 03:23 8,8 C 83 % 1018,2 hPa 0,0 l/m 6,4 km/h (2 Bft) O-NO 67 0 min 0,000 mm 0,0 UV-I 0 W/m 6,1 C 8,0 C 8,0 km/h (2 Bft) 100,00 %
20.09.2020 03:22 8,8 C 83 % 1018,3 hPa 0,0 l/m 6,4 km/h (2 Bft) O-NO 67 0 min 0,000 mm 0,0 UV-I 0 W/m 6,1 C 8,0 C 9,7 km/h (2 Bft) 100,00 %
20.09.2020 03:21 8,8 C 83 % 1018,2 hPa 0,0 l/m 6,4 km/h (2 Bft) O-NO 67 0 min 0,000 mm 0,0 UV-I 0 W/m 6,1 C 8,0 C 8,0 km/h (2 Bft) 100,00 %
20.09.2020 03:20 8,8 C 83 % 1018,2 hPa 0,0 l/m 4,8 km/h (1 Bft) O-NO 67 0 min 0,000 mm 0,0 UV-I 0 W/m 6,1 C 8,5 C 6,4 km/h (2 Bft) 100,00 %
20.09.2020 03:19 8,8 C 83 % 1018,3 hPa 0,0 l/m 6,4 km/h (2 Bft) O-NO 67 0 min 0,000 mm 0,0 UV-I 0 W/m 6,1 C 8,0 C 8,0 km/h (2 Bft) 95,65 %
20.09.2020 03:18 8,8 C 83 % 1018,3 hPa 0,0 l/m 8,0 km/h (2 Bft) O-NO 67 0 min 0,000 mm 0,0 UV-I 0 W/m 6,1 C 7,6 C 9,7 km/h (2 Bft) 95,65 %
20.09.2020 03:17 8,8 C 83 % 1018,3 hPa 0,0 l/m 6,4 km/h (2 Bft) O-NO 67 0 min 0,000 mm 0,0 UV-I 0 W/m 6,1 C 8,0 C 9,7 km/h (2 Bft) 100,00 %
20.09.2020 03:16 8,7 C 83 % 1018,3 hPa 0,0 l/m 6,4 km/h (2 Bft) O-NO 67 0 min 0,000 mm 0,0 UV-I 0 W/m 6,0 C 7,9 C 8,0 km/h (2 Bft) 100,00 %
20.09.2020 03:15 8,8 C 83 % 1018,3 hPa 0,0 l/m 4,8 km/h (1 Bft) O-NO 67 0 min 0,000 mm 0,0 UV-I 0 W/m 6,1 C 8,5 C 6,4 km/h (2 Bft) 100,00 %
20.09.2020 03:14 8,7 C 83 % 1018,3 hPa 0,0 l/m 6,4 km/h (2 Bft) O-NO 67 0 min 0,000 mm 0,0 UV-I 0 W/m 6,0 C 7,9 C 8,0 km/h (2 Bft) 100,00 %
20.09.2020 03:13 8,7 C 83 % 1018,3 hPa 0,0 l/m 4,8 km/h (1 Bft) O-NO 67 0 min 0,000 mm 0,0 UV-I 0 W/m 6,0 C 8,3 C 6,4 km/h (2 Bft) 95,65 %
20.09.2020 03:12 8,7 C 83 % 1018,2 hPa 0,0 l/m 6,4 km/h (2 Bft) O-NO 67 0 min 0,000 mm 0,0 UV-I 0 W/m 6,0 C 7,9 C 8,0 km/h (2 Bft) 100,00 %
20.09.2020 03:11 8,7 C 83 % 1018,3 hPa 0,0 l/m 4,8 km/h (1 Bft) O-NO 67 0 min 0,000 mm 0,0 UV-I 0 W/m 6,0 C 8,3 C 8,0 km/h (2 Bft) 91,30 %
20.09.2020 03:10 8,7 C 83 % 1018,3 hPa 0,0 l/m 4,8 km/h (1 Bft) O-NO 67 0 min 0,000 mm 0,0 UV-I 0 W/m 6,0 C 8,3 C 6,4 km/h (2 Bft) 95,65 %
20.09.2020 03:09 8,7 C 83 % 1018,2 hPa 0,0 l/m 4,8 km/h (1 Bft) O-NO 67 0 min 0,000 mm 0,0 UV-I 0 W/m 6,0 C 8,3 C 6,4 km/h (2 Bft) 100,00 %
20.09.2020 03:08 8,7 C 83 % 1018,3 hPa 0,0 l/m 4,8 km/h (1 Bft) O-NO 67 0 min 0,000 mm 0,0 UV-I 0 W/m 6,0 C 8,3 C 8,0 km/h (2 Bft) 100,00 %
20.09.2020 03:07 8,7 C 83 % 1018,2 hPa 0,0 l/m 6,4 km/h (2 Bft) NO 45 0 min 0,000 mm 0,0 UV-I 0 W/m 6,0 C 7,9 C 8,0 km/h (2 Bft) 100,00 %
20.09.2020 03:06 8,7 C 83 % 1018,2 hPa 0,0 l/m 6,4 km/h (2 Bft) NO 45 0 min 0,000 mm 0,0 UV-I 0 W/m 6,0 C 7,9 C 8,0 km/h (2 Bft) 95,65 %
20.09.2020 03:05 8,7 C 83 % 1018,3 hPa 0,0 l/m 6,4 km/h (2 Bft) NO 45 0 min 0,000 mm 0,0 UV-I 0 W/m 6,0 C 7,9 C 6,4 km/h (2 Bft) 100,00 %
20.09.2020 03:04 8,7 C 83 % 1018,3 hPa 0,0 l/m 4,8 km/h (1 Bft) O-NO 67 0 min 0,000 mm 0,0 UV-I 0 W/m 6,0 C 8,3 C 6,4 km/h (2 Bft) 95,65 %
20.09.2020 03:03 8,7 C 83 % 1018,4 hPa 0,0 l/m 4,8 km/h (1 Bft) O-NO 67 0 min 0,000 mm 0,0 UV-I 0 W/m 6,0 C 8,3 C 6,4 km/h (2 Bft) 95,65 %
20.09.2020 03:02 8,7 C 83 % 1018,3 hPa 0,0 l/m 6,4 km/h (2 Bft) NO 45 0 min 0,000 mm 0,0 UV-I 0 W/m 6,0 C 7,9 C 6,4 km/h (2 Bft) 95,65 %
20.09.2020 03:01 8,7 C 83 % 1018,3 hPa 0,0 l/m 6,4 km/h (2 Bft) NO 45 0 min 0,000 mm 0,0 UV-I 0 W/m 6,0 C 7,9 C 6,4 km/h (2 Bft) 100,00 %
20.09.2020 03:00 8,7 C 83 % 1018,4 hPa 0,0 l/m 4,8 km/h (1 Bft) NO 45 0 min 0,025 mm 0,0 UV-I 0 W/m 6,0 C 8,3 C 6,4 km/h (2 Bft) 91,30 %
20.09.2020 02:59 8,7 C 83 % 1018,3 hPa 0,0 l/m 3,2 km/h (1 Bft) O-NO 67 0 min 0,000 mm 0,0 UV-I 0 W/m 6,0 C 8,7 C 4,8 km/h (1 Bft) 100,00 %
20.09.2020 02:58 8,7 C 82 % 1018,3 hPa 0,0 l/m 4,8 km/h (1 Bft) O-NO 67 0 min 0,000 mm 0,0 UV-I 0 W/m 5,8 C 8,3 C 4,8 km/h (1 Bft) 100,00 %
20.09.2020 02:57 8,8 C 82 % 1018,4 hPa 0,0 l/m 4,8 km/h (1 Bft) O-NO 67 0 min 0,000 mm 0,0 UV-I 0 W/m 5,9 C 8,5 C 6,4 km/h (2 Bft) 95,65 %
20.09.2020 02:56 8,8 C 82 % 1018,4 hPa 0,0 l/m 4,8 km/h (1 Bft) O-NO 67 0 min 0,000 mm 0,0 UV-I 0 W/m 5,9 C 8,5 C 6,4 km/h (2 Bft) 100,00 %
20.09.2020 02:55 8,8 C 82 % 1018,4 hPa 0,0 l/m 4,8 km/h (1 Bft) O-NO 67 0 min 0,000 mm 0,0 UV-I 0 W/m 5,9 C 8,5 C 6,4 km/h (2 Bft) 95,65 %
20.09.2020 02:54 8,9 C 82 % 1018,4 hPa 0,0 l/m 3,2 km/h (1 Bft) O-NO 67 0 min 0,000 mm 0,0 UV-I 0 W/m 6,0 C 8,9 C 4,8 km/h (1 Bft) 100,00 %
20.09.2020 02:53 8,9 C 82 % 1018,3 hPa 0,0 l/m 3,2 km/h (1 Bft) O-NO 67 0 min 0,000 mm 0,0 UV-I 0 W/m 6,0 C 8,9 C 4,8 km/h (1 Bft) 100,00 %
20.09.2020 02:52 8,9 C 82 % 1018,4 hPa 0,0 l/m 1,6 km/h (1 Bft) O-NO 67 0 min 0,000 mm 0,0 UV-I 0 W/m 6,0 C 8,9 C 3,2 km/h (1 Bft) 100,00 %
20.09.2020 02:51 8,9 C 82 % 1018,4 hPa 0,0 l/m 3,2 km/h (1 Bft) O-NO 67 0 min 0,000 mm 0,0 UV-I 0 W/m 6,0 C 8,9 C 4,8 km/h (1 Bft) 95,65 %
20.09.2020 02:50 8,9 C 82 % 1018,3 hPa 0,0 l/m 3,2 km/h (1 Bft) O-NO 67 0 min 0,000 mm 0,0 UV-I 0 W/m 6,0 C 8,9 C 6,4 km/h (2 Bft) 86,96 %
20.09.2020 02:49 9,0 C 82 % 1018,4 hPa 0,0 l/m 3,2 km/h (1 Bft) O-NO 67 0 min 0,000 mm 0,0 UV-I 0 W/m 6,1 C 9,0 C 4,8 km/h (1 Bft) 95,65 %
20.09.2020 02:48 9,0 C 82 % 1018,4 hPa 0,0 l/m 3,2 km/h (1 Bft) O-NO 67 0 min 0,000 mm 0,0 UV-I 0 W/m 6,1 C 9,0 C 6,4 km/h (2 Bft) 91,30 %
20.09.2020 02:47 9,1 C 82 % 1018,4 hPa 0,0 l/m 4,8 km/h (1 Bft) O-NO 67 0 min 0,000 mm 0,0 UV-I 0 W/m 6,2 C 8,8 C 6,4 km/h (2 Bft) 100,00 %
20.09.2020 02:46 9,1 C 82 % 1018,4 hPa 0,0 l/m 4,8 km/h (1 Bft) O-NO 67 0 min 0,000 mm 0,0 UV-I 0 W/m 6,2 C 8,8 C 8,0 km/h (2 Bft) 95,65 %
20.09.2020 02:45 9,1 C 82 % 1018,4 hPa 0,0 l/m 4,8 km/h (1 Bft) O-NO 67 0 min 0,000 mm 0,0 UV-I 0 W/m 6,2 C 8,8 C 6,4 km/h (2 Bft) 100,00 %
20.09.2020 02:44 9,0 C 82 % 1018,4 hPa 0,0 l/m 6,4 km/h (2 Bft) O-NO 67 0 min 0,000 mm 0,0 UV-I 0 W/m 6,1 C 8,2 C 8,0 km/h (2 Bft) 95,65 %
20.09.2020 02:43 9,0 C 82 % 1018,4 hPa 0,0 l/m 6,4 km/h (2 Bft) O-NO 67 0 min 0,000 mm 0,0 UV-I 0 W/m 6,1 C 8,2 C 6,4 km/h (2 Bft) 95,65 %
20.09.2020 02:42 9,0 C 82 % 1018,4 hPa 0,0 l/m 6,4 km/h (2 Bft) O-NO 67 0 min 0,000 mm 0,0 UV-I 0 W/m 6,1 C 8,2 C 8,0 km/h (2 Bft) 91,30 %
20.09.2020 02:41 8,9 C 82 % 1018,4 hPa 0,0 l/m 6,4 km/h (2 Bft) O-NO 67 0 min 0,000 mm 0,0 UV-I 0 W/m 6,0 C 8,1 C 8,0 km/h (2 Bft) 95,65 %
20.09.2020 02:40 8,9 C 82 % 1018,4 hPa 0,0 l/m 6,4 km/h (2 Bft) O-NO 67 0 min 0,000 mm 0,0 UV-I 0 W/m 6,0 C 8,1 C 8,0 km/h (2 Bft) 100,00 %
20.09.2020 02:39 9,0 C 82 % 1018,4 hPa 0,0 l/m 4,8 km/h (1 Bft) O-NO 67 0 min 0,000 mm 0,0 UV-I 0 W/m 6,1 C 8,7 C 6,4 km/h (2 Bft) 95,65 %
20.09.2020 02:38 9,0 C 81 % 1018,4 hPa 0,0 l/m 3,2 km/h (1 Bft) O-NO 67 0 min 0,000 mm 0,0 UV-I 0 W/m 5,9 C 9,0 C 6,4 km/h (2 Bft) 100,00 %
20.09.2020 02:37 9,1 C 81 % 1018,5 hPa 0,0 l/m 4,8 km/h (1 Bft) O-NO 67 0 min 0,000 mm 0,0 UV-I 0 W/m 6,0 C 8,8 C 6,4 km/h (2 Bft) 95,65 %
20.09.2020 02:36 9,1 C 81 % 1018,4 hPa 0,0 l/m 3,2 km/h (1 Bft) NO 45 0 min 0,000 mm 0,0 UV-I 0 W/m 6,0 C 9,1 C 4,8 km/h (1 Bft) 95,65 %
20.09.2020 02:35 9,1 C 81 % 1018,4 hPa 0,0 l/m 6,4 km/h (2 Bft) NO 45 0 min 0,000 mm 0,0 UV-I 0 W/m 6,0 C 8,3 C 8,0 km/h (2 Bft) 86,96 %
20.09.2020 02:34 9,1 C 81 % 1018,5 hPa 0,0 l/m 6,4 km/h (2 Bft) NO 45 0 min 0,000 mm 0,0 UV-I 0 W/m 6,0 C 8,3 C 8,0 km/h (2 Bft) 95,65 %
20.09.2020 02:33 9,2 C 81 % 1018,5 hPa 0,0 l/m 4,8 km/h (1 Bft) NO 45 0 min 0,000 mm 0,0 UV-I 0 W/m 6,1 C 8,9 C 6,4 km/h (2 Bft) 100,00 %
20.09.2020 02:32 9,2 C 81 % 1018,6 hPa 0,0 l/m 6,4 km/h (2 Bft) NO 45 0 min 0,000 mm 0,0 UV-I 0 W/m 6,1 C 8,4 C 8,0 km/h (2 Bft) 95,65 %
20.09.2020 02:31 9,2 C 81 % 1018,4 hPa 0,0 l/m 6,4 km/h (2 Bft) NO 45 0 min 0,000 mm 0,0 UV-I 0 W/m 6,1 C 8,4 C 8,0 km/h (2 Bft) 100,00 %
20.09.2020 02:30 9,1 C 81 % 1018,4 hPa 0,0 l/m 6,4 km/h (2 Bft) NO 45 0 min 0,000 mm 0,0 UV-I 0 W/m 6,0 C 8,3 C 8,0 km/h (2 Bft) 95,65 %
20.09.2020 02:29 9,1 C 81 % 1018,4 hPa 0,0 l/m 6,4 km/h (2 Bft) NO 45 0 min 0,000 mm 0,0 UV-I 0 W/m 6,0 C 8,3 C 8,0 km/h (2 Bft) 95,65 %
20.09.2020 02:28 9,1 C 81 % 1018,5 hPa 0,0 l/m 8,0 km/h (2 Bft) NO 45 0 min 0,000 mm 0,0 UV-I 0 W/m 6,0 C 7,9 C 8,0 km/h (2 Bft) 91,30 %
20.09.2020 02:27 9,1 C 81 % 1018,4 hPa 0,0 l/m 6,4 km/h (2 Bft) NO 45 0 min 0,000 mm 0,0 UV-I 0 W/m 6,0 C 8,3 C 8,0 km/h (2 Bft) 100,00 %
20.09.2020 02:26 9,2 C 81 % 1018,4 hPa 0,0 l/m 6,4 km/h (2 Bft) NO 45 0 min 0,000 mm 0,0 UV-I 0 W/m 6,1 C 8,4 C 8,0 km/h (2 Bft) 91,30 %
20.09.2020 02:25 9,2 C 80 % 1018,5 hPa 0,0 l/m 8,0 km/h (2 Bft) NO 45 0 min 0,000 mm 0,0 UV-I 0 W/m 5,9 C 8,1 C 9,7 km/h (2 Bft) 95,65 %
20.09.2020 02:24 9,2 C 80 % 1018,4 hPa 0,0 l/m 8,0 km/h (2 Bft) NO 45 0 min 0,000 mm 0,0 UV-I 0 W/m 5,9 C 8,1 C 8,0 km/h (2 Bft) 100,00 %
20.09.2020 02:23 9,3 C 80 % 1018,4 hPa 0,0 l/m 8,0 km/h (2 Bft) NO 45 0 min 0,000 mm 0,0 UV-I 0 W/m 6,0 C 8,2 C 9,7 km/h (2 Bft) 100,00 %
20.09.2020 02:22 9,3 C 80 % 1018,4 hPa 0,0 l/m 8,0 km/h (2 Bft) NO 45 0 min 0,000 mm 0,0 UV-I 0 W/m 6,0 C 8,2 C 9,7 km/h (2 Bft) 100,00 %
20.09.2020 02:21 9,3 C 80 % 1018,5 hPa 0,0 l/m 8,0 km/h (2 Bft) NO 45 0 min 0,000 mm 0,0 UV-I 0 W/m 6,0 C 8,2 C 9,7 km/h (2 Bft) 91,30 %
20.09.2020 02:20 9,3 C 80 % 1018,6 hPa 0,0 l/m 6,4 km/h (2 Bft) NO 45 0 min 0,000 mm 0,0 UV-I 0 W/m 6,0 C 8,6 C 8,0 km/h (2 Bft) 100,00 %
20.09.2020 02:19 9,4 C 80 % 1018,6 hPa 0,0 l/m 6,4 km/h (2 Bft) NO 45 0 min 0,000 mm 0,0 UV-I 0 W/m 6,1 C 8,7 C 8,0 km/h (2 Bft) 95,65 %
20.09.2020 02:18 9,4 C 80 % 1018,4 hPa 0,0 l/m 6,4 km/h (2 Bft) NO 45 0 min 0,000 mm 0,0 UV-I 0 W/m 6,1 C 8,7 C 9,7 km/h (2 Bft) 95,65 %
20.09.2020 02:17 9,3 C 80 % 1018,5 hPa 0,0 l/m 6,4 km/h (2 Bft) NO 45 0 min 0,000 mm 0,0 UV-I 0 W/m 6,0 C 8,6 C 9,7 km/h (2 Bft) 95,65 %
20.09.2020 02:16 9,4 C 80 % 1018,6 hPa 0,0 l/m 6,4 km/h (2 Bft) NO 45 0 min 0,000 mm 0,0 UV-I 0 W/m 6,1 C 8,7 C 8,0 km/h (2 Bft) 95,65 %
20.09.2020 02:15 9,3 C 80 % 1018,6 hPa 0,0 l/m 6,4 km/h (2 Bft) NO 45 0 min 0,000 mm 0,0 UV-I 0 W/m 6,0 C 8,6 C 8,0 km/h (2 Bft) 100,00 %
20.09.2020 02:14 9,4 C 80 % 1018,6 hPa 0,0 l/m 6,4 km/h (2 Bft) NO 45 0 min 0,000 mm 0,0 UV-I 0 W/m 6,1 C 8,7 C 8,0 km/h (2 Bft) 95,65 %
20.09.2020 02:13 9,3 C 80 % 1018,6 hPa 0,0 l/m 6,4 km/h (2 Bft) NO 45 0 min 0,000 mm 0,0 UV-I 0 W/m 6,0 C 8,6 C 6,4 km/h (2 Bft) 100,00 %
20.09.2020 02:12 9,3 C 80 % 1018,6 hPa 0,0 l/m 4,8 km/h (1 Bft) NO 45 0 min 0,000 mm 0,0 UV-I 0 W/m 6,0 C 9,0 C 6,4 km/h (2 Bft) 100,00 %
20.09.2020 02:11 9,2 C 80 % 1018,5 hPa 0,0 l/m 4,8 km/h (1 Bft) O-NO 67 0 min 0,000 mm 0,0 UV-I 0 W/m 5,9 C 8,9 C 6,4 km/h (2 Bft) 100,00 %
20.09.2020 02:10 9,3 C 80 % 1018,6 hPa 0,0 l/m 3,2 km/h (1 Bft) NO 45 0 min 0,000 mm 0,0 UV-I 0 W/m 6,0 C 9,3 C 4,8 km/h (1 Bft) 95,65 %
20.09.2020 02:09 9,3 C 80 % 1018,6 hPa 0,0 l/m 4,8 km/h (1 Bft) NO 45 0 min 0,000 mm 0,0 UV-I 0 W/m 6,0 C 9,0 C 6,4 km/h (2 Bft) 100,00 %
20.09.2020 02:08 9,3 C 80 % 1018,6 hPa 0,0 l/m 6,4 km/h (2 Bft) NO 45 0 min 0,000 mm 0,0 UV-I 0 W/m 6,0 C 8,6 C 8,0 km/h (2 Bft) 95,65 %
20.09.2020 02:07 9,3 C 80 % 1018,5 hPa 0,0 l/m 4,8 km/h (1 Bft) O-NO 67 0 min 0,000 mm 0,0 UV-I 0 W/m 6,0 C 9,0 C 8,0 km/h (2 Bft) 95,65 %
20.09.2020 02:06 9,4 C 80 % 1018,6 hPa 0,0 l/m 6,4 km/h (2 Bft) NO 45 0 min 0,000 mm 0,0 UV-I 0 W/m 6,1 C 8,7 C 8,0 km/h (2 Bft) 100,00 %
20.09.2020 02:05 9,4 C 79 % 1018,5 hPa 0,0 l/m 4,8 km/h (1 Bft) NO 45 0 min 0,000 mm 0,0 UV-I 0 W/m 5,9 C 9,1 C 8,0 km/h (2 Bft) 95,65 %
20.09.2020 02:04 9,4 C 80 % 1018,6 hPa 0,0 l/m 6,4 km/h (2 Bft) NO 45 0 min 0,000 mm 0,0 UV-I 0 W/m 6,1 C 8,7 C 8,0 km/h (2 Bft) 100,00 %
20.09.2020 02:03 9,3 C 80 % 1018,6 hPa 0,0 l/m 6,4 km/h (2 Bft) NO 45 0 min 0,000 mm 0,0 UV-I 0 W/m 6,0 C 8,6 C 8,0 km/h (2 Bft) 100,00 %
20.09.2020 02:02 9,4 C 79 % 1018,6 hPa 0,0 l/m 6,4 km/h (2 Bft) NO 45 0 min 0,000 mm 0,0 UV-I 0 W/m 5,9 C 8,7 C 8,0 km/h (2 Bft) 100,00 %
20.09.2020 02:01 9,4 C 79 % 1018,7 hPa 0,0 l/m 6,4 km/h (2 Bft) NO 45 0 min 0,000 mm 0,0 UV-I 0 W/m 5,9 C 8,7 C 8,0 km/h (2 Bft) 95,65 %
20.09.2020 02:00 9,4 C 79 % 1018,7 hPa 0,0 l/m 6,4 km/h (2 Bft) NO 45 0 min 0,025 mm 0,0 UV-I 0 W/m 5,9 C 8,7 C 9,7 km/h (2 Bft) 95,65 %
20.09.2020 01:59 9,5 C 79 % 1018,7 hPa 0,0 l/m 4,8 km/h (1 Bft) NO 45 0 min 0,000 mm 0,0 UV-I 0 W/m 6,0 C 9,3 C 8,0 km/h (2 Bft) 100,00 %
20.09.2020 01:58 9,6 C 79 % 1018,7 hPa 0,0 l/m 6,4 km/h (2 Bft) NO 45 0 min 0,000 mm 0,0 UV-I 0 W/m 6,1 C 8,9 C 8,0 km/h (2 Bft) 100,00 %
20.09.2020 01:57 9,6 C 79 % 1018,7 hPa 0,0 l/m 6,4 km/h (2 Bft) NO 45 0 min 0,000 mm 0,0 UV-I 0 W/m 6,1 C 8,9 C 8,0 km/h (2 Bft) 100,00 %
20.09.2020 01:56 9,6 C 79 % 1018,6 hPa 0,0 l/m 4,8 km/h (1 Bft) O-NO 67 0 min 0,000 mm 0,0 UV-I 0 W/m 6,1 C 9,4 C 8,0 km/h (2 Bft) 100,00 %
20.09.2020 01:55 9,6 C 79 % 1018,7 hPa 0,0 l/m 8,0 km/h (2 Bft) NO 45 0 min 0,000 mm 0,0 UV-I 0 W/m 6,1 C 8,5 C 9,7 km/h (2 Bft) 100,00 %
20.09.2020 01:54 9,6 C 79 % 1018,6 hPa 0,0 l/m 8,0 km/h (2 Bft) NO 45 0 min 0,000 mm 0,0 UV-I 0 W/m 6,1 C 8,5 C 9,7 km/h (2 Bft) 100,00 %
20.09.2020 01:53 9,7 C 79 % 1018,6 hPa 0,0 l/m 8,0 km/h (2 Bft) NO 45 0 min 0,000 mm 0,0 UV-I 0 W/m 6,2 C 8,7 C 8,0 km/h (2 Bft) 91,30 %
20.09.2020 01:52 9,7 C 78 % 1018,7 hPa 0,0 l/m 6,4 km/h (2 Bft) NO 45 0 min 0,000 mm 0,0 UV-I 0 W/m 6,1 C 9,0 C 8,0 km/h (2 Bft) 100,00 %
20.09.2020 01:51 9,8 C 79 % 1018,7 hPa 0,0 l/m 6,4 km/h (2 Bft) NO 45 0 min 0,000 mm 0,0 UV-I 0 W/m 6,3 C 9,1 C 8,0 km/h (2 Bft) 100,00 %
20.09.2020 01:50 9,8 C 78 % 1018,7 hPa 0,0 l/m 4,8 km/h (1 Bft) NO 45 0 min 0,000 mm 0,0 UV-I 0 W/m 6,1 C 9,6 C 6,4 km/h (2 Bft) 100,00 %
20.09.2020 01:49 9,8 C 79 % 1018,7 hPa 0,0 l/m 8,0 km/h (2 Bft) NO 45 0 min 0,000 mm 0,0 UV-I 0 W/m 6,3 C 8,8 C 9,7 km/h (2 Bft) 95,65 %
20.09.2020 01:48 9,8 C 78 % 1018,7 hPa 0,0 l/m 6,4 km/h (2 Bft) NO 45 0 min 0,000 mm 0,0 UV-I 0 W/m 6,1 C 9,1 C 8,0 km/h (2 Bft) 100,00 %
20.09.2020 01:47 9,8 C 78 % 1018,7 hPa 0,0 l/m 8,0 km/h (2 Bft) NO 45 0 min 0,000 mm 0,0 UV-I 0 W/m 6,1 C 8,8 C 9,7 km/h (2 Bft) 95,65 %
20.09.2020 01:46 9,8 C 78 % 1018,7 hPa 0,0 l/m 8,0 km/h (2 Bft) NO 45 0 min 0,000 mm 0,0 UV-I 0 W/m 6,1 C 8,8 C 11,3 km/h (2 Bft) 95,65 %
20.09.2020 01:45 9,8 C 78 % 1018,7 hPa 0,0 l/m 6,4 km/h (2 Bft) NO 45 0 min 0,000 mm 0,0 UV-I 0 W/m 6,1 C 9,1 C 8,0 km/h (2 Bft) 100,00 %
20.09.2020 01:44 9,7 C 79 % 1018,7 hPa 0,0 l/m 8,0 km/h (2 Bft) NO 45 0 min 0,000 mm 0,0 UV-I 0 W/m 6,2 C 8,7 C 9,7 km/h (2 Bft) 100,00 %
20.09.2020 01:43 9,7 C 79 % 1018,6 hPa 0,0 l/m 6,4 km/h (2 Bft) NO 45 0 min 0,000 mm 0,0 UV-I 0 W/m 6,2 C 9,0 C 9,7 km/h (2 Bft) 100,00 %
20.09.2020 01:42 9,7 C 79 % 1018,7 hPa 0,0 l/m 6,4 km/h (2 Bft) NO 45 0 min 0,000 mm 0,0 UV-I 0 W/m 6,2 C 9,0 C 9,7 km/h (2 Bft) 100,00 %
20.09.2020 01:41 9,7 C 79 % 1018,7 hPa 0,0 l/m 8,0 km/h (2 Bft) NO 45 0 min 0,000 mm 0,0 UV-I 0 W/m 6,2 C 8,7 C 9,7 km/h (2 Bft) 100,00 %
20.09.2020 01:40 9,7 C 79 % 1018,6 hPa 0,0 l/m 8,0 km/h (2 Bft) NO 45 0 min 0,000 mm 0,0 UV-I 0 W/m 6,2 C 8,7 C 9,7 km/h (2 Bft) 100,00 %
20.09.2020 01:39 9,6 C 79 % 1018,7 hPa 0,0 l/m 8,0 km/h (2 Bft) NO 45 0 min 0,000 mm 0,0 UV-I 0 W/m 6,1 C 8,5 C 9,7 km/h (2 Bft) 91,30 %
20.09.2020 01:38 9,6 C 79 % 1018,6 hPa 0,0 l/m 6,4 km/h (2 Bft) NO 45 0 min 0,000 mm 0,0 UV-I 0 W/m 6,1 C 8,9 C 9,7 km/h (2 Bft) 100,00 %
20.09.2020 01:37 9,6 C 79 % 1018,6 hPa 0,0 l/m 8,0 km/h (2 Bft) NO 45 0 min 0,000 mm 0,0 UV-I 0 W/m 6,1 C 8,5 C 9,7 km/h (2 Bft) 100,00 %
20.09.2020 01:36 9,5 C 79 % 1018,6 hPa 0,0 l/m 8,0 km/h (2 Bft) NO 45 0 min 0,000 mm 0,0 UV-I 0 W/m 6,0 C 8,4 C 9,7 km/h (2 Bft) 100,00 %
20.09.2020 01:35 9,4 C 79 % 1018,6 hPa 0,0 l/m 6,4 km/h (2 Bft) NO 45 0 min 0,000 mm 0,0 UV-I 0 W/m 5,9 C 8,7 C 9,7 km/h (2 Bft) 100,00 %
20.09.2020 01:34 9,4 C 79 % 1018,6 hPa 0,0 l/m 6,4 km/h (2 Bft) NO 45 0 min 0,000 mm 0,0 UV-I 0 W/m 5,9 C 8,7 C 8,0 km/h (2 Bft) 100,00 %
20.09.2020 01:33 9,4 C 79 % 1018,7 hPa 0,0 l/m 4,8 km/h (1 Bft) NO 45 0 min 0,000 mm 0,0 UV-I 0 W/m 5,9 C 9,1 C 8,0 km/h (2 Bft) 95,65 %
20.09.2020 01:32 9,3 C 79 % 1018,7 hPa 0,0 l/m 4,8 km/h (1 Bft) NO 45 0 min 0,000 mm 0,0 UV-I 0 W/m 5,8 C 9,0 C 6,4 km/h (2 Bft) 95,65 %
20.09.2020 01:31 9,3 C 79 % 1018,7 hPa 0,0 l/m 4,8 km/h (1 Bft) NO 45 0 min 0,000 mm 0,0 UV-I 0 W/m 5,8 C 9,0 C 6,4 km/h (2 Bft) 100,00 %
20.09.2020 01:30 9,3 C 79 % 1018,7 hPa 0,0 l/m 4,8 km/h (1 Bft) NO 45 0 min 0,000 mm 0,0 UV-I 0 W/m 5,8 C 9,0 C 8,0 km/h (2 Bft) 100,00 %
20.09.2020 01:29 9,4 C 79 % 1018,7 hPa 0,0 l/m 6,4 km/h (2 Bft) NO 45 0 min 0,000 mm 0,0 UV-I 0 W/m 5,9 C 8,7 C 8,0 km/h (2 Bft) 100,00 %
20.09.2020 01:28 9,4 C 79 % 1018,7 hPa 0,0 l/m 4,8 km/h (1 Bft) NO 45 0 min 0,000 mm 0,0 UV-I 0 W/m 5,9 C 9,1 C 8,0 km/h (2 Bft) 100,00 %
20.09.2020 01:27 9,6 C 78 % 1018,6 hPa 0,0 l/m 4,8 km/h (1 Bft) NO 45 0 min 0,000 mm 0,0 UV-I 0 W/m 6,0 C 9,4 C 6,4 km/h (2 Bft) 95,65 %
20.09.2020 01:26 9,6 C 78 % 1018,7 hPa 0,0 l/m 4,8 km/h (1 Bft) NO 45 0 min 0,000 mm 0,0 UV-I 0 W/m 6,0 C 9,4 C 6,4 km/h (2 Bft) 100,00 %
20.09.2020 01:25 9,7 C 78 % 1018,6 hPa 0,0 l/m 6,4 km/h (2 Bft) NO 45 0 min 0,000 mm 0,0 UV-I 0 W/m 6,1 C 9,0 C 8,0 km/h (2 Bft) 95,65 %
20.09.2020 01:24 9,7 C 78 % 1018,7 hPa 0,0 l/m 6,4 km/h (2 Bft) NO 45 0 min 0,000 mm 0,0 UV-I 0 W/m 6,1 C 9,0 C 8,0 km/h (2 Bft) 100,00 %
20.09.2020 01:23 9,7 C 78 % 1018,7 hPa 0,0 l/m 6,4 km/h (2 Bft) NO 45 0 min 0,000 mm 0,0 UV-I 0 W/m 6,1 C 9,0 C 9,7 km/h (2 Bft) 100,00 %
20.09.2020 01:22 9,7 C 78 % 1018,8 hPa 0,0 l/m 6,4 km/h (2 Bft) NO 45 0 min 0,000 mm 0,0 UV-I 0 W/m 6,1 C 9,0 C 8,0 km/h (2 Bft) 95,65 %
20.09.2020 01:21 9,7 C 78 % 1018,7 hPa 0,0 l/m 8,0 km/h (2 Bft) NO 45 0 min 0,000 mm 0,0 UV-I 0 W/m 6,1 C 8,7 C 12,9 km/h (3 Bft) 95,65 %
20.09.2020 01:20 9,7 C 78 % 1018,8 hPa 0,0 l/m 8,0 km/h (2 Bft) NO 45 0 min 0,000 mm 0,0 UV-I 0 W/m 6,1 C 8,7 C 9,7 km/h (2 Bft) 100,00 %
20.09.2020 01:19 9,7 C 78 % 1018,8 hPa 0,0 l/m 9,7 km/h (2 Bft) NO 45 0 min 0,000 mm 0,0 UV-I 0 W/m 6,1 C 8,3 C 12,9 km/h (3 Bft) 95,65 %
20.09.2020 01:18 9,7 C 78 % 1018,7 hPa 0,0 l/m 8,0 km/h (2 Bft) NO 45 0 min 0,000 mm 0,0 UV-I 0 W/m 6,1 C 8,7 C 9,7 km/h (2 Bft) 95,65 %
20.09.2020 01:17 9,7 C 78 % 1018,8 hPa 0,0 l/m 9,7 km/h (2 Bft) NO 45 0 min 0,000 mm 0,0 UV-I 0 W/m 6,1 C 8,3 C 14,5 km/h (3 Bft) 100,00 %
20.09.2020 01:16 9,7 C 78 % 1018,8 hPa 0,0 l/m 9,7 km/h (2 Bft) NO 45 0 min 0,000 mm 0,0 UV-I 0 W/m 6,1 C 8,3 C 11,3 km/h (2 Bft) 100,00 %
20.09.2020 01:15 9,7 C 78 % 1018,8 hPa 0,0 l/m 8,0 km/h (2 Bft) NO 45 0 min 0,000 mm 0,0 UV-I 0 W/m 6,1 C 8,7 C 9,7 km/h (2 Bft) 100,00 %
20.09.2020 01:14 9,7 C 78 % 1018,8 hPa 0,0 l/m 8,0 km/h (2 Bft) NO 45 0 min 0,000 mm 0,0 UV-I 0 W/m 6,1 C 8,7 C 9,7 km/h (2 Bft) 100,00 %
20.09.2020 01:13 9,7 C 78 % 1018,8 hPa 0,0 l/m 9,7 km/h (2 Bft) NO 45 0 min 0,000 mm 0,0 UV-I 0 W/m 6,1 C 8,3 C 11,3 km/h (2 Bft) 100,00 %
20.09.2020 01:12 9,7 C 78 % 1018,8 hPa 0,0 l/m 8,0 km/h (2 Bft) NO 45 0 min 0,000 mm 0,0 UV-I 0 W/m 6,1 C 8,7 C 9,7 km/h (2 Bft) 95,65 %
20.09.2020 01:11 9,7 C 78 % 1018,8 hPa 0,0 l/m 9,7 km/h (2 Bft) NO 45 0 min 0,000 mm 0,0 UV-I 0 W/m 6,1 C 8,3 C 11,3 km/h (2 Bft) 95,65 %
20.09.2020 01:10 9,7 C 78 % 1018,9 hPa 0,0 l/m 9,7 km/h (2 Bft) NO 45 0 min 0,000 mm 0,0 UV-I 0 W/m 6,1 C 8,3 C 9,7 km/h (2 Bft) 100,00 %
20.09.2020 01:09 9,7 C 78 % 1018,9 hPa 0,0 l/m 9,7 km/h (2 Bft) NO 45 0 min 0,000 mm 0,0 UV-I 0 W/m 6,1 C 8,3 C 11,3 km/h (2 Bft) 95,65 %
20.09.2020 01:08 9,7 C 78 % 1018,9 hPa 0,0 l/m 9,7 km/h (2 Bft) NO 45 0 min 0,000 mm 0,0 UV-I 0 W/m 6,1 C 8,3 C 11,3 km/h (2 Bft) 100,00 %
20.09.2020 01:07 9,7 C 78 % 1018,9 hPa 0,0 l/m 8,0 km/h (2 Bft) NO 45 0 min 0,000 mm 0,0 UV-I 0 W/m 6,1 C 8,7 C 11,3 km/h (2 Bft) 100,00 %
20.09.2020 01:06 9,7 C 78 % 1018,9 hPa 0,0 l/m 9,7 km/h (2 Bft) NO 45 0 min 0,000 mm 0,0 UV-I 0 W/m 6,1 C 8,3 C 11,3 km/h (2 Bft) 100,00 %
20.09.2020 01:05 9,7 C 78 % 1018,9 hPa 0,0 l/m 9,7 km/h (2 Bft) NO 45 0 min 0,000 mm 0,0 UV-I 0 W/m 6,1 C 8,3 C 11,3 km/h (2 Bft) 100,00 %
20.09.2020 01:04 9,8 C 77 % 1018,9 hPa 0,0 l/m 8,0 km/h (2 Bft) NO 45 0 min 0,000 mm 0,0 UV-I 0 W/m 6,0 C 8,8 C 9,7 km/h (2 Bft) 91,30 %
20.09.2020 01:03 9,8 C 77 % 1019,0 hPa 0,0 l/m 8,0 km/h (2 Bft) NO 45 0 min 0,000 mm 0,0 UV-I 0 W/m 6,0 C 8,8 C 9,7 km/h (2 Bft) 100,00 %
20.09.2020 01:02 9,8 C 77 % 1019,0 hPa 0,0 l/m 8,0 km/h (2 Bft) NO 45 0 min 0,000 mm 0,0 UV-I 0 W/m 6,0 C 8,8 C 9,7 km/h (2 Bft) 95,65 %
20.09.2020 01:01 9,8 C 77 % 1018,9 hPa 0,0 l/m 8,0 km/h (2 Bft) NO 45 0 min 0,000 mm 0,0 UV-I 0 W/m 6,0 C 8,8 C 11,3 km/h (2 Bft) 100,00 %
20.09.2020 01:00 9,9 C 77 % 1018,9 hPa 0,0 l/m 6,4 km/h (2 Bft) NO 45 0 min 0,025 mm 0,0 UV-I 0 W/m 6,1 C 9,3 C 8,0 km/h (2 Bft) 100,00 %
20.09.2020 00:59 9,9 C 77 % 1019,0 hPa 0,0 l/m 8,0 km/h (2 Bft) NO 45 0 min 0,000 mm 0,0 UV-I 0 W/m 6,1 C 8,9 C 11,3 km/h (2 Bft) 100,00 %
20.09.2020 00:58 9,9 C 77 % 1018,9 hPa 0,0 l/m 8,0 km/h (2 Bft) NO 45 0 min 0,000 mm 0,0 UV-I 0 W/m 6,1 C 8,9 C 11,3 km/h (2 Bft) 100,00 %
20.09.2020 00:57 9,9 C 77 % 1018,9 hPa 0,0 l/m 8,0 km/h (2 Bft) NO 45 0 min 0,000 mm 0,0 UV-I 0 W/m 6,1 C 8,9 C 9,7 km/h (2 Bft) 91,30 %
20.09.2020 00:56 9,9 C 77 % 1018,9 hPa 0,0 l/m 8,0 km/h (2 Bft) NO 45 0 min 0,000 mm 0,0 UV-I 0 W/m 6,1 C 8,9 C 9,7 km/h (2 Bft) 95,65 %
20.09.2020 00:55 10,0 C 77 % 1019,1 hPa 0,0 l/m 6,4 km/h (2 Bft) NO 45 0 min 0,000 mm 0,0 UV-I 0 W/m 6,2 C 9,4 C 9,7 km/h (2 Bft) 100,00 %
20.09.2020 00:54 10,1 C 76 % 1019,1 hPa 0,0 l/m 8,0 km/h (2 Bft) NO 45 0 min 0,000 mm 0,0 UV-I 0 W/m 6,1 C 10,1 C 9,7 km/h (2 Bft) 95,65 %
20.09.2020 00:53 10,1 C 76 % 1019,1 hPa 0,0 l/m 6,4 km/h (2 Bft) NO 45 0 min 0,000 mm 0,0 UV-I 0 W/m 6,1 C 10,1 C 8,0 km/h (2 Bft) 100,00 %
20.09.2020 00:52 10,1 C 76 % 1019,0 hPa 0,0 l/m 6,4 km/h (2 Bft) N-NO 22 0 min 0,000 mm 0,0 UV-I 0 W/m 6,1 C 10,1 C 11,3 km/h (2 Bft) 95,65 %
20.09.2020 00:51 10,1 C 76 % 1019,1 hPa 0,0 l/m 6,4 km/h (2 Bft) NO 45 0 min 0,000 mm 0,0 UV-I 0 W/m 6,1 C 10,1 C 9,7 km/h (2 Bft) 100,00 %
20.09.2020 00:50 10,1 C 76 % 1019,1 hPa 0,0 l/m 6,4 km/h (2 Bft) N-NO 22 0 min 0,000 mm 0,0 UV-I 0 W/m 6,1 C 10,1 C 8,0 km/h (2 Bft) 95,65 %
20.09.2020 00:49 10,2 C 76 % 1019,0 hPa 0,0 l/m 4,8 km/h (1 Bft) N-NO 22 0 min 0,000 mm 0,0 UV-I 0 W/m 6,2 C 10,2 C 6,4 km/h (2 Bft) 91,30 %
20.09.2020 00:48 10,2 C 76 % 1019,1 hPa 0,0 l/m 6,4 km/h (2 Bft) N-NO 22 0 min 0,000 mm 0,0 UV-I 0 W/m 6,2 C 10,2 C 8,0 km/h (2 Bft) 91,30 %
20.09.2020 00:47 10,2 C 76 % 1019,1 hPa 0,0 l/m 6,4 km/h (2 Bft) NO 45 0 min 0,000 mm 0,0 UV-I 0 W/m 6,2 C 10,2 C 9,7 km/h (2 Bft) 100,00 %
20.09.2020 00:46 10,2 C 76 % 1019,1 hPa 0,0 l/m 6,4 km/h (2 Bft) N-NO 22 0 min 0,000 mm 0,0 UV-I 0 W/m 6,2 C 10,2 C 8,0 km/h (2 Bft) 91,30 %
20.09.2020 00:45 10,2 C 76 % 1019,1 hPa 0,0 l/m 6,4 km/h (2 Bft) NO 45 0 min 0,000 mm 0,0 UV-I 0 W/m 6,2 C 10,2 C 9,7 km/h (2 Bft) 100,00 %
20.09.2020 00:44 10,2 C 76 % 1019,1 hPa 0,0 l/m 8,0 km/h (2 Bft) NO 45 0 min 0,000 mm 0,0 UV-I 0 W/m 6,2 C 10,2 C 11,3 km/h (2 Bft) 95,65 %
20.09.2020 00:43 10,2 C 76 % 1019,2 hPa 0,0 l/m 6,4 km/h (2 Bft) NO 45 0 min 0,000 mm 0,0 UV-I 0 W/m 6,2 C 10,2 C 9,7 km/h (2 Bft) 95,65 %
20.09.2020 00:42 10,2 C 76 % 1019,2 hPa 0,0 l/m 6,4 km/h (2 Bft) NO 45 0 min 0,000 mm 0,0 UV-I 0 W/m 6,2 C 10,2 C 9,7 km/h (2 Bft) 95,65 %
20.09.2020 00:41 10,3 C 75 % 1019,2 hPa 0,0 l/m 9,7 km/h (2 Bft) NO 45 0 min 0,000 mm 0,0 UV-I 0 W/m 6,1 C 10,3 C 11,3 km/h (2 Bft) 95,65 %
20.09.2020 00:40 10,3 C 75 % 1019,2 hPa 0,0 l/m 8,0 km/h (2 Bft) NO 45 0 min 0,000 mm 0,0 UV-I 0 W/m 6,1 C 10,3 C 14,5 km/h (3 Bft) 100,00 %
20.09.2020 00:39 10,4 C 75 % 1019,2 hPa 0,0 l/m 8,0 km/h (2 Bft) NO 45 0 min 0,000 mm 0,0 UV-I 0 W/m 6,2 C 10,4 C 9,7 km/h (2 Bft) 95,65 %
20.09.2020 00:38 10,4 C 75 % 1019,2 hPa 0,0 l/m 9,7 km/h (2 Bft) NO 45 0 min 0,000 mm 0,0 UV-I 0 W/m 6,2 C 10,4 C 14,5 km/h (3 Bft) 100,00 %
20.09.2020 00:37 10,4 C 75 % 1019,1 hPa 0,0 l/m 8,0 km/h (2 Bft) NO 45 0 min 0,000 mm 0,0 UV-I 0 W/m 6,2 C 10,4 C 9,7 km/h (2 Bft) 95,65 %
20.09.2020 00:36 10,5 C 75 % 1019,2 hPa 0,0 l/m 9,7 km/h (2 Bft) NO 45 0 min 0,000 mm 0,0 UV-I 0 W/m 6,3 C 10,5 C 11,3 km/h (2 Bft) 95,65 %
20.09.2020 00:35 10,6 C 74 % 1019,3 hPa 0,0 l/m 9,7 km/h (2 Bft) NO 45 0 min 0,000 mm 0,0 UV-I 0 W/m 6,2 C 10,6 C 14,5 km/h (3 Bft) 95,65 %
20.09.2020 00:34 10,6 C 74 % 1019,2 hPa 0,0 l/m 9,7 km/h (2 Bft) NO 45 0 min 0,000 mm 0,0 UV-I 0 W/m 6,2 C 10,6 C 11,3 km/h (2 Bft) 95,65 %
20.09.2020 00:33 10,7 C 74 % 1019,3 hPa 0,0 l/m 8,0 km/h (2 Bft) NO 45 0 min 0,000 mm 0,0 UV-I 0 W/m 6,3 C 10,7 C 11,3 km/h (2 Bft) 100,00 %
20.09.2020 00:32 10,7 C 74 % 1019,3 hPa 0,0 l/m 8,0 km/h (2 Bft) NO 45 0 min 0,000 mm 0,0 UV-I 0 W/m 6,3 C 10,7 C 11,3 km/h (2 Bft) 95,65 %
20.09.2020 00:31 10,7 C 74 % 1019,3 hPa 0,0 l/m 8,0 km/h (2 Bft) NO 45 0 min 0,000 mm 0,0 UV-I 0 W/m 6,3 C 10,7 C 9,7 km/h (2 Bft) 100,00 %
20.09.2020 00:30 10,7 C 74 % 1019,3 hPa 0,0 l/m 8,0 km/h (2 Bft) NO 45 0 min 0,000 mm 0,0 UV-I 0 W/m 6,3 C 10,7 C 9,7 km/h (2 Bft) 86,96 %
20.09.2020 00:29 10,7 C 74 % 1019,3 hPa 0,0 l/m 8,0 km/h (2 Bft) NO 45 0 min 0,000 mm 0,0 UV-I 0 W/m 6,3 C 10,7 C 12,9 km/h (3 Bft) 95,65 %
20.09.2020 00:28 10,7 C 74 % 1019,3 hPa 0,0 l/m 8,0 km/h (2 Bft) NO 45 0 min 0,000 mm 0,0 UV-I 0 W/m 6,3 C 10,7 C 11,3 km/h (2 Bft) 95,65 %
20.09.2020 00:27 10,8 C 74 % 1019,3 hPa 0,0 l/m 8,0 km/h (2 Bft) NO 45 0 min 0,000 mm 0,0 UV-I 0 W/m 6,4 C 10,8 C 11,3 km/h (2 Bft) 100,00 %
20.09.2020 00:26 10,8 C 74 % 1019,3 hPa 0,0 l/m 9,7 km/h (2 Bft) NO 45 0 min 0,000 mm 0,0 UV-I 0 W/m 6,4 C 10,8 C 14,5 km/h (3 Bft) 95,65 %
20.09.2020 00:25 10,7 C 74 % 1019,3 hPa 0,0 l/m 8,0 km/h (2 Bft) NO 45 0 min 0,000 mm 0,0 UV-I 0 W/m 6,3 C 10,7 C 11,3 km/h (2 Bft) 95,65 %
20.09.2020 00:24 10,8 C 74 % 1019,3 hPa 0,0 l/m 8,0 km/h (2 Bft) NO 45 0 min 0,000 mm 0,0 UV-I 0 W/m 6,4 C 10,8 C 11,3 km/h (2 Bft) 95,65 %
20.09.2020 00:23 10,8 C 73 % 1019,4 hPa 0,0 l/m 9,7 km/h (2 Bft) NO 45 0 min 0,000 mm 0,0 UV-I 0 W/m 6,2 C 10,8 C 12,9 km/h (3 Bft) 95,65 %
20.09.2020 00:22 10,8 C 74 % 1019,3 hPa 0,0 l/m 9,7 km/h (2 Bft) NO 45 0 min 0,000 mm 0,0 UV-I 0 W/m 6,4 C 10,8 C 14,5 km/h (3 Bft) 95,65 %
20.09.2020 00:21 10,8 C 73 % 1019,4 hPa 0,0 l/m 8,0 km/h (2 Bft) NO 45 0 min 0,000 mm 0,0 UV-I 0 W/m 6,2 C 10,8 C 9,7 km/h (2 Bft) 100,00 %
20.09.2020 00:20 10,8 C 74 % 1019,3 hPa 0,0 l/m 9,7 km/h (2 Bft) NO 45 0 min 0,000 mm 0,0 UV-I 0 W/m 6,4 C 10,8 C 12,9 km/h (3 Bft) 100,00 %
20.09.2020 00:19 10,8 C 74 % 1019,3 hPa 0,0 l/m 9,7 km/h (2 Bft) NO 45 0 min 0,000 mm 0,0 UV-I 0 W/m 6,4 C 10,8 C 14,5 km/h (3 Bft) 95,65 %
20.09.2020 00:18 10,8 C 73 % 1019,4 hPa 0,0 l/m 8,0 km/h (2 Bft) N-NO 22 0 min 0,000 mm 0,0 UV-I 0 W/m 6,2 C 10,8 C 14,5 km/h (3 Bft) 95,65 %
20.09.2020 00:17 10,7 C 74 % 1019,4 hPa 0,0 l/m 9,7 km/h (2 Bft) NO 45 0 min 0,000 mm 0,0 UV-I 0 W/m 6,3 C 10,7 C 14,5 km/h (3 Bft) 91,30 %
20.09.2020 00:16 10,7 C 74 % 1019,4 hPa 0,0 l/m 8,0 km/h (2 Bft) NO 45 0 min 0,000 mm 0,0 UV-I 0 W/m 6,3 C 10,7 C 11,3 km/h (2 Bft) 95,65 %
20.09.2020 00:15 10,7 C 74 % 1019,4 hPa 0,0 l/m 8,0 km/h (2 Bft) NO 45 0 min 0,000 mm 0,0 UV-I 0 W/m 6,3 C 10,7 C 14,5 km/h (3 Bft) 95,65 %
20.09.2020 00:14 10,7 C 74 % 1019,5 hPa 0,0 l/m 8,0 km/h (2 Bft) NO 45 0 min 0,000 mm 0,0 UV-I 0 W/m 6,3 C 10,7 C 11,3 km/h (2 Bft) 95,65 %
20.09.2020 00:13 10,7 C 74 % 1019,4 hPa 0,0 l/m 6,4 km/h (2 Bft) NO 45 0 min 0,000 mm 0,0 UV-I 0 W/m 6,3 C 10,7 C 8,0 km/h (2 Bft) 100,00 %
20.09.2020 00:12 10,7 C 74 % 1019,4 hPa 0,0 l/m 6,4 km/h (2 Bft) NO 45 0 min 0,000 mm 0,0 UV-I 0 W/m 6,3 C 10,7 C 9,7 km/h (2 Bft) 95,65 %
20.09.2020 00:11 10,7 C 74 % 1019,4 hPa 0,0 l/m 8,0 km/h (2 Bft) NO 45 0 min 0,000 mm 0,0 UV-I 0 W/m 6,3 C 10,7 C 11,3 km/h (2 Bft) 100,00 %
20.09.2020 00:10 10,7 C 74 % 1019,5 hPa 0,0 l/m 9,7 km/h (2 Bft) NO 45 0 min 0,000 mm 0,0 UV-I 0 W/m 6,3 C 10,7 C 14,5 km/h (3 Bft) 95,65 %
20.09.2020 00:09 10,7 C 74 % 1019,4 hPa 0,0 l/m 8,0 km/h (2 Bft) NO 45 0 min 0,000 mm 0,0 UV-I 0 W/m 6,3 C 10,7 C 12,9 km/h (3 Bft) 95,65 %
20.09.2020 00:08 10,7 C 74 % 1019,4 hPa 0,0 l/m 8,0 km/h (2 Bft) NO 45 0 min 0,000 mm 0,0 UV-I 0 W/m 6,3 C 10,7 C 11,3 km/h (2 Bft) 95,65 %
20.09.2020 00:07 10,7 C 74 % 1019,4 hPa 0,0 l/m 8,0 km/h (2 Bft) NO 45 0 min 0,000 mm 0,0 UV-I 0 W/m 6,3 C 10,7 C 9,7 km/h (2 Bft) 100,00 %
20.09.2020 00:06 10,7 C 74 % 1019,4 hPa 0,0 l/m 8,0 km/h (2 Bft) NO 45 0 min 0,000 mm 0,0 UV-I 0 W/m 6,3 C 10,7 C 12,9 km/h (3 Bft) 100,00 %
20.09.2020 00:05 10,7 C 74 % 1019,5 hPa 0,0 l/m 9,7 km/h (2 Bft) NO 45 0 min 0,000 mm 0,0 UV-I 0 W/m 6,3 C 10,7 C 12,9 km/h (3 Bft) 100,00 %
20.09.2020 00:04 10,7 C 74 % 1019,5 hPa 0,0 l/m 8,0 km/h (2 Bft) N-NO 22 0 min 0,000 mm 0,0 UV-I 0 W/m 6,3 C 10,7 C 14,5 km/h (3 Bft) 100,00 %
20.09.2020 00:03 10,6 C 74 % 1019,6 hPa 0,0 l/m 6,4 km/h (2 Bft) NO 45 0 min 0,000 mm 0,0 UV-I 0 W/m 6,2 C 10,6 C 8,0 km/h (2 Bft) 100,00 %
20.09.2020 00:02 10,6 C 74 % 1019,5 hPa 0,0 l/m 6,4 km/h (2 Bft) NO 45 0 min 0,000 mm 0,0 UV-I 0 W/m 6,2 C 10,6 C 9,7 km/h (2 Bft) 100,00 %
20.09.2020 00:01 10,6 C 74 % 1019,5 hPa 0,0 l/m 9,7 km/h (2 Bft) NO 45 0 min 0,000 mm 0,0 UV-I 0 W/m 6,2 C 10,6 C 14,5 km/h (3 Bft) 91,30 %
20.09.2020 00:00 10,6 C 75 % 1019,5 hPa 0,0 l/m 9,7 km/h (2 Bft) NO 45 0 min 0,025 mm 0,0 UV-I 0 W/m 6,4 C 10,6 C 14,5 km/h (3 Bft) 95,65 %
_ Min-Zeit 06:11 16:13 15:31 - 04:03 - - - - - - 05:48 07:07 10:46 00:30
Minimum _ 8,0 C 58 % 1016,9 hPa - 0,0 km/h (0 Bft) - - - - - - 5,6 C 6,0 C 0,0 km/h (0 Bft) 86,96 %
_ Max-Zeit 15:34 07:00 00:03 00:00 13:30 - - 08:50 13:00 12:23 12:47 15:42 15:35 13:24 00:02
Maximum _ 20,4 C 86 % 1019,6 hPa 0,0 l/m 14,5 km/h
SO (3 Bft)
- - 1 min 0,381 mm 3,9 UV-I 663 W/m 14,2 C 20,4 C 17,7 km/h
O-SO (3 Bft)
100,00 %
Durchschnitt _ 13,5 C 75 % 1017,8 hPa #0,0 l/m 4,7 km/h (1 Bft) NO - #8:14 h #2,841 mm 2,4 UV-I 362 W/m 9,0 C 13,3 C 7,2 km/h (2 Bft) 97,55 %